<?xml version='1.0' encoding='UTF-8'?><gpx version="1.1" creator="JPX - https://github.com/jenetics/jpx" xmlns="http://www.topografix.com/GPX/1/1"><trk><trkseg><trkpt lat="43.4220155" lon="11.1812237"><ele>170.0</ele><time>2026-04-03T15:27:43.582Z</time></trkpt><trkpt lat="43.4221875" lon="11.1822247"><ele>170.0</ele><time>2026-04-03T15:27:50.329Z</time></trkpt><trkpt lat="43.4221489" lon="11.1815324"><ele>170.0</ele><time>2026-04-03T15:27:54.371Z</time></trkpt><trkpt lat="43.4221265" lon="11.1814395"><ele>170.0</ele><time>2026-04-03T15:27:57.333Z</time></trkpt><trkpt lat="43.4220512" lon="11.1812413"><ele>170.0</ele><time>2026-04-03T15:27:59.348Z</time></trkpt><trkpt lat="43.4219762" lon="11.1812866"><ele>170.0</ele><time>2026-04-03T15:28:04.356Z</time></trkpt><trkpt lat="43.4221616" lon="11.1811585"><ele>170.0</ele><time>2026-04-03T15:28:34.367Z</time></trkpt><trkpt lat="43.422226" lon="11.1811622"><ele>170.0</ele><time>2026-04-03T15:28:40.347Z</time></trkpt><trkpt lat="43.4222479" lon="11.1812552"><ele>170.0</ele><time>2026-04-03T15:28:44.371Z</time></trkpt><trkpt lat="43.4222785" lon="11.1813676"><ele>170.0</ele><time>2026-04-03T15:28:48.392Z</time></trkpt><trkpt lat="43.4223339" lon="11.1815306"><ele>170.0</ele><time>2026-04-03T15:28:52.348Z</time></trkpt><trkpt lat="43.4223012" lon="11.1816977"><ele>170.0</ele><time>2026-04-03T15:28:55.35Z</time></trkpt><trkpt lat="43.4222535" lon="11.181777"><ele>170.0</ele><time>2026-04-03T15:28:57.364Z</time></trkpt><trkpt lat="43.4222045" lon="11.1818449"><ele>170.0</ele><time>2026-04-03T15:28:59.382Z</time></trkpt><trkpt lat="43.4221553" lon="11.1819034"><ele>170.0</ele><time>2026-04-03T15:29:01.366Z</time></trkpt><trkpt lat="43.4221015" lon="11.1819807"><ele>170.0</ele><time>2026-04-03T15:29:04.379Z</time></trkpt><trkpt lat="43.4220713" lon="11.1820852"><ele>170.0</ele><time>2026-04-03T15:29:08.356Z</time></trkpt><trkpt lat="43.4220772" lon="11.1822064"><ele>170.5</ele><time>2026-04-03T15:29:11.381Z</time></trkpt><trkpt lat="43.4221039" lon="11.1822907"><ele>171.0</ele><time>2026-04-03T15:29:13.383Z</time></trkpt><trkpt lat="43.4221326" lon="11.1823748"><ele>171.5</ele><time>2026-04-03T15:29:15.369Z</time></trkpt><trkpt lat="43.4221765" lon="11.1825107"><ele>172.0</ele><time>2026-04-03T15:29:18.356Z</time></trkpt><trkpt lat="43.4222033" lon="11.1825982"><ele>172.5</ele><time>2026-04-03T15:29:20.378Z</time></trkpt><trkpt lat="43.4221576" lon="11.1826906"><ele>173.0</ele><time>2026-04-03T15:29:22.388Z</time></trkpt><trkpt lat="43.4220867" lon="11.1827645"><ele>173.28571428571428</ele><time>2026-04-03T15:29:24.349Z</time></trkpt><trkpt lat="43.422024" lon="11.1828361"><ele>173.57142857142858</ele><time>2026-04-03T15:29:26.365Z</time></trkpt><trkpt lat="43.4219633" lon="11.1828856"><ele>173.85714285714286</ele><time>2026-04-03T15:29:28.402Z</time></trkpt><trkpt lat="43.4219039" lon="11.1829439"><ele>174.14285714285714</ele><time>2026-04-03T15:29:30.388Z</time></trkpt><trkpt lat="43.4218463" lon="11.183006"><ele>174.42857142857144</ele><time>2026-04-03T15:29:32.359Z</time></trkpt><trkpt lat="43.4217895" lon="11.1830591"><ele>174.71428571428572</ele><time>2026-04-03T15:29:34.341Z</time></trkpt><trkpt lat="43.4217366" lon="11.1831089"><ele>175.0</ele><time>2026-04-03T15:29:36.372Z</time></trkpt><trkpt lat="43.4216691" lon="11.1831667"><ele>175.0</ele><time>2026-04-03T15:29:38.396Z</time></trkpt><trkpt lat="43.4216033" lon="11.1832173"><ele>175.0</ele><time>2026-04-03T15:29:40.372Z</time></trkpt><trkpt lat="43.4215316" lon="11.1832679"><ele>175.0</ele><time>2026-04-03T15:29:42.382Z</time></trkpt><trkpt lat="43.4214648" lon="11.1833217"><ele>175.0</ele><time>2026-04-03T15:29:44.357Z</time></trkpt><trkpt lat="43.4214004" lon="11.1833753"><ele>175.0</ele><time>2026-04-03T15:29:46.36Z</time></trkpt><trkpt lat="43.4213383" lon="11.1834485"><ele>175.0</ele><time>2026-04-03T15:29:48.356Z</time></trkpt><trkpt lat="43.4212817" lon="11.1835075"><ele>175.14285714285714</ele><time>2026-04-03T15:29:50.35Z</time></trkpt><trkpt lat="43.4212217" lon="11.1835602"><ele>175.28571428571428</ele><time>2026-04-03T15:29:52.351Z</time></trkpt><trkpt lat="43.4211644" lon="11.1836171"><ele>175.42857142857144</ele><time>2026-04-03T15:29:54.354Z</time></trkpt><trkpt lat="43.4211199" lon="11.1836847"><ele>175.57142857142856</ele><time>2026-04-03T15:29:56.345Z</time></trkpt><trkpt lat="43.4210703" lon="11.1837533"><ele>175.71428571428572</ele><time>2026-04-03T15:29:58.363Z</time></trkpt><trkpt lat="43.4210187" lon="11.1838314"><ele>175.85714285714286</ele><time>2026-04-03T15:30:00.342Z</time></trkpt><trkpt lat="43.4209639" lon="11.1839225"><ele>176.0</ele><time>2026-04-03T15:30:02.367Z</time></trkpt><trkpt lat="43.4209137" lon="11.1840265"><ele>176.20000000000002</ele><time>2026-04-03T15:30:04.367Z</time></trkpt><trkpt lat="43.4208596" lon="11.1841209"><ele>176.4</ele><time>2026-04-03T15:30:06.343Z</time></trkpt><trkpt lat="43.4207988" lon="11.1842244"><ele>176.6</ele><time>2026-04-03T15:30:08.348Z</time></trkpt><trkpt lat="43.4207461" lon="11.1843316"><ele>176.8</ele><time>2026-04-03T15:30:10.34Z</time></trkpt><trkpt lat="43.4206909" lon="11.1844342"><ele>177.0</ele><time>2026-04-03T15:30:12.356Z</time></trkpt><trkpt lat="43.4206313" lon="11.1845423"><ele>177.0</ele><time>2026-04-03T15:30:14.37Z</time></trkpt><trkpt lat="43.4205768" lon="11.1846552"><ele>177.0</ele><time>2026-04-03T15:30:16.352Z</time></trkpt><trkpt lat="43.4205199" lon="11.1847568"><ele>177.0</ele><time>2026-04-03T15:30:18.366Z</time></trkpt><trkpt lat="43.4204658" lon="11.1848589"><ele>177.0</ele><time>2026-04-03T15:30:20.348Z</time></trkpt><trkpt lat="43.4204113" lon="11.1849703"><ele>177.0</ele><time>2026-04-03T15:30:22.356Z</time></trkpt><trkpt lat="43.4203638" lon="11.1850704"><ele>176.8</ele><time>2026-04-03T15:30:24.343Z</time></trkpt><trkpt lat="43.420308" lon="11.1851769"><ele>176.6</ele><time>2026-04-03T15:30:26.376Z</time></trkpt><trkpt lat="43.4202466" lon="11.1852747"><ele>176.4</ele><time>2026-04-03T15:30:28.351Z</time></trkpt><trkpt lat="43.4201864" lon="11.1853821"><ele>176.20000000000002</ele><time>2026-04-03T15:30:30.371Z</time></trkpt><trkpt lat="43.4201282" lon="11.1854796"><ele>176.0</ele><time>2026-04-03T15:30:32.357Z</time></trkpt><trkpt lat="43.4200734" lon="11.1855853"><ele>176.0</ele><time>2026-04-03T15:30:34.362Z</time></trkpt><trkpt lat="43.4200182" lon="11.1856851"><ele>176.0</ele><time>2026-04-03T15:30:36.388Z</time></trkpt><trkpt lat="43.4199579" lon="11.1857803"><ele>176.0</ele><time>2026-04-03T15:30:38.4Z</time></trkpt><trkpt lat="43.4199049" lon="11.1858763"><ele>176.0</ele><time>2026-04-03T15:30:40.385Z</time></trkpt><trkpt lat="43.4198564" lon="11.1859674"><ele>176.0</ele><time>2026-04-03T15:30:42.341Z</time></trkpt><trkpt lat="43.4198002" lon="11.1860664"><ele>176.0</ele><time>2026-04-03T15:30:44.375Z</time></trkpt><trkpt lat="43.4197466" lon="11.1861622"><ele>176.0</ele><time>2026-04-03T15:30:46.34Z</time></trkpt><trkpt lat="43.4196984" lon="11.1862609"><ele>176.0</ele><time>2026-04-03T15:30:48.346Z</time></trkpt><trkpt lat="43.4196462" lon="11.1863554"><ele>176.0</ele><time>2026-04-03T15:30:50.352Z</time></trkpt><trkpt lat="43.4195777" lon="11.1864677"><ele>176.0</ele><time>2026-04-03T15:30:52.365Z</time></trkpt><trkpt lat="43.4195345" lon="11.1865323"><ele>176.0</ele><time>2026-04-03T15:30:53.379Z</time></trkpt><trkpt lat="43.4194937" lon="11.1866012"><ele>176.0</ele><time>2026-04-03T15:30:54.352Z</time></trkpt><trkpt lat="43.4194506" lon="11.1866774"><ele>175.66666666666666</ele><time>2026-04-03T15:30:55.37Z</time></trkpt><trkpt lat="43.4194084" lon="11.1867567"><ele>175.33333333333331</ele><time>2026-04-03T15:30:56.388Z</time></trkpt><trkpt lat="43.4193661" lon="11.1868382"><ele>175.0</ele><time>2026-04-03T15:30:57.342Z</time></trkpt><trkpt lat="43.4193213" lon="11.1869228"><ele>174.66666666666666</ele><time>2026-04-03T15:30:58.371Z</time></trkpt><trkpt lat="43.4192774" lon="11.1870102"><ele>174.33333333333334</ele><time>2026-04-03T15:30:59.354Z</time></trkpt><trkpt lat="43.419232" lon="11.1871016"><ele>174.0</ele><time>2026-04-03T15:31:00.348Z</time></trkpt><trkpt lat="43.4191827" lon="11.1871932"><ele>174.0</ele><time>2026-04-03T15:31:01.347Z</time></trkpt><trkpt lat="43.4191365" lon="11.1872809"><ele>174.0</ele><time>2026-04-03T15:31:02.351Z</time></trkpt><trkpt lat="43.419091" lon="11.1873698"><ele>174.0</ele><time>2026-04-03T15:31:03.359Z</time></trkpt><trkpt lat="43.419047" lon="11.1874648"><ele>174.0</ele><time>2026-04-03T15:31:04.378Z</time></trkpt><trkpt lat="43.4190011" lon="11.1875635"><ele>174.0</ele><time>2026-04-03T15:31:05.336Z</time></trkpt><trkpt lat="43.4189575" lon="11.1876577"><ele>174.0</ele><time>2026-04-03T15:31:06.354Z</time></trkpt><trkpt lat="43.4189172" lon="11.1877486"><ele>173.71428571428572</ele><time>2026-04-03T15:31:07.345Z</time></trkpt><trkpt lat="43.4188795" lon="11.187839"><ele>173.42857142857144</ele><time>2026-04-03T15:31:08.384Z</time></trkpt><trkpt lat="43.4188406" lon="11.1879307"><ele>173.14285714285717</ele><time>2026-04-03T15:31:09.386Z</time></trkpt><trkpt lat="43.4187988" lon="11.1880213"><ele>172.85714285714286</ele><time>2026-04-03T15:31:10.385Z</time></trkpt><trkpt lat="43.4187543" lon="11.1880987"><ele>172.57142857142858</ele><time>2026-04-03T15:31:11.375Z</time></trkpt><trkpt lat="43.4187098" lon="11.1881732"><ele>172.2857142857143</ele><time>2026-04-03T15:31:12.372Z</time></trkpt><trkpt lat="43.4186661" lon="11.1882424"><ele>172.0</ele><time>2026-04-03T15:31:13.371Z</time></trkpt><trkpt lat="43.4186176" lon="11.1883083"><ele>171.57142857142858</ele><time>2026-04-03T15:31:14.37Z</time></trkpt><trkpt lat="43.4185626" lon="11.1883703"><ele>171.14285714285714</ele><time>2026-04-03T15:31:15.36Z</time></trkpt><trkpt lat="43.4185115" lon="11.1884337"><ele>170.71428571428572</ele><time>2026-04-03T15:31:16.354Z</time></trkpt><trkpt lat="43.4184635" lon="11.1884934"><ele>170.28571428571428</ele><time>2026-04-03T15:31:17.343Z</time></trkpt><trkpt lat="43.4184204" lon="11.1885607"><ele>169.85714285714286</ele><time>2026-04-03T15:31:18.347Z</time></trkpt><trkpt lat="43.4183945" lon="11.1886406"><ele>169.42857142857144</ele><time>2026-04-03T15:31:19.363Z</time></trkpt><trkpt lat="43.4183858" lon="11.1887311"><ele>169.0</ele><time>2026-04-03T15:31:20.414Z</time></trkpt><trkpt lat="43.4183816" lon="11.1888209"><ele>169.0</ele><time>2026-04-03T15:31:21.358Z</time></trkpt><trkpt lat="43.4183826" lon="11.1889091"><ele>169.0</ele><time>2026-04-03T15:31:22.343Z</time></trkpt><trkpt lat="43.4183441" lon="11.1890647"><ele>169.0</ele><time>2026-04-03T15:31:24.361Z</time></trkpt><trkpt lat="43.4182721" lon="11.1891681"><ele>169.0</ele><time>2026-04-03T15:31:26.378Z</time></trkpt><trkpt lat="43.4182056" lon="11.1892223"><ele>169.0</ele><time>2026-04-03T15:31:29.374Z</time></trkpt><trkpt lat="43.4181583" lon="11.189317"><ele>169.0</ele><time>2026-04-03T15:31:32.35Z</time></trkpt><trkpt lat="43.4181225" lon="11.1894013"><ele>169.2</ele><time>2026-04-03T15:31:34.369Z</time></trkpt><trkpt lat="43.418082" lon="11.1894982"><ele>169.39999999999998</ele><time>2026-04-03T15:31:36.346Z</time></trkpt><trkpt lat="43.4180335" lon="11.1896066"><ele>169.6</ele><time>2026-04-03T15:31:38.364Z</time></trkpt><trkpt lat="43.4179854" lon="11.1897258"><ele>169.8</ele><time>2026-04-03T15:31:40.34Z</time></trkpt><trkpt lat="43.4179598" lon="11.1898519"><ele>170.0</ele><time>2026-04-03T15:31:42.352Z</time></trkpt><trkpt lat="43.4179232" lon="11.1899743"><ele>170.66666666666666</ele><time>2026-04-03T15:31:44.333Z</time></trkpt><trkpt lat="43.4178778" lon="11.1900926"><ele>171.33333333333331</ele><time>2026-04-03T15:31:46.353Z</time></trkpt><trkpt lat="43.4178379" lon="11.1902091"><ele>172.0</ele><time>2026-04-03T15:31:48.347Z</time></trkpt><trkpt lat="43.4178002" lon="11.190315"><ele>172.66666666666666</ele><time>2026-04-03T15:31:50.387Z</time></trkpt><trkpt lat="43.4177667" lon="11.1904197"><ele>173.33333333333334</ele><time>2026-04-03T15:31:52.348Z</time></trkpt><trkpt lat="43.4177341" lon="11.1905135"><ele>174.0</ele><time>2026-04-03T15:31:54.382Z</time></trkpt><trkpt lat="43.4176969" lon="11.1906105"><ele>174.28571428571428</ele><time>2026-04-03T15:31:56.385Z</time></trkpt><trkpt lat="43.4176587" lon="11.1906941"><ele>174.57142857142858</ele><time>2026-04-03T15:31:58.35Z</time></trkpt><trkpt lat="43.4176306" lon="11.1907798"><ele>174.85714285714286</ele><time>2026-04-03T15:32:00.354Z</time></trkpt><trkpt lat="43.4175977" lon="11.1908592"><ele>175.14285714285714</ele><time>2026-04-03T15:32:02.351Z</time></trkpt><trkpt lat="43.4175625" lon="11.1909449"><ele>175.42857142857142</ele><time>2026-04-03T15:32:04.379Z</time></trkpt><trkpt lat="43.4175269" lon="11.1910279"><ele>175.71428571428572</ele><time>2026-04-03T15:32:06.377Z</time></trkpt><trkpt lat="43.4174878" lon="11.1911283"><ele>176.0</ele><time>2026-04-03T15:32:08.409Z</time></trkpt><trkpt lat="43.417447" lon="11.1912319"><ele>176.0</ele><time>2026-04-03T15:32:10.353Z</time></trkpt><trkpt lat="43.4174002" lon="11.1913542"><ele>176.0</ele><time>2026-04-03T15:32:12.346Z</time></trkpt><trkpt lat="43.4173471" lon="11.191497"><ele>176.0</ele><time>2026-04-03T15:32:14.348Z</time></trkpt><trkpt lat="43.4173153" lon="11.1915759"><ele>176.0</ele><time>2026-04-03T15:32:15.357Z</time></trkpt><trkpt lat="43.4172817" lon="11.1916516"><ele>176.0</ele><time>2026-04-03T15:32:16.347Z</time></trkpt><trkpt lat="43.41725" lon="11.1917349"><ele>176.0</ele><time>2026-04-03T15:32:17.354Z</time></trkpt><trkpt lat="43.4172157" lon="11.1918212"><ele>175.66666666666666</ele><time>2026-04-03T15:32:18.341Z</time></trkpt><trkpt lat="43.4171825" lon="11.1919105"><ele>175.33333333333331</ele><time>2026-04-03T15:32:19.341Z</time></trkpt><trkpt lat="43.4171473" lon="11.1920054"><ele>175.0</ele><time>2026-04-03T15:32:20.345Z</time></trkpt><trkpt lat="43.417114" lon="11.1921034"><ele>174.66666666666666</ele><time>2026-04-03T15:32:21.327Z</time></trkpt><trkpt lat="43.4170791" lon="11.1922002"><ele>174.33333333333334</ele><time>2026-04-03T15:32:22.375Z</time></trkpt><trkpt lat="43.4170481" lon="11.1923007"><ele>174.0</ele><time>2026-04-03T15:32:23.363Z</time></trkpt><trkpt lat="43.4170227" lon="11.1924054"><ele>173.5</ele><time>2026-04-03T15:32:24.349Z</time></trkpt><trkpt lat="43.4170084" lon="11.1925229"><ele>173.0</ele><time>2026-04-03T15:32:25.36Z</time></trkpt><trkpt lat="43.4169912" lon="11.1926395"><ele>172.5</ele><time>2026-04-03T15:32:26.349Z</time></trkpt><trkpt lat="43.4169817" lon="11.1927591"><ele>172.0</ele><time>2026-04-03T15:32:27.364Z</time></trkpt><trkpt lat="43.4169754" lon="11.1928722"><ele>171.5</ele><time>2026-04-03T15:32:28.355Z</time></trkpt><trkpt lat="43.4169665" lon="11.1929839"><ele>171.0</ele><time>2026-04-03T15:32:29.353Z</time></trkpt><trkpt lat="43.4169554" lon="11.1930877"><ele>170.57142857142856</ele><time>2026-04-03T15:32:30.356Z</time></trkpt><trkpt lat="43.4169419" lon="11.1931911"><ele>170.14285714285714</ele><time>2026-04-03T15:32:31.372Z</time></trkpt><trkpt lat="43.4169218" lon="11.1932865"><ele>169.71428571428572</ele><time>2026-04-03T15:32:32.352Z</time></trkpt><trkpt lat="43.4168931" lon="11.1933776"><ele>169.28571428571428</ele><time>2026-04-03T15:32:33.338Z</time></trkpt><trkpt lat="43.4168599" lon="11.1934606"><ele>168.85714285714286</ele><time>2026-04-03T15:32:34.382Z</time></trkpt><trkpt lat="43.4168142" lon="11.1935269"><ele>168.42857142857142</ele><time>2026-04-03T15:32:35.357Z</time></trkpt><trkpt lat="43.4167685" lon="11.193587"><ele>168.0</ele><time>2026-04-03T15:32:36.333Z</time></trkpt><trkpt lat="43.4166815" lon="11.1936974"><ele>168.0</ele><time>2026-04-03T15:32:38.336Z</time></trkpt><trkpt lat="43.4166049" lon="11.1938192"><ele>168.0</ele><time>2026-04-03T15:32:40.379Z</time></trkpt><trkpt lat="43.416551" lon="11.1939667"><ele>168.0</ele><time>2026-04-03T15:32:42.34Z</time></trkpt><trkpt lat="43.416513" lon="11.1941186"><ele>168.0</ele><time>2026-04-03T15:32:44.368Z</time></trkpt><trkpt lat="43.4164862" lon="11.1942698"><ele>167.8</ele><time>2026-04-03T15:32:46.346Z</time></trkpt><trkpt lat="43.4164709" lon="11.1944139"><ele>167.60000000000002</ele><time>2026-04-03T15:32:48.347Z</time></trkpt><trkpt lat="43.4164778" lon="11.1945535"><ele>167.39999999999998</ele><time>2026-04-03T15:32:50.337Z</time></trkpt><trkpt lat="43.4165077" lon="11.1946964"><ele>167.2</ele><time>2026-04-03T15:32:52.342Z</time></trkpt><trkpt lat="43.4165571" lon="11.1948167"><ele>167.0</ele><time>2026-04-03T15:32:54.36Z</time></trkpt><trkpt lat="43.4166039" lon="11.1949325"><ele>167.66666666666666</ele><time>2026-04-03T15:32:56.384Z</time></trkpt><trkpt lat="43.4166435" lon="11.1950522"><ele>168.33333333333331</ele><time>2026-04-03T15:32:58.353Z</time></trkpt><trkpt lat="43.4166887" lon="11.1951704"><ele>169.0</ele><time>2026-04-03T15:33:00.372Z</time></trkpt><trkpt lat="43.4167086" lon="11.195288"><ele>169.66666666666666</ele><time>2026-04-03T15:33:02.34Z</time></trkpt><trkpt lat="43.4167126" lon="11.1953928"><ele>170.33333333333334</ele><time>2026-04-03T15:33:04.366Z</time></trkpt><trkpt lat="43.4167099" lon="11.1955069"><ele>171.0</ele><time>2026-04-03T15:33:07.385Z</time></trkpt><trkpt lat="43.4166982" lon="11.1956166"><ele>171.5</ele><time>2026-04-03T15:33:10.35Z</time></trkpt><trkpt lat="43.4166836" lon="11.1957329"><ele>172.0</ele><time>2026-04-03T15:33:13.383Z</time></trkpt><trkpt lat="43.4166514" lon="11.1958501"><ele>172.5</ele><time>2026-04-03T15:33:16.354Z</time></trkpt><trkpt lat="43.4166242" lon="11.1959303"><ele>173.0</ele><time>2026-04-03T15:33:18.351Z</time></trkpt><trkpt lat="43.4165899" lon="11.1960521"><ele>173.5</ele><time>2026-04-03T15:33:21.334Z</time></trkpt><trkpt lat="43.4165668" lon="11.1961407"><ele>174.0</ele><time>2026-04-03T15:33:23.352Z</time></trkpt><trkpt lat="43.4165398" lon="11.1962235"><ele>174.0</ele><time>2026-04-03T15:33:25.357Z</time></trkpt><trkpt lat="43.4165046" lon="11.1963417"><ele>174.0</ele><time>2026-04-03T15:33:28.348Z</time></trkpt><trkpt lat="43.416477" lon="11.196437"><ele>174.0</ele><time>2026-04-03T15:33:30.332Z</time></trkpt><trkpt lat="43.4164526" lon="11.1965326"><ele>174.0</ele><time>2026-04-03T15:33:32.348Z</time></trkpt><trkpt lat="43.4164245" lon="11.1966241"><ele>174.0</ele><time>2026-04-03T15:33:34.355Z</time></trkpt><trkpt lat="43.4164031" lon="11.196728"><ele>174.0</ele><time>2026-04-03T15:33:36.351Z</time></trkpt><trkpt lat="43.4163761" lon="11.1968248"><ele>174.5</ele><time>2026-04-03T15:33:38.336Z</time></trkpt><trkpt lat="43.4163612" lon="11.1969228"><ele>175.0</ele><time>2026-04-03T15:33:40.361Z</time></trkpt><trkpt lat="43.4163597" lon="11.1970117"><ele>175.5</ele><time>2026-04-03T15:33:42.353Z</time></trkpt><trkpt lat="43.416362" lon="11.197134"><ele>176.0</ele><time>2026-04-03T15:33:45.353Z</time></trkpt><trkpt lat="43.4163641" lon="11.1972238"><ele>176.5</ele><time>2026-04-03T15:33:47.355Z</time></trkpt><trkpt lat="43.4164161" lon="11.1973361"><ele>177.0</ele><time>2026-04-03T15:33:50.368Z</time></trkpt><trkpt lat="43.4164743" lon="11.1974096"><ele>177.33333333333334</ele><time>2026-04-03T15:33:52.351Z</time></trkpt><trkpt lat="43.4165512" lon="11.1974657"><ele>177.66666666666666</ele><time>2026-04-03T15:33:54.357Z</time></trkpt><trkpt lat="43.416622" lon="11.1974904"><ele>178.0</ele><time>2026-04-03T15:33:56.351Z</time></trkpt><trkpt lat="43.4166978" lon="11.1975166"><ele>178.33333333333331</ele><time>2026-04-03T15:33:58.353Z</time></trkpt><trkpt lat="43.4167673" lon="11.1975324"><ele>178.66666666666666</ele><time>2026-04-03T15:34:00.352Z</time></trkpt><trkpt lat="43.4168375" lon="11.1975516"><ele>179.0</ele><time>2026-04-03T15:34:02.36Z</time></trkpt><trkpt lat="43.4169065" lon="11.1975679"><ele>179.00000000000003</ele><time>2026-04-03T15:34:04.372Z</time></trkpt><trkpt lat="43.4169773" lon="11.1975837"><ele>179.0</ele><time>2026-04-03T15:34:06.344Z</time></trkpt><trkpt lat="43.4170398" lon="11.1976036"><ele>179.0</ele><time>2026-04-03T15:34:08.355Z</time></trkpt><trkpt lat="43.4171035" lon="11.1976365"><ele>179.0</ele><time>2026-04-03T15:34:10.348Z</time></trkpt><trkpt lat="43.4171561" lon="11.1976908"><ele>179.0</ele><time>2026-04-03T15:34:12.36Z</time></trkpt><trkpt lat="43.4171916" lon="11.1977652"><ele>179.00000000000003</ele><time>2026-04-03T15:34:14.346Z</time></trkpt><trkpt lat="43.4172156" lon="11.197856"><ele>179.0</ele><time>2026-04-03T15:34:16.357Z</time></trkpt><trkpt lat="43.4172357" lon="11.1979494"><ele>178.5</ele><time>2026-04-03T15:34:18.359Z</time></trkpt><trkpt lat="43.4172615" lon="11.1980449"><ele>178.0</ele><time>2026-04-03T15:34:20.376Z</time></trkpt><trkpt lat="43.4172897" lon="11.198142"><ele>177.5</ele><time>2026-04-03T15:34:22.365Z</time></trkpt><trkpt lat="43.4173089" lon="11.1982477"><ele>177.0</ele><time>2026-04-03T15:34:24.373Z</time></trkpt><trkpt lat="43.4173272" lon="11.1983506"><ele>176.5</ele><time>2026-04-03T15:34:26.346Z</time></trkpt><trkpt lat="43.4173351" lon="11.1984594"><ele>176.0</ele><time>2026-04-03T15:34:28.337Z</time></trkpt><trkpt lat="43.4173403" lon="11.198561"><ele>176.0</ele><time>2026-04-03T15:34:30.349Z</time></trkpt><trkpt lat="43.4173354" lon="11.1986567"><ele>176.0</ele><time>2026-04-03T15:34:32.376Z</time></trkpt><trkpt lat="43.4173255" lon="11.1987589"><ele>176.0</ele><time>2026-04-03T15:34:34.368Z</time></trkpt><trkpt lat="43.4173232" lon="11.1988651"><ele>176.0</ele><time>2026-04-03T15:34:36.36Z</time></trkpt><trkpt lat="43.4173202" lon="11.1989703"><ele>176.0</ele><time>2026-04-03T15:34:38.345Z</time></trkpt><trkpt lat="43.4173073" lon="11.1990804"><ele>176.0</ele><time>2026-04-03T15:34:40.354Z</time></trkpt><trkpt lat="43.4172923" lon="11.1991778"><ele>175.66666666666666</ele><time>2026-04-03T15:34:42.362Z</time></trkpt><trkpt lat="43.4172808" lon="11.1992864"><ele>175.33333333333331</ele><time>2026-04-03T15:34:44.353Z</time></trkpt><trkpt lat="43.4172718" lon="11.1993982"><ele>175.0</ele><time>2026-04-03T15:34:46.354Z</time></trkpt><trkpt lat="43.417269" lon="11.199501"><ele>174.66666666666666</ele><time>2026-04-03T15:34:48.342Z</time></trkpt><trkpt lat="43.4172694" lon="11.199602"><ele>174.33333333333334</ele><time>2026-04-03T15:34:50.34Z</time></trkpt><trkpt lat="43.4172717" lon="11.1997196"><ele>174.0</ele><time>2026-04-03T15:34:52.353Z</time></trkpt><trkpt lat="43.4172764" lon="11.1998295"><ele>174.5</ele><time>2026-04-03T15:34:54.339Z</time></trkpt><trkpt lat="43.4172784" lon="11.1999336"><ele>175.0</ele><time>2026-04-03T15:34:56.372Z</time></trkpt><trkpt lat="43.4172819" lon="11.2000356"><ele>175.5</ele><time>2026-04-03T15:34:58.374Z</time></trkpt><trkpt lat="43.4172823" lon="11.2001295"><ele>176.0</ele><time>2026-04-03T15:35:00.348Z</time></trkpt><trkpt lat="43.4172727" lon="11.2002215"><ele>176.5</ele><time>2026-04-03T15:35:02.337Z</time></trkpt><trkpt lat="43.4172669" lon="11.2003158"><ele>177.0</ele><time>2026-04-03T15:35:04.352Z</time></trkpt><trkpt lat="43.4172573" lon="11.2004487"><ele>177.0</ele><time>2026-04-03T15:35:07.351Z</time></trkpt><trkpt lat="43.4172489" lon="11.2005377"><ele>177.0</ele><time>2026-04-03T15:35:09.362Z</time></trkpt><trkpt lat="43.4172444" lon="11.2006259"><ele>177.0</ele><time>2026-04-03T15:35:11.342Z</time></trkpt><trkpt lat="43.4172336" lon="11.2007437"><ele>177.0</ele><time>2026-04-03T15:35:14.367Z</time></trkpt><trkpt lat="43.4172244" lon="11.2008389"><ele>177.0</ele><time>2026-04-03T15:35:16.347Z</time></trkpt><trkpt lat="43.4172134" lon="11.2009487"><ele>177.0</ele><time>2026-04-03T15:35:18.354Z</time></trkpt><trkpt lat="43.4172134" lon="11.2010698"><ele>177.8</ele><time>2026-04-03T15:35:20.345Z</time></trkpt><trkpt lat="43.4171881" lon="11.2011966"><ele>178.6</ele><time>2026-04-03T15:35:22.349Z</time></trkpt><trkpt lat="43.4171447" lon="11.2013222"><ele>179.4</ele><time>2026-04-03T15:35:24.367Z</time></trkpt><trkpt lat="43.4170941" lon="11.2014403"><ele>180.20000000000002</ele><time>2026-04-03T15:35:26.35Z</time></trkpt><trkpt lat="43.417055" lon="11.2015518"><ele>181.0</ele><time>2026-04-03T15:35:28.346Z</time></trkpt><trkpt lat="43.4170297" lon="11.2016593"><ele>181.16666666666669</ele><time>2026-04-03T15:35:30.347Z</time></trkpt><trkpt lat="43.4170141" lon="11.2017774"><ele>181.33333333333334</ele><time>2026-04-03T15:35:32.359Z</time></trkpt><trkpt lat="43.4169839" lon="11.2018926"><ele>181.5</ele><time>2026-04-03T15:35:34.349Z</time></trkpt><trkpt lat="43.4169477" lon="11.2020095"><ele>181.66666666666666</ele><time>2026-04-03T15:35:36.351Z</time></trkpt><trkpt lat="43.4169052" lon="11.2020883"><ele>181.83333333333331</ele><time>2026-04-03T15:35:38.35Z</time></trkpt><trkpt lat="43.416863" lon="11.2021598"><ele>182.0</ele><time>2026-04-03T15:35:40.344Z</time></trkpt><trkpt lat="43.4168302" lon="11.2022437"><ele>182.0</ele><time>2026-04-03T15:35:42.342Z</time></trkpt><trkpt lat="43.4167919" lon="11.2023295"><ele>182.0</ele><time>2026-04-03T15:35:44.345Z</time></trkpt><trkpt lat="43.4167417" lon="11.2024338"><ele>182.0</ele><time>2026-04-03T15:35:46.351Z</time></trkpt><trkpt lat="43.4166814" lon="11.2025386"><ele>182.0</ele><time>2026-04-03T15:35:48.351Z</time></trkpt><trkpt lat="43.4166403" lon="11.2026071"><ele>182.0</ele><time>2026-04-03T15:35:49.353Z</time></trkpt><trkpt lat="43.4165629" lon="11.2027353"><ele>182.0</ele><time>2026-04-03T15:35:51.358Z</time></trkpt><trkpt lat="43.4165067" lon="11.2028764"><ele>182.2</ele><time>2026-04-03T15:35:53.35Z</time></trkpt><trkpt lat="43.4164555" lon="11.2030277"><ele>182.39999999999998</ele><time>2026-04-03T15:35:55.339Z</time></trkpt><trkpt lat="43.4164044" lon="11.203171"><ele>182.60000000000002</ele><time>2026-04-03T15:35:57.352Z</time></trkpt><trkpt lat="43.41636" lon="11.2033127"><ele>182.8</ele><time>2026-04-03T15:35:59.348Z</time></trkpt><trkpt lat="43.4163251" lon="11.2034412"><ele>183.0</ele><time>2026-04-03T15:36:01.36Z</time></trkpt><trkpt lat="43.4162998" lon="11.2035661"><ele>183.0</ele><time>2026-04-03T15:36:03.349Z</time></trkpt><trkpt lat="43.4162794" lon="11.2036846"><ele>183.0</ele><time>2026-04-03T15:36:05.356Z</time></trkpt><trkpt lat="43.416262" lon="11.2038056"><ele>183.0</ele><time>2026-04-03T15:36:07.365Z</time></trkpt><trkpt lat="43.4162517" lon="11.2039145"><ele>183.0</ele><time>2026-04-03T15:36:09.342Z</time></trkpt><trkpt lat="43.416239" lon="11.2040137"><ele>183.0</ele><time>2026-04-03T15:36:11.374Z</time></trkpt><trkpt lat="43.4162257" lon="11.2041039"><ele>183.0</ele><time>2026-04-03T15:36:13.357Z</time></trkpt><trkpt lat="43.4162203" lon="11.2041961"><ele>183.16666666666666</ele><time>2026-04-03T15:36:15.354Z</time></trkpt><trkpt lat="43.416219" lon="11.2043035"><ele>183.33333333333334</ele><time>2026-04-03T15:36:17.358Z</time></trkpt><trkpt lat="43.4162038" lon="11.2044284"><ele>183.5</ele><time>2026-04-03T15:36:19.344Z</time></trkpt><trkpt lat="43.4161769" lon="11.2045523"><ele>183.66666666666669</ele><time>2026-04-03T15:36:21.353Z</time></trkpt><trkpt lat="43.4161397" lon="11.2046691"><ele>183.83333333333334</ele><time>2026-04-03T15:36:23.344Z</time></trkpt><trkpt lat="43.416096" lon="11.2047703"><ele>184.0</ele><time>2026-04-03T15:36:25.343Z</time></trkpt><trkpt lat="43.4160548" lon="11.2048626"><ele>184.0</ele><time>2026-04-03T15:36:27.349Z</time></trkpt><trkpt lat="43.4160294" lon="11.204976"><ele>184.0</ele><time>2026-04-03T15:36:29.35Z</time></trkpt><trkpt lat="43.4160155" lon="11.2051129"><ele>184.0</ele><time>2026-04-03T15:36:31.355Z</time></trkpt><trkpt lat="43.4160099" lon="11.2052366"><ele>184.0</ele><time>2026-04-03T15:36:33.35Z</time></trkpt><trkpt lat="43.416011" lon="11.2053517"><ele>184.0</ele><time>2026-04-03T15:36:35.345Z</time></trkpt><trkpt lat="43.4160189" lon="11.2054915"><ele>184.0</ele><time>2026-04-03T15:36:37.345Z</time></trkpt><trkpt lat="43.4160271" lon="11.2056181"><ele>184.0</ele><time>2026-04-03T15:36:39.341Z</time></trkpt><trkpt lat="43.4160336" lon="11.2057426"><ele>184.0</ele><time>2026-04-03T15:36:41.358Z</time></trkpt><trkpt lat="43.4160388" lon="11.2058448"><ele>184.0</ele><time>2026-04-03T15:36:43.342Z</time></trkpt><trkpt lat="43.4160319" lon="11.2059607"><ele>184.0</ele><time>2026-04-03T15:36:46.344Z</time></trkpt><trkpt lat="43.416017" lon="11.2060488"><ele>184.0</ele><time>2026-04-03T15:36:48.347Z</time></trkpt><trkpt lat="43.4160028" lon="11.2061479"><ele>184.0</ele><time>2026-04-03T15:36:50.354Z</time></trkpt><trkpt lat="43.4159677" lon="11.2062559"><ele>184.0</ele><time>2026-04-03T15:36:52.352Z</time></trkpt><trkpt lat="43.4159449" lon="11.2063538"><ele>184.0</ele><time>2026-04-03T15:36:54.367Z</time></trkpt><trkpt lat="43.4159194" lon="11.2064496"><ele>184.0</ele><time>2026-04-03T15:36:56.379Z</time></trkpt><trkpt lat="43.4159012" lon="11.2065425"><ele>184.0</ele><time>2026-04-03T15:36:58.351Z</time></trkpt><trkpt lat="43.4159044" lon="11.2066562"><ele>184.0</ele><time>2026-04-03T15:37:00.351Z</time></trkpt><trkpt lat="43.4159335" lon="11.2067455"><ele>184.16666666666669</ele><time>2026-04-03T15:37:02.341Z</time></trkpt><trkpt lat="43.4160075" lon="11.2068035"><ele>184.33333333333334</ele><time>2026-04-03T15:37:05.347Z</time></trkpt><trkpt lat="43.4160706" lon="11.2068287"><ele>184.5</ele><time>2026-04-03T15:37:07.339Z</time></trkpt><trkpt lat="43.4161375" lon="11.2068806"><ele>184.66666666666666</ele><time>2026-04-03T15:37:09.348Z</time></trkpt><trkpt lat="43.4162198" lon="11.2069477"><ele>184.83333333333331</ele><time>2026-04-03T15:37:11.358Z</time></trkpt><trkpt lat="43.4162914" lon="11.2070064"><ele>185.0</ele><time>2026-04-03T15:37:13.352Z</time></trkpt><trkpt lat="43.416366" lon="11.2070746"><ele>184.0</ele><time>2026-04-03T15:37:16.356Z</time></trkpt><trkpt lat="43.4164363" lon="11.2071461"><ele>183.0</ele><time>2026-04-03T15:37:19.354Z</time></trkpt><trkpt lat="43.4165171" lon="11.2072003"><ele>182.0</ele><time>2026-04-03T15:37:22.339Z</time></trkpt><trkpt lat="43.416599" lon="11.2072116"><ele>181.0</ele><time>2026-04-03T15:37:24.361Z</time></trkpt><trkpt lat="43.4166748" lon="11.2071791"><ele>180.0</ele><time>2026-04-03T15:37:26.345Z</time></trkpt><trkpt lat="43.4167467" lon="11.2071173"><ele>179.0</ele><time>2026-04-03T15:37:28.333Z</time></trkpt><trkpt lat="43.4168077" lon="11.2070454"><ele>179.0</ele><time>2026-04-03T15:37:30.355Z</time></trkpt><trkpt lat="43.4168523" lon="11.2069728"><ele>179.0</ele><time>2026-04-03T15:37:32.352Z</time></trkpt><trkpt lat="43.4169002" lon="11.206907"><ele>179.0</ele><time>2026-04-03T15:37:34.36Z</time></trkpt><trkpt lat="43.4169606" lon="11.2068596"><ele>179.0</ele><time>2026-04-03T15:37:36.353Z</time></trkpt><trkpt lat="43.4170393" lon="11.2069408"><ele>179.0</ele><time>2026-04-03T15:37:39.365Z</time></trkpt><trkpt lat="43.4170964" lon="11.2070533"><ele>179.0</ele><time>2026-04-03T15:37:41.352Z</time></trkpt><trkpt lat="43.4170795" lon="11.2071699"><ele>179.0</ele><time>2026-04-03T15:37:43.353Z</time></trkpt><trkpt lat="43.4170363" lon="11.2072523"><ele>179.0</ele><time>2026-04-03T15:37:45.35Z</time></trkpt><trkpt lat="43.416971" lon="11.207342"><ele>179.0</ele><time>2026-04-03T15:37:48.343Z</time></trkpt><trkpt lat="43.4169181" lon="11.2074312"><ele>179.0</ele><time>2026-04-03T15:37:51.354Z</time></trkpt><trkpt lat="43.4168824" lon="11.2075076"><ele>179.0</ele><time>2026-04-03T15:37:54.357Z</time></trkpt><trkpt lat="43.416859" lon="11.207607"><ele>179.0</ele><time>2026-04-03T15:37:58.349Z</time></trkpt><trkpt lat="43.416859" lon="11.207711"><ele>179.2857142857143</ele><time>2026-04-03T15:38:01.355Z</time></trkpt><trkpt lat="43.4168481" lon="11.207804"><ele>179.57142857142858</ele><time>2026-04-03T15:38:03.34Z</time></trkpt><trkpt lat="43.4168305" lon="11.2079035"><ele>179.85714285714286</ele><time>2026-04-03T15:38:05.362Z</time></trkpt><trkpt lat="43.4168058" lon="11.2079969"><ele>180.14285714285717</ele><time>2026-04-03T15:38:07.348Z</time></trkpt><trkpt lat="43.4167738" lon="11.2080834"><ele>180.42857142857142</ele><time>2026-04-03T15:38:09.356Z</time></trkpt><trkpt lat="43.4167182" lon="11.208179"><ele>180.71428571428572</ele><time>2026-04-03T15:38:11.354Z</time></trkpt><trkpt lat="43.4166665" lon="11.2082456"><ele>181.0</ele><time>2026-04-03T15:38:13.354Z</time></trkpt><trkpt lat="43.4165946" lon="11.2083048"><ele>181.0</ele><time>2026-04-03T15:38:15.345Z</time></trkpt><trkpt lat="43.4165025" lon="11.2083651"><ele>181.0</ele><time>2026-04-03T15:38:17.338Z</time></trkpt><trkpt lat="43.4162965" lon="11.2084799"><ele>181.0</ele><time>2026-04-03T15:38:21.346Z</time></trkpt><trkpt lat="43.4161869" lon="11.2085308"><ele>181.0</ele><time>2026-04-03T15:38:23.348Z</time></trkpt><trkpt lat="43.4160929" lon="11.2085865"><ele>181.4</ele><time>2026-04-03T15:38:25.355Z</time></trkpt><trkpt lat="43.4160006" lon="11.2086353"><ele>181.8</ele><time>2026-04-03T15:38:27.354Z</time></trkpt><trkpt lat="43.4159123" lon="11.2086915"><ele>182.20000000000002</ele><time>2026-04-03T15:38:29.356Z</time></trkpt><trkpt lat="43.4158196" lon="11.2087309"><ele>182.60000000000002</ele><time>2026-04-03T15:38:31.349Z</time></trkpt><trkpt lat="43.4157233" lon="11.208774"><ele>183.0</ele><time>2026-04-03T15:38:33.338Z</time></trkpt><trkpt lat="43.4156374" lon="11.2088235"><ele>183.0</ele><time>2026-04-03T15:38:35.353Z</time></trkpt><trkpt lat="43.4155548" lon="11.2088682"><ele>183.0</ele><time>2026-04-03T15:38:37.334Z</time></trkpt><trkpt lat="43.4154685" lon="11.2089074"><ele>183.0</ele><time>2026-04-03T15:38:39.363Z</time></trkpt><trkpt lat="43.4153873" lon="11.208957"><ele>183.0</ele><time>2026-04-03T15:38:41.349Z</time></trkpt><trkpt lat="43.4153057" lon="11.2089918"><ele>183.0</ele><time>2026-04-03T15:38:43.356Z</time></trkpt><trkpt lat="43.4152281" lon="11.20903"><ele>183.0</ele><time>2026-04-03T15:38:45.374Z</time></trkpt><trkpt lat="43.4151423" lon="11.2090834"><ele>183.14285714285714</ele><time>2026-04-03T15:38:48.356Z</time></trkpt><trkpt lat="43.4150857" lon="11.2091269"><ele>183.28571428571428</ele><time>2026-04-03T15:38:50.357Z</time></trkpt><trkpt lat="43.4150251" lon="11.2091594"><ele>183.42857142857144</ele><time>2026-04-03T15:38:52.363Z</time></trkpt><trkpt lat="43.4149628" lon="11.2091946"><ele>183.57142857142856</ele><time>2026-04-03T15:38:54.377Z</time></trkpt><trkpt lat="43.4148888" lon="11.2092448"><ele>183.7142857142857</ele><time>2026-04-03T15:38:56.349Z</time></trkpt><trkpt lat="43.4148208" lon="11.2092889"><ele>183.85714285714286</ele><time>2026-04-03T15:38:58.359Z</time></trkpt><trkpt lat="43.414758" lon="11.2093319"><ele>184.0</ele><time>2026-04-03T15:39:00.339Z</time></trkpt><trkpt lat="43.4146949" lon="11.2093712"><ele>184.16666666666669</ele><time>2026-04-03T15:39:02.343Z</time></trkpt><trkpt lat="43.4146215" lon="11.2094174"><ele>184.33333333333334</ele><time>2026-04-03T15:39:04.341Z</time></trkpt><trkpt lat="43.4145466" lon="11.209477"><ele>184.5</ele><time>2026-04-03T15:39:06.347Z</time></trkpt><trkpt lat="43.4144726" lon="11.2095373"><ele>184.66666666666666</ele><time>2026-04-03T15:39:08.357Z</time></trkpt><trkpt lat="43.4143954" lon="11.2095847"><ele>184.83333333333331</ele><time>2026-04-03T15:39:10.348Z</time></trkpt><trkpt lat="43.4143251" lon="11.209648"><ele>185.0</ele><time>2026-04-03T15:39:12.358Z</time></trkpt><trkpt lat="43.4142537" lon="11.209718"><ele>185.0</ele><time>2026-04-03T15:39:14.339Z</time></trkpt><trkpt lat="43.4141777" lon="11.209777"><ele>185.0</ele><time>2026-04-03T15:39:16.336Z</time></trkpt><trkpt lat="43.4141022" lon="11.2098229"><ele>185.0</ele><time>2026-04-03T15:39:18.349Z</time></trkpt><trkpt lat="43.4140333" lon="11.2098753"><ele>185.0</ele><time>2026-04-03T15:39:20.344Z</time></trkpt><trkpt lat="43.4139594" lon="11.2099385"><ele>185.0</ele><time>2026-04-03T15:39:22.34Z</time></trkpt><trkpt lat="43.4138775" lon="11.2099972"><ele>185.0</ele><time>2026-04-03T15:39:24.359Z</time></trkpt><trkpt lat="43.4137997" lon="11.2100536"><ele>185.16666666666666</ele><time>2026-04-03T15:39:26.367Z</time></trkpt><trkpt lat="43.4137218" lon="11.210103"><ele>185.33333333333331</ele><time>2026-04-03T15:39:28.354Z</time></trkpt><trkpt lat="43.4136468" lon="11.210146"><ele>185.5</ele><time>2026-04-03T15:39:30.35Z</time></trkpt><trkpt lat="43.4135693" lon="11.2101986"><ele>185.66666666666666</ele><time>2026-04-03T15:39:32.351Z</time></trkpt><trkpt lat="43.413488" lon="11.2102587"><ele>185.83333333333334</ele><time>2026-04-03T15:39:34.355Z</time></trkpt><trkpt lat="43.4134097" lon="11.210311"><ele>186.0</ele><time>2026-04-03T15:39:36.352Z</time></trkpt><trkpt lat="43.4133326" lon="11.2103753"><ele>186.0</ele><time>2026-04-03T15:39:38.346Z</time></trkpt><trkpt lat="43.4132572" lon="11.2104385"><ele>186.0</ele><time>2026-04-03T15:39:40.348Z</time></trkpt><trkpt lat="43.413187" lon="11.2104956"><ele>186.0</ele><time>2026-04-03T15:39:42.35Z</time></trkpt><trkpt lat="43.4131178" lon="11.2105397"><ele>186.0</ele><time>2026-04-03T15:39:44.347Z</time></trkpt><trkpt lat="43.41306" lon="11.2106078"><ele>186.0</ele><time>2026-04-03T15:39:46.36Z</time></trkpt><trkpt lat="43.412997" lon="11.2106811"><ele>186.0</ele><time>2026-04-03T15:39:48.345Z</time></trkpt><trkpt lat="43.4129135" lon="11.2107384"><ele>186.4</ele><time>2026-04-03T15:39:50.338Z</time></trkpt><trkpt lat="43.4128284" lon="11.210793"><ele>186.8</ele><time>2026-04-03T15:39:52.357Z</time></trkpt><trkpt lat="43.4127491" lon="11.2108512"><ele>187.20000000000002</ele><time>2026-04-03T15:39:54.341Z</time></trkpt><trkpt lat="43.4126657" lon="11.2109136"><ele>187.60000000000002</ele><time>2026-04-03T15:39:56.347Z</time></trkpt><trkpt lat="43.412578" lon="11.210966"><ele>188.0</ele><time>2026-04-03T15:39:58.355Z</time></trkpt><trkpt lat="43.4124917" lon="11.2110148"><ele>188.0</ele><time>2026-04-03T15:40:00.36Z</time></trkpt><trkpt lat="43.4124079" lon="11.2110739"><ele>188.0</ele><time>2026-04-03T15:40:02.343Z</time></trkpt><trkpt lat="43.4123184" lon="11.2111314"><ele>188.0</ele><time>2026-04-03T15:40:04.358Z</time></trkpt><trkpt lat="43.4122285" lon="11.2111888"><ele>188.0</ele><time>2026-04-03T15:40:06.349Z</time></trkpt><trkpt lat="43.4121426" lon="11.2112444"><ele>188.0</ele><time>2026-04-03T15:40:08.345Z</time></trkpt><trkpt lat="43.4120621" lon="11.211288"><ele>188.16666666666666</ele><time>2026-04-03T15:40:10.359Z</time></trkpt><trkpt lat="43.4119791" lon="11.2113336"><ele>188.33333333333331</ele><time>2026-04-03T15:40:12.344Z</time></trkpt><trkpt lat="43.4118954" lon="11.2113545"><ele>188.5</ele><time>2026-04-03T15:40:14.347Z</time></trkpt><trkpt lat="43.4118369" lon="11.2113131"><ele>188.66666666666666</ele><time>2026-04-03T15:40:16.343Z</time></trkpt><trkpt lat="43.4118093" lon="11.2111865"><ele>188.83333333333334</ele><time>2026-04-03T15:40:19.349Z</time></trkpt><trkpt lat="43.411796" lon="11.2110912"><ele>189.0</ele><time>2026-04-03T15:40:21.352Z</time></trkpt><trkpt lat="43.4117567" lon="11.2110005"><ele>189.0</ele><time>2026-04-03T15:40:23.352Z</time></trkpt><trkpt lat="43.411715" lon="11.2108731"><ele>189.0</ele><time>2026-04-03T15:40:25.363Z</time></trkpt><trkpt lat="43.4116528" lon="11.2107423"><ele>189.0</ele><time>2026-04-03T15:40:27.355Z</time></trkpt><trkpt lat="43.4115935" lon="11.2106127"><ele>189.0</ele><time>2026-04-03T15:40:29.347Z</time></trkpt><trkpt lat="43.4115337" lon="11.2104848"><ele>189.0</ele><time>2026-04-03T15:40:31.352Z</time></trkpt><trkpt lat="43.411471" lon="11.2103622"><ele>189.0</ele><time>2026-04-03T15:40:33.355Z</time></trkpt><trkpt lat="43.411403" lon="11.2102426"><ele>189.0</ele><time>2026-04-03T15:40:35.347Z</time></trkpt><trkpt lat="43.4113176" lon="11.210152"><ele>189.0</ele><time>2026-04-03T15:40:37.351Z</time></trkpt><trkpt lat="43.4112172" lon="11.2100982"><ele>189.0</ele><time>2026-04-03T15:40:39.342Z</time></trkpt><trkpt lat="43.411112" lon="11.2100883"><ele>189.0</ele><time>2026-04-03T15:40:41.341Z</time></trkpt><trkpt lat="43.4110075" lon="11.2101079"><ele>189.25</ele><time>2026-04-03T15:40:43.356Z</time></trkpt><trkpt lat="43.4109024" lon="11.2101441"><ele>189.5</ele><time>2026-04-03T15:40:45.356Z</time></trkpt><trkpt lat="43.4107907" lon="11.2101827"><ele>189.75</ele><time>2026-04-03T15:40:47.349Z</time></trkpt><trkpt lat="43.4106775" lon="11.2102206"><ele>190.0</ele><time>2026-04-03T15:40:49.356Z</time></trkpt><trkpt lat="43.4105554" lon="11.2102624"><ele>190.0</ele><time>2026-04-03T15:40:51.345Z</time></trkpt><trkpt lat="43.4104929" lon="11.2102761"><ele>190.0</ele><time>2026-04-03T15:40:52.348Z</time></trkpt><trkpt lat="43.4103792" lon="11.2103199"><ele>190.0</ele><time>2026-04-03T15:40:54.345Z</time></trkpt><trkpt lat="43.4102654" lon="11.2103557"><ele>190.0</ele><time>2026-04-03T15:40:56.343Z</time></trkpt><trkpt lat="43.4101509" lon="11.2103905"><ele>190.0</ele><time>2026-04-03T15:40:58.337Z</time></trkpt><trkpt lat="43.4100408" lon="11.2104319"><ele>190.2</ele><time>2026-04-03T15:41:00.357Z</time></trkpt><trkpt lat="43.4099197" lon="11.2104797"><ele>190.4</ele><time>2026-04-03T15:41:02.353Z</time></trkpt><trkpt lat="43.4098538" lon="11.2105007"><ele>190.60000000000002</ele><time>2026-04-03T15:41:03.359Z</time></trkpt><trkpt lat="43.4097338" lon="11.2105467"><ele>190.8</ele><time>2026-04-03T15:41:05.357Z</time></trkpt><trkpt lat="43.409619" lon="11.2106044"><ele>191.0</ele><time>2026-04-03T15:41:07.355Z</time></trkpt><trkpt lat="43.4095031" lon="11.2106544"><ele>191.0</ele><time>2026-04-03T15:41:09.339Z</time></trkpt><trkpt lat="43.4093832" lon="11.2107014"><ele>191.0</ele><time>2026-04-03T15:41:11.367Z</time></trkpt><trkpt lat="43.4093217" lon="11.2107227"><ele>191.0</ele><time>2026-04-03T15:41:12.339Z</time></trkpt><trkpt lat="43.4092026" lon="11.2107637"><ele>191.0</ele><time>2026-04-03T15:41:14.344Z</time></trkpt><trkpt lat="43.4091411" lon="11.2107845"><ele>191.0</ele><time>2026-04-03T15:41:15.356Z</time></trkpt><trkpt lat="43.4090218" lon="11.2108266"><ele>191.0</ele><time>2026-04-03T15:41:17.346Z</time></trkpt><trkpt lat="43.4089624" lon="11.2108567"><ele>191.0</ele><time>2026-04-03T15:41:18.356Z</time></trkpt><trkpt lat="43.4088616" lon="11.2109536"><ele>191.0</ele><time>2026-04-03T15:41:20.35Z</time></trkpt><trkpt lat="43.4087803" lon="11.2110732"><ele>191.0</ele><time>2026-04-03T15:41:22.349Z</time></trkpt><trkpt lat="43.4087204" lon="11.211215"><ele>191.0</ele><time>2026-04-03T15:41:24.35Z</time></trkpt><trkpt lat="43.4086648" lon="11.2113616"><ele>190.8</ele><time>2026-04-03T15:41:26.346Z</time></trkpt><trkpt lat="43.4085686" lon="11.2114449"><ele>190.60000000000002</ele><time>2026-04-03T15:41:28.369Z</time></trkpt><trkpt lat="43.4084489" lon="11.2114288"><ele>190.4</ele><time>2026-04-03T15:41:30.353Z</time></trkpt><trkpt lat="43.4083847" lon="11.2114358"><ele>190.2</ele><time>2026-04-03T15:41:31.352Z</time></trkpt><trkpt lat="43.4082739" lon="11.2114847"><ele>190.0</ele><time>2026-04-03T15:41:33.341Z</time></trkpt><trkpt lat="43.4081598" lon="11.2115243"><ele>190.0</ele><time>2026-04-03T15:41:35.351Z</time></trkpt><trkpt lat="43.4080956" lon="11.2115428"><ele>190.0</ele><time>2026-04-03T15:41:36.351Z</time></trkpt><trkpt lat="43.4079766" lon="11.2115818"><ele>190.0</ele><time>2026-04-03T15:41:38.359Z</time></trkpt><trkpt lat="43.4078616" lon="11.2116232"><ele>190.0</ele><time>2026-04-03T15:41:40.355Z</time></trkpt><trkpt lat="43.4077531" lon="11.2116459"><ele>190.0</ele><time>2026-04-03T15:41:42.372Z</time></trkpt><trkpt lat="43.407644" lon="11.2116631"><ele>189.8</ele><time>2026-04-03T15:41:44.351Z</time></trkpt><trkpt lat="43.4075451" lon="11.2116183"><ele>189.6</ele><time>2026-04-03T15:41:46.343Z</time></trkpt><trkpt lat="43.4074586" lon="11.2115335"><ele>189.39999999999998</ele><time>2026-04-03T15:41:48.361Z</time></trkpt><trkpt lat="43.4073748" lon="11.2114475"><ele>189.2</ele><time>2026-04-03T15:41:50.361Z</time></trkpt><trkpt lat="43.4072838" lon="11.211364"><ele>189.0</ele><time>2026-04-03T15:41:52.353Z</time></trkpt><trkpt lat="43.4071975" lon="11.2112805"><ele>189.39999999999998</ele><time>2026-04-03T15:41:54.362Z</time></trkpt><trkpt lat="43.4071106" lon="11.2111998"><ele>189.8</ele><time>2026-04-03T15:41:56.353Z</time></trkpt><trkpt lat="43.4070201" lon="11.211131"><ele>190.2</ele><time>2026-04-03T15:41:58.347Z</time></trkpt><trkpt lat="43.4069348" lon="11.2110642"><ele>190.60000000000002</ele><time>2026-04-03T15:42:00.346Z</time></trkpt><trkpt lat="43.4068381" lon="11.2110243"><ele>191.0</ele><time>2026-04-03T15:42:02.349Z</time></trkpt><trkpt lat="43.406735" lon="11.2110281"><ele>191.0</ele><time>2026-04-03T15:42:04.358Z</time></trkpt><trkpt lat="43.4066343" lon="11.2110535"><ele>191.0</ele><time>2026-04-03T15:42:06.365Z</time></trkpt><trkpt lat="43.4065319" lon="11.2110786"><ele>191.0</ele><time>2026-04-03T15:42:08.352Z</time></trkpt><trkpt lat="43.4064313" lon="11.2111042"><ele>191.0</ele><time>2026-04-03T15:42:10.352Z</time></trkpt><trkpt lat="43.4063366" lon="11.2111324"><ele>191.0</ele><time>2026-04-03T15:42:12.344Z</time></trkpt><trkpt lat="43.4062426" lon="11.2111547"><ele>191.4</ele><time>2026-04-03T15:42:14.37Z</time></trkpt><trkpt lat="43.4061465" lon="11.2111695"><ele>191.8</ele><time>2026-04-03T15:42:16.344Z</time></trkpt><trkpt lat="43.406052" lon="11.211178"><ele>192.20000000000002</ele><time>2026-04-03T15:42:18.363Z</time></trkpt><trkpt lat="43.4059567" lon="11.2111791"><ele>192.60000000000002</ele><time>2026-04-03T15:42:20.334Z</time></trkpt><trkpt lat="43.40586" lon="11.2111529"><ele>193.0</ele><time>2026-04-03T15:42:22.352Z</time></trkpt><trkpt lat="43.4058028" lon="11.2110564"><ele>193.0</ele><time>2026-04-03T15:42:24.359Z</time></trkpt><trkpt lat="43.4057648" lon="11.2109364"><ele>193.0</ele><time>2026-04-03T15:42:26.35Z</time></trkpt><trkpt lat="43.4057247" lon="11.2108183"><ele>193.0</ele><time>2026-04-03T15:42:28.34Z</time></trkpt><trkpt lat="43.4056853" lon="11.2107067"><ele>193.0</ele><time>2026-04-03T15:42:30.364Z</time></trkpt><trkpt lat="43.4056479" lon="11.2105925"><ele>193.0</ele><time>2026-04-03T15:42:32.353Z</time></trkpt><trkpt lat="43.4056189" lon="11.2104786"><ele>193.16666666666666</ele><time>2026-04-03T15:42:34.355Z</time></trkpt><trkpt lat="43.4056147" lon="11.2103668"><ele>193.33333333333331</ele><time>2026-04-03T15:42:36.355Z</time></trkpt><trkpt lat="43.405647" lon="11.2102719"><ele>193.5</ele><time>2026-04-03T15:42:38.361Z</time></trkpt><trkpt lat="43.4056691" lon="11.2101743"><ele>193.66666666666669</ele><time>2026-04-03T15:42:40.347Z</time></trkpt><trkpt lat="43.4056706" lon="11.2100788"><ele>193.83333333333334</ele><time>2026-04-03T15:42:42.343Z</time></trkpt><trkpt lat="43.4056746" lon="11.2099683"><ele>194.0</ele><time>2026-04-03T15:42:44.357Z</time></trkpt><trkpt lat="43.4056906" lon="11.2098612"><ele>194.66666666666669</ele><time>2026-04-03T15:42:46.342Z</time></trkpt><trkpt lat="43.4057088" lon="11.2097591"><ele>195.33333333333334</ele><time>2026-04-03T15:42:48.347Z</time></trkpt><trkpt lat="43.405718" lon="11.2096528"><ele>196.0</ele><time>2026-04-03T15:42:50.357Z</time></trkpt><trkpt lat="43.4057163" lon="11.2095494"><ele>196.66666666666669</ele><time>2026-04-03T15:42:52.348Z</time></trkpt><trkpt lat="43.4057118" lon="11.2094504"><ele>197.33333333333334</ele><time>2026-04-03T15:42:54.361Z</time></trkpt><trkpt lat="43.4057125" lon="11.209362"><ele>198.0</ele><time>2026-04-03T15:42:56.366Z</time></trkpt><trkpt lat="43.4056994" lon="11.2092412"><ele>198.0</ele><time>2026-04-03T15:42:59.347Z</time></trkpt><trkpt lat="43.405661" lon="11.2091364"><ele>198.0</ele><time>2026-04-03T15:43:02.353Z</time></trkpt><trkpt lat="43.4056222" lon="11.209029"><ele>198.0</ele><time>2026-04-03T15:43:05.36Z</time></trkpt><trkpt lat="43.4055914" lon="11.2089532"><ele>198.0</ele><time>2026-04-03T15:43:07.338Z</time></trkpt><trkpt lat="43.4055677" lon="11.2088676"><ele>198.0</ele><time>2026-04-03T15:43:09.352Z</time></trkpt><trkpt lat="43.4055465" lon="11.2087761"><ele>198.0</ele><time>2026-04-03T15:43:11.351Z</time></trkpt><trkpt lat="43.4055204" lon="11.2086873"><ele>198.0</ele><time>2026-04-03T15:43:13.361Z</time></trkpt><trkpt lat="43.4054954" lon="11.2085974"><ele>198.57142857142858</ele><time>2026-04-03T15:43:15.355Z</time></trkpt><trkpt lat="43.4054763" lon="11.2085091"><ele>199.14285714285714</ele><time>2026-04-03T15:43:17.349Z</time></trkpt><trkpt lat="43.4054581" lon="11.2084239"><ele>199.71428571428572</ele><time>2026-04-03T15:43:19.353Z</time></trkpt><trkpt lat="43.4054977" lon="11.2083493"><ele>200.28571428571428</ele><time>2026-04-03T15:43:22.356Z</time></trkpt><trkpt lat="43.4055808" lon="11.2083027"><ele>200.85714285714283</ele><time>2026-04-03T15:43:25.354Z</time></trkpt><trkpt lat="43.4056662" lon="11.2082558"><ele>201.42857142857142</ele><time>2026-04-03T15:43:28.344Z</time></trkpt><trkpt lat="43.405727" lon="11.2082266"><ele>202.0</ele><time>2026-04-03T15:43:30.342Z</time></trkpt><trkpt lat="43.405801" lon="11.208187"><ele>202.0</ele><time>2026-04-03T15:43:33.339Z</time></trkpt><trkpt lat="43.405882" lon="11.2081605"><ele>202.0</ele><time>2026-04-03T15:43:37.356Z</time></trkpt><trkpt lat="43.4059459" lon="11.2081311"><ele>202.0</ele><time>2026-04-03T15:43:40.373Z</time></trkpt><trkpt lat="43.4060093" lon="11.2080855"><ele>202.0</ele><time>2026-04-03T15:43:44.36Z</time></trkpt><trkpt lat="43.406071" lon="11.2080361"><ele>202.0</ele><time>2026-04-03T15:43:48.354Z</time></trkpt><trkpt lat="43.4061396" lon="11.2079919"><ele>202.0</ele><time>2026-04-03T15:43:52.342Z</time></trkpt><trkpt lat="43.4061597" lon="11.2078896"><ele>202.0</ele><time>2026-04-03T15:43:56.364Z</time></trkpt><trkpt lat="43.4061577" lon="11.2077875"><ele>202.49999999999997</ele><time>2026-04-03T15:43:59.351Z</time></trkpt><trkpt lat="43.4061513" lon="11.2076743"><ele>203.0</ele><time>2026-04-03T15:44:02.345Z</time></trkpt><trkpt lat="43.4061325" lon="11.2075693"><ele>203.5</ele><time>2026-04-03T15:44:05.345Z</time></trkpt><trkpt lat="43.4061179" lon="11.2074616"><ele>204.0</ele><time>2026-04-03T15:44:08.368Z</time></trkpt><trkpt lat="43.4061037" lon="11.2073543"><ele>204.49999999999997</ele><time>2026-04-03T15:44:11.35Z</time></trkpt><trkpt lat="43.4060845" lon="11.2072539"><ele>205.0</ele><time>2026-04-03T15:44:14.361Z</time></trkpt><trkpt lat="43.4060592" lon="11.2071542"><ele>205.83333333333331</ele><time>2026-04-03T15:44:17.344Z</time></trkpt><trkpt lat="43.4060507" lon="11.2070571"><ele>206.66666666666666</ele><time>2026-04-03T15:44:20.352Z</time></trkpt><trkpt lat="43.4060561" lon="11.2069576"><ele>207.5</ele><time>2026-04-03T15:44:23.353Z</time></trkpt><trkpt lat="43.4059771" lon="11.2069401"><ele>208.33333333333331</ele><time>2026-04-03T15:44:27.371Z</time></trkpt><trkpt lat="43.4059545" lon="11.2068519"><ele>209.16666666666666</ele><time>2026-04-03T15:44:31.351Z</time></trkpt><trkpt lat="43.405979" lon="11.2067442"><ele>210.0</ele><time>2026-04-03T15:44:35.366Z</time></trkpt><trkpt lat="43.4060173" lon="11.206647"><ele>210.0</ele><time>2026-04-03T15:44:39.361Z</time></trkpt><trkpt lat="43.4060343" lon="11.2065557"><ele>210.0</ele><time>2026-04-03T15:44:43.368Z</time></trkpt><trkpt lat="43.406059" lon="11.2064599"><ele>210.0</ele><time>2026-04-03T15:44:48.345Z</time></trkpt><trkpt lat="43.4060981" lon="11.2063792"><ele>210.0</ele><time>2026-04-03T15:44:51.356Z</time></trkpt><trkpt lat="43.4061618" lon="11.206338"><ele>210.0</ele><time>2026-04-03T15:44:55.346Z</time></trkpt><trkpt lat="43.4062253" lon="11.20635"><ele>210.0</ele><time>2026-04-03T15:44:58.347Z</time></trkpt><trkpt lat="43.4062886" lon="11.2063617"><ele>210.0</ele><time>2026-04-03T15:45:01.363Z</time></trkpt><trkpt lat="43.4063527" lon="11.2063911"><ele>210.16666666666666</ele><time>2026-04-03T15:45:04.351Z</time></trkpt><trkpt lat="43.4064094" lon="11.2064439"><ele>210.33333333333331</ele><time>2026-04-03T15:45:07.329Z</time></trkpt><trkpt lat="43.4064605" lon="11.2065187"><ele>210.5</ele><time>2026-04-03T15:45:10.351Z</time></trkpt><trkpt lat="43.4064941" lon="11.2066125"><ele>210.66666666666666</ele><time>2026-04-03T15:45:13.361Z</time></trkpt><trkpt lat="43.4065052" lon="11.2067214"><ele>210.83333333333331</ele><time>2026-04-03T15:45:16.355Z</time></trkpt><trkpt lat="43.4065118" lon="11.2068325"><ele>211.0</ele><time>2026-04-03T15:45:19.347Z</time></trkpt><trkpt lat="43.4065204" lon="11.2069452"><ele>211.33333333333331</ele><time>2026-04-03T15:45:22.352Z</time></trkpt><trkpt lat="43.4065356" lon="11.2070613"><ele>211.66666666666666</ele><time>2026-04-03T15:45:25.337Z</time></trkpt><trkpt lat="43.4065498" lon="11.2071887"><ele>212.0</ele><time>2026-04-03T15:45:28.351Z</time></trkpt><trkpt lat="43.4065629" lon="11.2073055"><ele>212.33333333333331</ele><time>2026-04-03T15:45:31.341Z</time></trkpt><trkpt lat="43.4065724" lon="11.2074244"><ele>212.66666666666666</ele><time>2026-04-03T15:45:34.337Z</time></trkpt><trkpt lat="43.4065719" lon="11.2075428"><ele>213.0</ele><time>2026-04-03T15:45:37.336Z</time></trkpt><trkpt lat="43.4065643" lon="11.2076691"><ele>212.83333333333334</ele><time>2026-04-03T15:45:40.346Z</time></trkpt><trkpt lat="43.4065462" lon="11.2077885"><ele>212.66666666666669</ele><time>2026-04-03T15:45:43.355Z</time></trkpt><trkpt lat="43.406523" lon="11.2079131"><ele>212.5</ele><time>2026-04-03T15:45:46.34Z</time></trkpt><trkpt lat="43.4065038" lon="11.2080029"><ele>212.33333333333334</ele><time>2026-04-03T15:45:48.343Z</time></trkpt><trkpt lat="43.4064944" lon="11.2080959"><ele>212.16666666666669</ele><time>2026-04-03T15:45:50.344Z</time></trkpt><trkpt lat="43.406491" lon="11.208187"><ele>212.0</ele><time>2026-04-03T15:45:52.352Z</time></trkpt><trkpt lat="43.4064789" lon="11.2082804"><ele>212.00000000000003</ele><time>2026-04-03T15:45:54.361Z</time></trkpt><trkpt lat="43.4064689" lon="11.2083783"><ele>212.0</ele><time>2026-04-03T15:45:56.343Z</time></trkpt><trkpt lat="43.4064572" lon="11.208488"><ele>212.0</ele><time>2026-04-03T15:45:58.358Z</time></trkpt><trkpt lat="43.4064586" lon="11.2085897"><ele>212.0</ele><time>2026-04-03T15:46:00.358Z</time></trkpt><trkpt lat="43.4065108" lon="11.2086885"><ele>212.00000000000003</ele><time>2026-04-03T15:46:03.343Z</time></trkpt><trkpt lat="43.4065914" lon="11.2087376"><ele>212.0</ele><time>2026-04-03T15:46:06.345Z</time></trkpt><trkpt lat="43.4066329" lon="11.2086415"><ele>212.00000000000003</ele><time>2026-04-03T15:46:09.353Z</time></trkpt><trkpt lat="43.4066114" lon="11.2085238"><ele>212.0</ele><time>2026-04-03T15:46:12.358Z</time></trkpt><trkpt lat="43.4065828" lon="11.2084209"><ele>212.0</ele><time>2026-04-03T15:46:15.37Z</time></trkpt><trkpt lat="43.4065452" lon="11.2083261"><ele>212.0</ele><time>2026-04-03T15:46:18.349Z</time></trkpt><trkpt lat="43.4065304" lon="11.2082064"><ele>212.00000000000003</ele><time>2026-04-03T15:46:21.353Z</time></trkpt><trkpt lat="43.4065376" lon="11.2081166"><ele>212.0</ele><time>2026-04-03T15:46:23.342Z</time></trkpt><trkpt lat="43.4065479" lon="11.2080279"><ele>212.50000000000003</ele><time>2026-04-03T15:46:25.371Z</time></trkpt><trkpt lat="43.4065623" lon="11.2079057"><ele>213.0</ele><time>2026-04-03T15:46:28.347Z</time></trkpt><trkpt lat="43.4065771" lon="11.2077845"><ele>213.5</ele><time>2026-04-03T15:46:31.356Z</time></trkpt><trkpt lat="43.406598" lon="11.207698"><ele>214.0</ele><time>2026-04-03T15:46:33.368Z</time></trkpt><trkpt lat="43.4066163" lon="11.2075968"><ele>214.50000000000003</ele><time>2026-04-03T15:46:35.344Z</time></trkpt><trkpt lat="43.4066247" lon="11.2075009"><ele>215.0</ele><time>2026-04-03T15:46:37.353Z</time></trkpt><trkpt lat="43.4066238" lon="11.2073993"><ele>214.66666666666669</ele><time>2026-04-03T15:46:39.348Z</time></trkpt><trkpt lat="43.4066133" lon="11.2072816"><ele>214.33333333333334</ele><time>2026-04-03T15:46:41.341Z</time></trkpt><trkpt lat="43.406597" lon="11.2071632"><ele>214.0</ele><time>2026-04-03T15:46:43.344Z</time></trkpt><trkpt lat="43.4065816" lon="11.207048"><ele>213.66666666666669</ele><time>2026-04-03T15:46:45.349Z</time></trkpt><trkpt lat="43.4065673" lon="11.2069331"><ele>213.33333333333334</ele><time>2026-04-03T15:46:47.342Z</time></trkpt><trkpt lat="43.4065523" lon="11.2068261"><ele>213.0</ele><time>2026-04-03T15:46:49.352Z</time></trkpt><trkpt lat="43.4065499" lon="11.2067146"><ele>212.99999999999997</ele><time>2026-04-03T15:46:51.351Z</time></trkpt><trkpt lat="43.4065501" lon="11.2066057"><ele>213.0</ele><time>2026-04-03T15:46:53.348Z</time></trkpt><trkpt lat="43.4065622" lon="11.2065123"><ele>213.0</ele><time>2026-04-03T15:46:55.354Z</time></trkpt><trkpt lat="43.4065878" lon="11.2064198"><ele>213.0</ele><time>2026-04-03T15:46:57.353Z</time></trkpt><trkpt lat="43.4065934" lon="11.2063317"><ele>213.0</ele><time>2026-04-03T15:46:59.352Z</time></trkpt><trkpt lat="43.4065231" lon="11.2062846"><ele>212.99999999999997</ele><time>2026-04-03T15:47:02.363Z</time></trkpt><trkpt lat="43.4064567" lon="11.2062982"><ele>213.0</ele><time>2026-04-03T15:47:04.337Z</time></trkpt><trkpt lat="43.4063862" lon="11.2062912"><ele>213.33333333333334</ele><time>2026-04-03T15:47:06.346Z</time></trkpt><trkpt lat="43.406312" lon="11.2062849"><ele>213.66666666666669</ele><time>2026-04-03T15:47:08.357Z</time></trkpt><trkpt lat="43.4062292" lon="11.2062968"><ele>214.0</ele><time>2026-04-03T15:47:10.343Z</time></trkpt><trkpt lat="43.4061396" lon="11.2062933"><ele>214.33333333333334</ele><time>2026-04-03T15:47:12.344Z</time></trkpt><trkpt lat="43.4060432" lon="11.206287"><ele>214.66666666666669</ele><time>2026-04-03T15:47:14.355Z</time></trkpt><trkpt lat="43.4059415" lon="11.2062768"><ele>215.0</ele><time>2026-04-03T15:47:16.361Z</time></trkpt><trkpt lat="43.4058375" lon="11.206265"><ele>215.0</ele><time>2026-04-03T15:47:18.363Z</time></trkpt><trkpt lat="43.4057265" lon="11.2062581"><ele>215.0</ele><time>2026-04-03T15:47:20.362Z</time></trkpt><trkpt lat="43.4056144" lon="11.2062611"><ele>215.0</ele><time>2026-04-03T15:47:22.352Z</time></trkpt><trkpt lat="43.4054935" lon="11.2062526"><ele>215.0</ele><time>2026-04-03T15:47:24.344Z</time></trkpt><trkpt lat="43.405428" lon="11.2062508"><ele>215.0</ele><time>2026-04-03T15:47:25.357Z</time></trkpt><trkpt lat="43.4053632" lon="11.2062446"><ele>214.85714285714286</ele><time>2026-04-03T15:47:26.342Z</time></trkpt><trkpt lat="43.4052996" lon="11.2062285"><ele>214.71428571428572</ele><time>2026-04-03T15:47:27.344Z</time></trkpt><trkpt lat="43.4052342" lon="11.2062147"><ele>214.57142857142858</ele><time>2026-04-03T15:47:28.352Z</time></trkpt><trkpt lat="43.4051683" lon="11.2062056"><ele>214.42857142857144</ele><time>2026-04-03T15:47:29.355Z</time></trkpt><trkpt lat="43.4051033" lon="11.2061978"><ele>214.28571428571428</ele><time>2026-04-03T15:47:30.356Z</time></trkpt><trkpt lat="43.4050343" lon="11.2061846"><ele>214.14285714285717</ele><time>2026-04-03T15:47:31.345Z</time></trkpt><trkpt lat="43.40497" lon="11.206162"><ele>214.0</ele><time>2026-04-03T15:47:32.364Z</time></trkpt><trkpt lat="43.4049105" lon="11.2061252"><ele>213.99999999999997</ele><time>2026-04-03T15:47:33.341Z</time></trkpt><trkpt lat="43.4048213" lon="11.2060166"><ele>214.0</ele><time>2026-04-03T15:47:35.343Z</time></trkpt><trkpt lat="43.4047758" lon="11.2059102"><ele>214.0</ele><time>2026-04-03T15:47:37.348Z</time></trkpt><trkpt lat="43.4047495" lon="11.2058158"><ele>214.0</ele><time>2026-04-03T15:47:39.355Z</time></trkpt><trkpt lat="43.4047202" lon="11.2057376"><ele>213.99999999999997</ele><time>2026-04-03T15:47:41.35Z</time></trkpt><trkpt lat="43.4046775" lon="11.2056379"><ele>214.0</ele><time>2026-04-03T15:47:44.363Z</time></trkpt><trkpt lat="43.4046255" lon="11.2055422"><ele>215.49999999999997</ele><time>2026-04-03T15:47:47.368Z</time></trkpt><trkpt lat="43.4045689" lon="11.2054472"><ele>217.0</ele><time>2026-04-03T15:47:50.363Z</time></trkpt><trkpt lat="43.4045096" lon="11.2053735"><ele>218.5</ele><time>2026-04-03T15:47:53.349Z</time></trkpt><trkpt lat="43.4044438" lon="11.2053042"><ele>220.0</ele><time>2026-04-03T15:47:56.361Z</time></trkpt><trkpt lat="43.4043659" lon="11.2052596"><ele>221.49999999999997</ele><time>2026-04-03T15:47:59.37Z</time></trkpt><trkpt lat="43.4042925" lon="11.2052167"><ele>223.0</ele><time>2026-04-03T15:48:02.344Z</time></trkpt><trkpt lat="43.4042305" lon="11.2051673"><ele>223.0</ele><time>2026-04-03T15:48:05.353Z</time></trkpt><trkpt lat="43.4041776" lon="11.2051097"><ele>223.0</ele><time>2026-04-03T15:48:08.356Z</time></trkpt><trkpt lat="43.4041303" lon="11.2050447"><ele>223.0</ele><time>2026-04-03T15:48:11.35Z</time></trkpt><trkpt lat="43.4040807" lon="11.2049891"><ele>223.0</ele><time>2026-04-03T15:48:14.359Z</time></trkpt><trkpt lat="43.4040233" lon="11.2049282"><ele>223.0</ele><time>2026-04-03T15:48:17.349Z</time></trkpt><trkpt lat="43.40397" lon="11.204837"><ele>223.0</ele><time>2026-04-03T15:48:21.34Z</time></trkpt><trkpt lat="43.4039295" lon="11.2047602"><ele>223.0</ele><time>2026-04-03T15:48:24.349Z</time></trkpt><trkpt lat="43.4038809" lon="11.2046691"><ele>223.42857142857142</ele><time>2026-04-03T15:48:28.344Z</time></trkpt><trkpt lat="43.4038414" lon="11.2045758"><ele>223.85714285714283</ele><time>2026-04-03T15:48:32.362Z</time></trkpt><trkpt lat="43.4038096" lon="11.2044967"><ele>224.28571428571428</ele><time>2026-04-03T15:48:35.356Z</time></trkpt><trkpt lat="43.4037772" lon="11.2044189"><ele>224.71428571428572</ele><time>2026-04-03T15:48:38.363Z</time></trkpt><trkpt lat="43.4037403" lon="11.2043435"><ele>225.14285714285714</ele><time>2026-04-03T15:48:41.344Z</time></trkpt><trkpt lat="43.4037041" lon="11.2042497"><ele>225.57142857142858</ele><time>2026-04-03T15:48:45.349Z</time></trkpt><trkpt lat="43.4036697" lon="11.2041558"><ele>226.0</ele><time>2026-04-03T15:48:49.351Z</time></trkpt><trkpt lat="43.4036252" lon="11.2040625"><ele>227.0</ele><time>2026-04-03T15:48:53.345Z</time></trkpt><trkpt lat="43.4035976" lon="11.2039832"><ele>228.0</ele><time>2026-04-03T15:48:56.352Z</time></trkpt><trkpt lat="43.4035637" lon="11.2038863"><ele>229.0</ele><time>2026-04-03T15:49:00.355Z</time></trkpt><trkpt lat="43.4035366" lon="11.2038"><ele>230.0</ele><time>2026-04-03T15:49:03.357Z</time></trkpt><trkpt lat="43.403509" lon="11.2037094"><ele>231.0</ele><time>2026-04-03T15:49:06.353Z</time></trkpt><trkpt lat="43.4034761" lon="11.2036024"><ele>232.0</ele><time>2026-04-03T15:49:10.344Z</time></trkpt><trkpt lat="43.4034505" lon="11.2035209"><ele>233.0</ele><time>2026-04-03T15:49:13.333Z</time></trkpt><trkpt lat="43.4034173" lon="11.2034206"><ele>233.0</ele><time>2026-04-03T15:49:17.369Z</time></trkpt><trkpt lat="43.4033866" lon="11.2033354"><ele>233.0</ele><time>2026-04-03T15:49:21.355Z</time></trkpt><trkpt lat="43.4033545" lon="11.2032424"><ele>233.0</ele><time>2026-04-03T15:49:25.343Z</time></trkpt><trkpt lat="43.4033257" lon="11.2031437"><ele>233.0</ele><time>2026-04-03T15:49:29.355Z</time></trkpt><trkpt lat="43.403294" lon="11.2030457"><ele>233.0</ele><time>2026-04-03T15:49:33.349Z</time></trkpt><trkpt lat="43.4032581" lon="11.2029656"><ele>233.0</ele><time>2026-04-03T15:49:36.357Z</time></trkpt><trkpt lat="43.4032176" lon="11.2028906"><ele>233.0</ele><time>2026-04-03T15:49:39.349Z</time></trkpt><trkpt lat="43.4031749" lon="11.2028165"><ele>233.33333333333334</ele><time>2026-04-03T15:49:42.362Z</time></trkpt><trkpt lat="43.4031384" lon="11.2027409"><ele>233.66666666666669</ele><time>2026-04-03T15:49:45.349Z</time></trkpt><trkpt lat="43.4030886" lon="11.2026655"><ele>234.0</ele><time>2026-04-03T15:49:48.344Z</time></trkpt><trkpt lat="43.4030347" lon="11.2025881"><ele>234.33333333333331</ele><time>2026-04-03T15:49:51.348Z</time></trkpt><trkpt lat="43.4029754" lon="11.2025126"><ele>234.66666666666666</ele><time>2026-04-03T15:49:54.359Z</time></trkpt><trkpt lat="43.4029072" lon="11.2024321"><ele>235.0</ele><time>2026-04-03T15:49:57.34Z</time></trkpt><trkpt lat="43.4028348" lon="11.2023483"><ele>234.85714285714283</ele><time>2026-04-03T15:50:00.358Z</time></trkpt><trkpt lat="43.4027805" lon="11.2022976"><ele>234.7142857142857</ele><time>2026-04-03T15:50:02.363Z</time></trkpt><trkpt lat="43.4027222" lon="11.2022426"><ele>234.57142857142856</ele><time>2026-04-03T15:50:04.353Z</time></trkpt><trkpt lat="43.4026652" lon="11.2021885"><ele>234.42857142857144</ele><time>2026-04-03T15:50:06.35Z</time></trkpt><trkpt lat="43.4026069" lon="11.2021162"><ele>234.2857142857143</ele><time>2026-04-03T15:50:08.341Z</time></trkpt><trkpt lat="43.4025445" lon="11.2020438"><ele>234.14285714285717</ele><time>2026-04-03T15:50:10.351Z</time></trkpt><trkpt lat="43.4024789" lon="11.2019773"><ele>234.0</ele><time>2026-04-03T15:50:12.369Z</time></trkpt><trkpt lat="43.4024149" lon="11.2019079"><ele>234.0</ele><time>2026-04-03T15:50:14.347Z</time></trkpt><trkpt lat="43.4023457" lon="11.2018398"><ele>234.0</ele><time>2026-04-03T15:50:16.356Z</time></trkpt><trkpt lat="43.4022808" lon="11.2017802"><ele>234.0</ele><time>2026-04-03T15:50:18.355Z</time></trkpt><trkpt lat="43.4022191" lon="11.2017128"><ele>234.0</ele><time>2026-04-03T15:50:20.356Z</time></trkpt><trkpt lat="43.4021525" lon="11.2016454"><ele>234.0</ele><time>2026-04-03T15:50:22.358Z</time></trkpt><trkpt lat="43.4020866" lon="11.201578"><ele>234.0</ele><time>2026-04-03T15:50:24.358Z</time></trkpt><trkpt lat="43.4020193" lon="11.2015083"><ele>233.79999999999998</ele><time>2026-04-03T15:50:26.34Z</time></trkpt><trkpt lat="43.401947" lon="11.201436"><ele>233.59999999999997</ele><time>2026-04-03T15:50:28.358Z</time></trkpt><trkpt lat="43.4018725" lon="11.2013625"><ele>233.4</ele><time>2026-04-03T15:50:30.354Z</time></trkpt><trkpt lat="43.4017977" lon="11.2012819"><ele>233.2</ele><time>2026-04-03T15:50:32.345Z</time></trkpt><trkpt lat="43.4017239" lon="11.2012042"><ele>233.0</ele><time>2026-04-03T15:50:34.345Z</time></trkpt><trkpt lat="43.4016513" lon="11.2011272"><ele>233.00000000000003</ele><time>2026-04-03T15:50:36.349Z</time></trkpt><trkpt lat="43.4015804" lon="11.2010592"><ele>233.0</ele><time>2026-04-03T15:50:38.346Z</time></trkpt><trkpt lat="43.401506" lon="11.2009905"><ele>233.0</ele><time>2026-04-03T15:50:40.346Z</time></trkpt><trkpt lat="43.4014382" lon="11.2009226"><ele>233.0</ele><time>2026-04-03T15:50:42.362Z</time></trkpt><trkpt lat="43.4013671" lon="11.2008479"><ele>233.00000000000003</ele><time>2026-04-03T15:50:44.377Z</time></trkpt><trkpt lat="43.4012954" lon="11.2007795"><ele>233.0</ele><time>2026-04-03T15:50:46.35Z</time></trkpt><trkpt lat="43.4012366" lon="11.20071"><ele>233.2</ele><time>2026-04-03T15:50:48.345Z</time></trkpt><trkpt lat="43.4011712" lon="11.2006329"><ele>233.4</ele><time>2026-04-03T15:50:50.354Z</time></trkpt><trkpt lat="43.4010922" lon="11.2005575"><ele>233.59999999999997</ele><time>2026-04-03T15:50:52.362Z</time></trkpt><trkpt lat="43.4010111" lon="11.2004863"><ele>233.79999999999998</ele><time>2026-04-03T15:50:54.348Z</time></trkpt><trkpt lat="43.4009279" lon="11.2004031"><ele>234.0</ele><time>2026-04-03T15:50:56.365Z</time></trkpt><trkpt lat="43.4008354" lon="11.200312"><ele>234.0</ele><time>2026-04-03T15:50:58.354Z</time></trkpt><trkpt lat="43.4007451" lon="11.2002175"><ele>233.99999999999997</ele><time>2026-04-03T15:51:00.364Z</time></trkpt><trkpt lat="43.4006493" lon="11.200117"><ele>233.99999999999997</ele><time>2026-04-03T15:51:02.349Z</time></trkpt><trkpt lat="43.4005557" lon="11.2000066"><ele>234.0</ele><time>2026-04-03T15:51:04.353Z</time></trkpt><trkpt lat="43.400509" lon="11.199944"><ele>234.0</ele><time>2026-04-03T15:51:05.351Z</time></trkpt><trkpt lat="43.400458" lon="11.1998787"><ele>233.42857142857144</ele><time>2026-04-03T15:51:06.351Z</time></trkpt><trkpt lat="43.4004032" lon="11.1998134"><ele>232.8571428571429</ele><time>2026-04-03T15:51:07.366Z</time></trkpt><trkpt lat="43.4003524" lon="11.1997437"><ele>232.28571428571428</ele><time>2026-04-03T15:51:08.349Z</time></trkpt><trkpt lat="43.4003078" lon="11.1996651"><ele>231.71428571428572</ele><time>2026-04-03T15:51:09.35Z</time></trkpt><trkpt lat="43.4002668" lon="11.1995782"><ele>231.14285714285714</ele><time>2026-04-03T15:51:10.363Z</time></trkpt><trkpt lat="43.4002288" lon="11.1994865"><ele>230.57142857142856</ele><time>2026-04-03T15:51:11.342Z</time></trkpt><trkpt lat="43.4001937" lon="11.1993871"><ele>229.99999999999997</ele><time>2026-04-03T15:51:12.348Z</time></trkpt><trkpt lat="43.4001618" lon="11.1992873"><ele>230.00000000000003</ele><time>2026-04-03T15:51:13.369Z</time></trkpt><trkpt lat="43.4001297" lon="11.1991851"><ele>230.0</ele><time>2026-04-03T15:51:14.345Z</time></trkpt><trkpt lat="43.4000955" lon="11.1990877"><ele>230.0</ele><time>2026-04-03T15:51:15.37Z</time></trkpt><trkpt lat="43.400059" lon="11.198989"><ele>230.0</ele><time>2026-04-03T15:51:16.346Z</time></trkpt><trkpt lat="43.4000242" lon="11.1988865"><ele>230.00000000000003</ele><time>2026-04-03T15:51:17.347Z</time></trkpt><trkpt lat="43.3999884" lon="11.1987753"><ele>230.0</ele><time>2026-04-03T15:51:18.345Z</time></trkpt><trkpt lat="43.3999547" lon="11.1986642"><ele>229.66666666666669</ele><time>2026-04-03T15:51:19.351Z</time></trkpt><trkpt lat="43.3999235" lon="11.1985544"><ele>229.33333333333334</ele><time>2026-04-03T15:51:20.368Z</time></trkpt><trkpt lat="43.3998908" lon="11.1984439"><ele>229.0</ele><time>2026-04-03T15:51:21.361Z</time></trkpt><trkpt lat="43.3998566" lon="11.1983295"><ele>228.66666666666669</ele><time>2026-04-03T15:51:22.353Z</time></trkpt><trkpt lat="43.3998213" lon="11.198217"><ele>228.33333333333334</ele><time>2026-04-03T15:51:23.356Z</time></trkpt><trkpt lat="43.3997876" lon="11.1981025"><ele>228.0</ele><time>2026-04-03T15:51:24.347Z</time></trkpt><trkpt lat="43.3997525" lon="11.197988"><ele>227.0</ele><time>2026-04-03T15:51:25.349Z</time></trkpt><trkpt lat="43.3997146" lon="11.1978756"><ele>226.0</ele><time>2026-04-03T15:51:26.37Z</time></trkpt><trkpt lat="43.3996801" lon="11.197766"><ele>225.0</ele><time>2026-04-03T15:51:27.357Z</time></trkpt><trkpt lat="43.3996484" lon="11.1976583"><ele>224.0</ele><time>2026-04-03T15:51:28.358Z</time></trkpt><trkpt lat="43.3996153" lon="11.1975436"><ele>223.0</ele><time>2026-04-03T15:51:29.351Z</time></trkpt><trkpt lat="43.3995816" lon="11.1974298"><ele>222.0</ele><time>2026-04-03T15:51:30.349Z</time></trkpt><trkpt lat="43.3995531" lon="11.1973172"><ele>220.39999999999998</ele><time>2026-04-03T15:51:31.35Z</time></trkpt><trkpt lat="43.3995217" lon="11.1972081"><ele>218.79999999999998</ele><time>2026-04-03T15:51:32.356Z</time></trkpt><trkpt lat="43.3994868" lon="11.1970919"><ele>217.2</ele><time>2026-04-03T15:51:33.34Z</time></trkpt><trkpt lat="43.3994684" lon="11.1969656"><ele>215.6</ele><time>2026-04-03T15:51:34.358Z</time></trkpt><trkpt lat="43.3994745" lon="11.1968337"><ele>214.0</ele><time>2026-04-03T15:51:35.36Z</time></trkpt><trkpt lat="43.3995016" lon="11.1967073"><ele>213.99999999999997</ele><time>2026-04-03T15:51:36.348Z</time></trkpt><trkpt lat="43.3995241" lon="11.1965875"><ele>214.0</ele><time>2026-04-03T15:51:37.353Z</time></trkpt><trkpt lat="43.3995315" lon="11.1964743"><ele>214.0</ele><time>2026-04-03T15:51:38.353Z</time></trkpt><trkpt lat="43.3995239" lon="11.196355"><ele>214.0</ele><time>2026-04-03T15:51:39.36Z</time></trkpt><trkpt lat="43.3995104" lon="11.1962387"><ele>213.99999999999997</ele><time>2026-04-03T15:51:40.354Z</time></trkpt><trkpt lat="43.3995079" lon="11.1961323"><ele>214.0</ele><time>2026-04-03T15:51:41.347Z</time></trkpt><trkpt lat="43.3995156" lon="11.1960338"><ele>213.66666666666666</ele><time>2026-04-03T15:51:42.35Z</time></trkpt><trkpt lat="43.3995236" lon="11.1959428"><ele>213.33333333333331</ele><time>2026-04-03T15:51:43.345Z</time></trkpt><trkpt lat="43.3995237" lon="11.1958554"><ele>213.0</ele><time>2026-04-03T15:51:44.353Z</time></trkpt><trkpt lat="43.399488" lon="11.1957127"><ele>212.66666666666669</ele><time>2026-04-03T15:51:46.352Z</time></trkpt><trkpt lat="43.3994165" lon="11.1956054"><ele>212.33333333333334</ele><time>2026-04-03T15:51:48.367Z</time></trkpt><trkpt lat="43.3993397" lon="11.1955238"><ele>212.0</ele><time>2026-04-03T15:51:50.363Z</time></trkpt><trkpt lat="43.3992664" lon="11.1954443"><ele>211.6</ele><time>2026-04-03T15:51:52.356Z</time></trkpt><trkpt lat="43.3991888" lon="11.195371"><ele>211.2</ele><time>2026-04-03T15:51:54.354Z</time></trkpt><trkpt lat="43.3991101" lon="11.1952967"><ele>210.8</ele><time>2026-04-03T15:51:56.363Z</time></trkpt><trkpt lat="43.39903" lon="11.1952211"><ele>210.4</ele><time>2026-04-03T15:51:58.368Z</time></trkpt><trkpt lat="43.3989453" lon="11.1951466"><ele>210.0</ele><time>2026-04-03T15:52:00.349Z</time></trkpt><trkpt lat="43.3988529" lon="11.1950691"><ele>209.8</ele><time>2026-04-03T15:52:02.357Z</time></trkpt><trkpt lat="43.3987608" lon="11.1949862"><ele>209.6</ele><time>2026-04-03T15:52:04.351Z</time></trkpt><trkpt lat="43.3986532" lon="11.1948821"><ele>209.39999999999998</ele><time>2026-04-03T15:52:06.369Z</time></trkpt><trkpt lat="43.3985927" lon="11.1948212"><ele>209.2</ele><time>2026-04-03T15:52:07.352Z</time></trkpt><trkpt lat="43.3985305" lon="11.194753"><ele>209.0</ele><time>2026-04-03T15:52:08.349Z</time></trkpt><trkpt lat="43.3984721" lon="11.1946751"><ele>208.39999999999998</ele><time>2026-04-03T15:52:09.368Z</time></trkpt><trkpt lat="43.3984208" lon="11.1945839"><ele>207.8</ele><time>2026-04-03T15:52:10.336Z</time></trkpt><trkpt lat="43.3983821" lon="11.1944631"><ele>207.2</ele><time>2026-04-03T15:52:11.366Z</time></trkpt><trkpt lat="43.3983629" lon="11.194325"><ele>206.60000000000002</ele><time>2026-04-03T15:52:12.355Z</time></trkpt><trkpt lat="43.3983527" lon="11.1941791"><ele>206.0</ele><time>2026-04-03T15:52:13.352Z</time></trkpt><trkpt lat="43.3983503" lon="11.1940267"><ele>205.5</ele><time>2026-04-03T15:52:14.373Z</time></trkpt><trkpt lat="43.3983542" lon="11.1938705"><ele>205.0</ele><time>2026-04-03T15:52:15.352Z</time></trkpt><trkpt lat="43.3983518" lon="11.19371"><ele>204.5</ele><time>2026-04-03T15:52:16.345Z</time></trkpt><trkpt lat="43.3983329" lon="11.1935502"><ele>204.0</ele><time>2026-04-03T15:52:17.36Z</time></trkpt><trkpt lat="43.3982956" lon="11.1933945"><ele>204.0</ele><time>2026-04-03T15:52:18.357Z</time></trkpt><trkpt lat="43.3982522" lon="11.1932411"><ele>204.0</ele><time>2026-04-03T15:52:19.372Z</time></trkpt><trkpt lat="43.3982047" lon="11.1930858"><ele>204.0</ele><time>2026-04-03T15:52:20.346Z</time></trkpt><trkpt lat="43.3981533" lon="11.1929272"><ele>204.0</ele><time>2026-04-03T15:52:21.34Z</time></trkpt><trkpt lat="43.3981043" lon="11.1927729"><ele>204.0</ele><time>2026-04-03T15:52:22.344Z</time></trkpt><trkpt lat="43.3980578" lon="11.1926263"><ele>204.0</ele><time>2026-04-03T15:52:23.357Z</time></trkpt><trkpt lat="43.3980114" lon="11.1924893"><ele>204.0</ele><time>2026-04-03T15:52:24.35Z</time></trkpt><trkpt lat="43.3979673" lon="11.1923553"><ele>204.0</ele><time>2026-04-03T15:52:25.357Z</time></trkpt><trkpt lat="43.3979227" lon="11.1922315"><ele>204.0</ele><time>2026-04-03T15:52:26.36Z</time></trkpt><trkpt lat="43.3978828" lon="11.1921136"><ele>204.5</ele><time>2026-04-03T15:52:27.347Z</time></trkpt><trkpt lat="43.3978456" lon="11.1920022"><ele>205.0</ele><time>2026-04-03T15:52:28.342Z</time></trkpt><trkpt lat="43.3978123" lon="11.1918936"><ele>205.5</ele><time>2026-04-03T15:52:29.358Z</time></trkpt><trkpt lat="43.3977825" lon="11.1917946"><ele>206.0</ele><time>2026-04-03T15:52:30.355Z</time></trkpt><trkpt lat="43.3977563" lon="11.1916985"><ele>206.5</ele><time>2026-04-03T15:52:31.338Z</time></trkpt><trkpt lat="43.3977287" lon="11.1916076"><ele>207.0</ele><time>2026-04-03T15:52:32.378Z</time></trkpt><trkpt lat="43.3977041" lon="11.1915268"><ele>207.5</ele><time>2026-04-03T15:52:33.342Z</time></trkpt><trkpt lat="43.3976792" lon="11.1914468"><ele>208.0</ele><time>2026-04-03T15:52:34.357Z</time></trkpt><trkpt lat="43.3976322" lon="11.1913023"><ele>208.5</ele><time>2026-04-03T15:52:36.346Z</time></trkpt><trkpt lat="43.3975944" lon="11.191186"><ele>209.0</ele><time>2026-04-03T15:52:38.353Z</time></trkpt><trkpt lat="43.3975559" lon="11.1910806"><ele>209.5</ele><time>2026-04-03T15:52:40.351Z</time></trkpt><trkpt lat="43.397512" lon="11.1909931"><ele>210.0</ele><time>2026-04-03T15:52:42.349Z</time></trkpt><trkpt lat="43.3974654" lon="11.1909316"><ele>210.0</ele><time>2026-04-03T15:52:44.346Z</time></trkpt><trkpt lat="43.3973886" lon="11.1908587"><ele>210.0</ele><time>2026-04-03T15:52:47.35Z</time></trkpt><trkpt lat="43.3973392" lon="11.1907942"><ele>210.0</ele><time>2026-04-03T15:52:49.352Z</time></trkpt><trkpt lat="43.3972924" lon="11.1907231"><ele>210.0</ele><time>2026-04-03T15:52:51.347Z</time></trkpt><trkpt lat="43.3972352" lon="11.1906664"><ele>210.0</ele><time>2026-04-03T15:52:53.344Z</time></trkpt><trkpt lat="43.3971602" lon="11.1906576"><ele>210.0</ele><time>2026-04-03T15:52:55.35Z</time></trkpt><trkpt lat="43.397083" lon="11.1906678"><ele>209.66666666666666</ele><time>2026-04-03T15:52:57.37Z</time></trkpt><trkpt lat="43.3970017" lon="11.1906776"><ele>209.33333333333331</ele><time>2026-04-03T15:52:59.368Z</time></trkpt><trkpt lat="43.3969142" lon="11.1906638"><ele>209.0</ele><time>2026-04-03T15:53:01.352Z</time></trkpt><trkpt lat="43.3968325" lon="11.1906586"><ele>208.66666666666666</ele><time>2026-04-03T15:53:03.356Z</time></trkpt><trkpt lat="43.396742" lon="11.1906576"><ele>208.33333333333331</ele><time>2026-04-03T15:53:05.344Z</time></trkpt><trkpt lat="43.3966407" lon="11.1906513"><ele>208.0</ele><time>2026-04-03T15:53:07.343Z</time></trkpt><trkpt lat="43.3965414" lon="11.1906514"><ele>208.0</ele><time>2026-04-03T15:53:09.342Z</time></trkpt><trkpt lat="43.3964439" lon="11.1906596"><ele>208.0</ele><time>2026-04-03T15:53:11.346Z</time></trkpt><trkpt lat="43.3963474" lon="11.1906752"><ele>208.0</ele><time>2026-04-03T15:53:13.358Z</time></trkpt><trkpt lat="43.3962483" lon="11.1906886"><ele>208.0</ele><time>2026-04-03T15:53:15.353Z</time></trkpt><trkpt lat="43.3961585" lon="11.1907151"><ele>208.0</ele><time>2026-04-03T15:53:17.344Z</time></trkpt><trkpt lat="43.3960599" lon="11.1907322"><ele>208.0</ele><time>2026-04-03T15:53:19.344Z</time></trkpt><trkpt lat="43.3959614" lon="11.1907547"><ele>208.0</ele><time>2026-04-03T15:53:21.367Z</time></trkpt><trkpt lat="43.3958599" lon="11.190781"><ele>208.0</ele><time>2026-04-03T15:53:23.369Z</time></trkpt><trkpt lat="43.3957543" lon="11.1908036"><ele>208.0</ele><time>2026-04-03T15:53:25.358Z</time></trkpt><trkpt lat="43.3956512" lon="11.1908167"><ele>208.0</ele><time>2026-04-03T15:53:27.359Z</time></trkpt><trkpt lat="43.3955374" lon="11.1908443"><ele>207.49999999999997</ele><time>2026-04-03T15:53:29.349Z</time></trkpt><trkpt lat="43.3954222" lon="11.1908636"><ele>207.0</ele><time>2026-04-03T15:53:31.349Z</time></trkpt><trkpt lat="43.3952951" lon="11.1908922"><ele>206.5</ele><time>2026-04-03T15:53:33.361Z</time></trkpt><trkpt lat="43.39523" lon="11.1909031"><ele>206.0</ele><time>2026-04-03T15:53:34.338Z</time></trkpt><trkpt lat="43.3951628" lon="11.1909093"><ele>205.49999999999997</ele><time>2026-04-03T15:53:35.341Z</time></trkpt><trkpt lat="43.3950953" lon="11.1909198"><ele>205.0</ele><time>2026-04-03T15:53:36.345Z</time></trkpt><trkpt lat="43.3950258" lon="11.1909259"><ele>204.99999999999997</ele><time>2026-04-03T15:53:37.345Z</time></trkpt><trkpt lat="43.3949553" lon="11.1909321"><ele>205.0</ele><time>2026-04-03T15:53:38.375Z</time></trkpt><trkpt lat="43.3948821" lon="11.1909376"><ele>205.0</ele><time>2026-04-03T15:53:39.36Z</time></trkpt><trkpt lat="43.3948069" lon="11.1909389"><ele>205.0</ele><time>2026-04-03T15:53:40.339Z</time></trkpt><trkpt lat="43.3947282" lon="11.1909398"><ele>204.99999999999997</ele><time>2026-04-03T15:53:41.368Z</time></trkpt><trkpt lat="43.3946478" lon="11.1909434"><ele>205.0</ele><time>2026-04-03T15:53:42.349Z</time></trkpt><trkpt lat="43.3945654" lon="11.1909527"><ele>204.99999999999997</ele><time>2026-04-03T15:53:43.353Z</time></trkpt><trkpt lat="43.3944832" lon="11.1909554"><ele>205.0</ele><time>2026-04-03T15:53:44.352Z</time></trkpt><trkpt lat="43.3943996" lon="11.1909541"><ele>205.0</ele><time>2026-04-03T15:53:45.354Z</time></trkpt><trkpt lat="43.3943175" lon="11.1909556"><ele>205.0</ele><time>2026-04-03T15:53:46.352Z</time></trkpt><trkpt lat="43.3942334" lon="11.1909677"><ele>204.99999999999997</ele><time>2026-04-03T15:53:47.351Z</time></trkpt><trkpt lat="43.3941485" lon="11.190987"><ele>205.0</ele><time>2026-04-03T15:53:48.34Z</time></trkpt><trkpt lat="43.3940654" lon="11.1910055"><ele>204.99999999999997</ele><time>2026-04-03T15:53:49.356Z</time></trkpt><trkpt lat="43.3939863" lon="11.1910242"><ele>205.0</ele><time>2026-04-03T15:53:50.367Z</time></trkpt><trkpt lat="43.3939074" lon="11.1910434"><ele>205.0</ele><time>2026-04-03T15:53:51.355Z</time></trkpt><trkpt lat="43.3938248" lon="11.1910707"><ele>205.0</ele><time>2026-04-03T15:53:52.345Z</time></trkpt><trkpt lat="43.3937445" lon="11.1910983"><ele>204.99999999999997</ele><time>2026-04-03T15:53:53.356Z</time></trkpt><trkpt lat="43.3936607" lon="11.1911213"><ele>205.0</ele><time>2026-04-03T15:53:54.355Z</time></trkpt><trkpt lat="43.3935841" lon="11.1911311"><ele>204.85714285714286</ele><time>2026-04-03T15:53:55.356Z</time></trkpt><trkpt lat="43.3935127" lon="11.1911283"><ele>204.7142857142857</ele><time>2026-04-03T15:53:56.341Z</time></trkpt><trkpt lat="43.3934453" lon="11.1911085"><ele>204.57142857142856</ele><time>2026-04-03T15:53:57.35Z</time></trkpt><trkpt lat="43.3933846" lon="11.1910619"><ele>204.42857142857144</ele><time>2026-04-03T15:53:58.356Z</time></trkpt><trkpt lat="43.3933301" lon="11.1909986"><ele>204.28571428571428</ele><time>2026-04-03T15:53:59.349Z</time></trkpt><trkpt lat="43.3932801" lon="11.1909249"><ele>204.14285714285714</ele><time>2026-04-03T15:54:00.334Z</time></trkpt><trkpt lat="43.393237" lon="11.1908468"><ele>204.0</ele><time>2026-04-03T15:54:01.357Z</time></trkpt><trkpt lat="43.3932148" lon="11.1907571"><ele>204.5</ele><time>2026-04-03T15:54:02.351Z</time></trkpt><trkpt lat="43.393215" lon="11.1906633"><ele>205.0</ele><time>2026-04-03T15:54:03.357Z</time></trkpt><trkpt lat="43.3932177" lon="11.1905687"><ele>205.5</ele><time>2026-04-03T15:54:04.355Z</time></trkpt><trkpt lat="43.3932229" lon="11.1904779"><ele>206.0</ele><time>2026-04-03T15:54:05.357Z</time></trkpt><trkpt lat="43.3932341" lon="11.1903179"><ele>206.5</ele><time>2026-04-03T15:54:07.346Z</time></trkpt><trkpt lat="43.3932416" lon="11.1901626"><ele>207.0</ele><time>2026-04-03T15:54:09.344Z</time></trkpt><trkpt lat="43.3932505" lon="11.19002"><ele>207.0</ele><time>2026-04-03T15:54:11.346Z</time></trkpt><trkpt lat="43.3932551" lon="11.1898713"><ele>207.0</ele><time>2026-04-03T15:54:13.342Z</time></trkpt><trkpt lat="43.3932559" lon="11.1897237"><ele>207.0</ele><time>2026-04-03T15:54:15.359Z</time></trkpt><trkpt lat="43.3932606" lon="11.1895841"><ele>207.0</ele><time>2026-04-03T15:54:17.349Z</time></trkpt><trkpt lat="43.393268" lon="11.1894511"><ele>207.0</ele><time>2026-04-03T15:54:19.353Z</time></trkpt><trkpt lat="43.3932701" lon="11.1893229"><ele>207.39999999999998</ele><time>2026-04-03T15:54:21.36Z</time></trkpt><trkpt lat="43.3932626" lon="11.1891921"><ele>207.79999999999998</ele><time>2026-04-03T15:54:23.347Z</time></trkpt><trkpt lat="43.3932423" lon="11.1890783"><ele>208.2</ele><time>2026-04-03T15:54:25.354Z</time></trkpt><trkpt lat="43.3931701" lon="11.1890036"><ele>208.6</ele><time>2026-04-03T15:54:27.36Z</time></trkpt><trkpt lat="43.3930858" lon="11.1889616"><ele>209.0</ele><time>2026-04-03T15:54:29.374Z</time></trkpt><trkpt lat="43.3930033" lon="11.1889108"><ele>209.00000000000003</ele><time>2026-04-03T15:54:31.379Z</time></trkpt><trkpt lat="43.392917" lon="11.1888525"><ele>209.0</ele><time>2026-04-03T15:54:33.369Z</time></trkpt><trkpt lat="43.3928292" lon="11.1888247"><ele>209.0</ele><time>2026-04-03T15:54:35.367Z</time></trkpt><trkpt lat="43.3927484" lon="11.1888655"><ele>209.0</ele><time>2026-04-03T15:54:37.36Z</time></trkpt><trkpt lat="43.3926918" lon="11.1889522"><ele>209.00000000000003</ele><time>2026-04-03T15:54:39.348Z</time></trkpt><trkpt lat="43.3926465" lon="11.1890619"><ele>209.0</ele><time>2026-04-03T15:54:41.376Z</time></trkpt><trkpt lat="43.3926104" lon="11.1891746"><ele>209.2</ele><time>2026-04-03T15:54:43.364Z</time></trkpt><trkpt lat="43.392566" lon="11.1892816"><ele>209.39999999999998</ele><time>2026-04-03T15:54:45.361Z</time></trkpt><trkpt lat="43.3925183" lon="11.1893916"><ele>209.6</ele><time>2026-04-03T15:54:47.352Z</time></trkpt><trkpt lat="43.392466" lon="11.1895147"><ele>209.8</ele><time>2026-04-03T15:54:49.36Z</time></trkpt><trkpt lat="43.3924086" lon="11.1896439"><ele>210.0</ele><time>2026-04-03T15:54:51.355Z</time></trkpt><trkpt lat="43.3923464" lon="11.189778"><ele>209.75</ele><time>2026-04-03T15:54:53.34Z</time></trkpt><trkpt lat="43.3922813" lon="11.1899113"><ele>209.5</ele><time>2026-04-03T15:54:55.367Z</time></trkpt><trkpt lat="43.3922277" lon="11.190049"><ele>209.25</ele><time>2026-04-03T15:54:57.346Z</time></trkpt><trkpt lat="43.3921633" lon="11.1901822"><ele>209.0</ele><time>2026-04-03T15:54:59.368Z</time></trkpt><trkpt lat="43.3920998" lon="11.1903139"><ele>208.75</ele><time>2026-04-03T15:55:01.359Z</time></trkpt><trkpt lat="43.3920513" lon="11.1904584"><ele>208.5</ele><time>2026-04-03T15:55:03.371Z</time></trkpt><trkpt lat="43.3919903" lon="11.1905978"><ele>208.25</ele><time>2026-04-03T15:55:05.372Z</time></trkpt><trkpt lat="43.3919221" lon="11.1907339"><ele>208.0</ele><time>2026-04-03T15:55:07.362Z</time></trkpt><trkpt lat="43.3918568" lon="11.1908731"><ele>208.0</ele><time>2026-04-03T15:55:09.352Z</time></trkpt><trkpt lat="43.391827" lon="11.1909503"><ele>208.0</ele><time>2026-04-03T15:55:10.36Z</time></trkpt><trkpt lat="43.3917973" lon="11.1910276"><ele>208.0</ele><time>2026-04-03T15:55:11.36Z</time></trkpt><trkpt lat="43.3917664" lon="11.1911056"><ele>208.0</ele><time>2026-04-03T15:55:12.361Z</time></trkpt><trkpt lat="43.3917348" lon="11.191181"><ele>208.0</ele><time>2026-04-03T15:55:13.354Z</time></trkpt><trkpt lat="43.3916992" lon="11.1912535"><ele>208.0</ele><time>2026-04-03T15:55:14.363Z</time></trkpt><trkpt lat="43.3916362" lon="11.1913989"><ele>208.0</ele><time>2026-04-03T15:55:16.365Z</time></trkpt><trkpt lat="43.3915774" lon="11.1915469"><ele>207.5</ele><time>2026-04-03T15:55:18.349Z</time></trkpt><trkpt lat="43.3915147" lon="11.1916914"><ele>207.0</ele><time>2026-04-03T15:55:20.351Z</time></trkpt><trkpt lat="43.3914562" lon="11.1918377"><ele>206.5</ele><time>2026-04-03T15:55:22.35Z</time></trkpt><trkpt lat="43.3913984" lon="11.1919802"><ele>206.0</ele><time>2026-04-03T15:55:24.346Z</time></trkpt><trkpt lat="43.3913359" lon="11.19212"><ele>206.0</ele><time>2026-04-03T15:55:26.364Z</time></trkpt><trkpt lat="43.3912774" lon="11.1922572"><ele>206.0</ele><time>2026-04-03T15:55:28.351Z</time></trkpt><trkpt lat="43.391217" lon="11.1923984"><ele>206.0</ele><time>2026-04-03T15:55:30.345Z</time></trkpt><trkpt lat="43.3911578" lon="11.1925413"><ele>206.0</ele><time>2026-04-03T15:55:32.346Z</time></trkpt><trkpt lat="43.3910986" lon="11.1926794"><ele>205.5</ele><time>2026-04-03T15:55:34.364Z</time></trkpt><trkpt lat="43.3910389" lon="11.1928204"><ele>205.0</ele><time>2026-04-03T15:55:36.347Z</time></trkpt><trkpt lat="43.3909813" lon="11.1929655"><ele>204.5</ele><time>2026-04-03T15:55:38.364Z</time></trkpt><trkpt lat="43.3909183" lon="11.1931073"><ele>204.0</ele><time>2026-04-03T15:55:40.372Z</time></trkpt><trkpt lat="43.3908526" lon="11.1932458"><ele>204.0</ele><time>2026-04-03T15:55:42.352Z</time></trkpt><trkpt lat="43.3907876" lon="11.1933873"><ele>204.0</ele><time>2026-04-03T15:55:44.35Z</time></trkpt><trkpt lat="43.3907285" lon="11.193521"><ele>204.0</ele><time>2026-04-03T15:55:46.345Z</time></trkpt><trkpt lat="43.3906682" lon="11.1936542"><ele>204.0</ele><time>2026-04-03T15:55:48.361Z</time></trkpt><trkpt lat="43.3906107" lon="11.1937787"><ele>204.0</ele><time>2026-04-03T15:55:50.358Z</time></trkpt><trkpt lat="43.3905617" lon="11.1939011"><ele>204.0</ele><time>2026-04-03T15:55:52.354Z</time></trkpt><trkpt lat="43.3905115" lon="11.1940183"><ele>204.0</ele><time>2026-04-03T15:55:54.352Z</time></trkpt><trkpt lat="43.3904626" lon="11.1941351"><ele>204.0</ele><time>2026-04-03T15:55:56.355Z</time></trkpt><trkpt lat="43.390412" lon="11.1942497"><ele>204.0</ele><time>2026-04-03T15:55:58.348Z</time></trkpt><trkpt lat="43.3903657" lon="11.1943608"><ele>203.79999999999998</ele><time>2026-04-03T15:56:00.353Z</time></trkpt><trkpt lat="43.3903153" lon="11.1944799"><ele>203.6</ele><time>2026-04-03T15:56:02.355Z</time></trkpt><trkpt lat="43.3902671" lon="11.1945929"><ele>203.4</ele><time>2026-04-03T15:56:04.344Z</time></trkpt><trkpt lat="43.3902161" lon="11.194706"><ele>203.2</ele><time>2026-04-03T15:56:06.347Z</time></trkpt><trkpt lat="43.3901591" lon="11.1948282"><ele>203.0</ele><time>2026-04-03T15:56:08.352Z</time></trkpt><trkpt lat="43.3900926" lon="11.1949526"><ele>203.0</ele><time>2026-04-03T15:56:10.353Z</time></trkpt><trkpt lat="43.3900236" lon="11.1950829"><ele>203.0</ele><time>2026-04-03T15:56:12.357Z</time></trkpt><trkpt lat="43.3899512" lon="11.1952185"><ele>203.0</ele><time>2026-04-03T15:56:14.358Z</time></trkpt><trkpt lat="43.3898769" lon="11.1953493"><ele>203.0</ele><time>2026-04-03T15:56:16.354Z</time></trkpt><trkpt lat="43.3897976" lon="11.1954849"><ele>203.0</ele><time>2026-04-03T15:56:18.346Z</time></trkpt><trkpt lat="43.3897569" lon="11.1955537"><ele>203.0</ele><time>2026-04-03T15:56:19.343Z</time></trkpt><trkpt lat="43.3897167" lon="11.1956258"><ele>203.0</ele><time>2026-04-03T15:56:20.361Z</time></trkpt><trkpt lat="43.3896773" lon="11.1956973"><ele>203.0</ele><time>2026-04-03T15:56:21.346Z</time></trkpt><trkpt lat="43.3896359" lon="11.1957706"><ele>203.0</ele><time>2026-04-03T15:56:22.379Z</time></trkpt><trkpt lat="43.3895966" lon="11.1958427"><ele>203.0</ele><time>2026-04-03T15:56:23.343Z</time></trkpt><trkpt lat="43.3895596" lon="11.1959191"><ele>203.0</ele><time>2026-04-03T15:56:24.349Z</time></trkpt><trkpt lat="43.3894938" lon="11.1960554"><ele>202.4</ele><time>2026-04-03T15:56:26.348Z</time></trkpt><trkpt lat="43.3894204" lon="11.196179"><ele>201.8</ele><time>2026-04-03T15:56:28.34Z</time></trkpt><trkpt lat="43.3893505" lon="11.1962988"><ele>201.2</ele><time>2026-04-03T15:56:30.368Z</time></trkpt><trkpt lat="43.3893033" lon="11.1964226"><ele>200.6</ele><time>2026-04-03T15:56:32.352Z</time></trkpt><trkpt lat="43.3892453" lon="11.1965138"><ele>200.0</ele><time>2026-04-03T15:56:34.349Z</time></trkpt><trkpt lat="43.3891792" lon="11.1965784"><ele>199.83333333333334</ele><time>2026-04-03T15:56:37.348Z</time></trkpt><trkpt lat="43.3891423" lon="11.1966664"><ele>199.66666666666669</ele><time>2026-04-03T15:56:40.351Z</time></trkpt><trkpt lat="43.3891364" lon="11.1967607"><ele>199.5</ele><time>2026-04-03T15:56:42.351Z</time></trkpt><trkpt lat="43.3890916" lon="11.1968488"><ele>199.33333333333331</ele><time>2026-04-03T15:56:44.376Z</time></trkpt><trkpt lat="43.389048" lon="11.1969428"><ele>199.16666666666666</ele><time>2026-04-03T15:56:46.345Z</time></trkpt><trkpt lat="43.3890269" lon="11.1970602"><ele>199.0</ele><time>2026-04-03T15:56:48.355Z</time></trkpt><trkpt lat="43.3890216" lon="11.1971772"><ele>198.99999999999997</ele><time>2026-04-03T15:56:50.356Z</time></trkpt><trkpt lat="43.3890227" lon="11.1972954"><ele>199.0</ele><time>2026-04-03T15:56:52.375Z</time></trkpt><trkpt lat="43.3890159" lon="11.1974043"><ele>199.0</ele><time>2026-04-03T15:56:54.34Z</time></trkpt><trkpt lat="43.3889989" lon="11.197502"><ele>199.0</ele><time>2026-04-03T15:56:56.345Z</time></trkpt><trkpt lat="43.3889786" lon="11.1976047"><ele>198.99999999999997</ele><time>2026-04-03T15:56:58.346Z</time></trkpt><trkpt lat="43.3889489" lon="11.1977028"><ele>199.0</ele><time>2026-04-03T15:57:00.359Z</time></trkpt><trkpt lat="43.3889109" lon="11.1978025"><ele>198.83333333333331</ele><time>2026-04-03T15:57:02.359Z</time></trkpt><trkpt lat="43.3888685" lon="11.1979035"><ele>198.66666666666666</ele><time>2026-04-03T15:57:04.346Z</time></trkpt><trkpt lat="43.3888227" lon="11.1980043"><ele>198.5</ele><time>2026-04-03T15:57:06.361Z</time></trkpt><trkpt lat="43.3887742" lon="11.1980982"><ele>198.33333333333331</ele><time>2026-04-03T15:57:08.358Z</time></trkpt><trkpt lat="43.3887254" lon="11.1982014"><ele>198.16666666666666</ele><time>2026-04-03T15:57:10.349Z</time></trkpt><trkpt lat="43.3886741" lon="11.1982946"><ele>198.0</ele><time>2026-04-03T15:57:12.353Z</time></trkpt><trkpt lat="43.3886108" lon="11.198385"><ele>198.33333333333334</ele><time>2026-04-03T15:57:14.368Z</time></trkpt><trkpt lat="43.3885428" lon="11.1984669"><ele>198.66666666666669</ele><time>2026-04-03T15:57:16.367Z</time></trkpt><trkpt lat="43.3884755" lon="11.1985345"><ele>199.0</ele><time>2026-04-03T15:57:18.351Z</time></trkpt><trkpt lat="43.3884061" lon="11.1985898"><ele>199.33333333333334</ele><time>2026-04-03T15:57:20.353Z</time></trkpt><trkpt lat="43.3883275" lon="11.1986107"><ele>199.66666666666669</ele><time>2026-04-03T15:57:22.352Z</time></trkpt><trkpt lat="43.3882442" lon="11.1986408"><ele>200.0</ele><time>2026-04-03T15:57:24.35Z</time></trkpt><trkpt lat="43.3881575" lon="11.198665"><ele>200.00000000000003</ele><time>2026-04-03T15:57:26.346Z</time></trkpt><trkpt lat="43.3880679" lon="11.1986957"><ele>200.0</ele><time>2026-04-03T15:57:28.336Z</time></trkpt><trkpt lat="43.387994" lon="11.1987671"><ele>200.0</ele><time>2026-04-03T15:57:30.361Z</time></trkpt><trkpt lat="43.3879353" lon="11.1988499"><ele>200.0</ele><time>2026-04-03T15:57:32.355Z</time></trkpt><trkpt lat="43.3878857" lon="11.1989289"><ele>200.00000000000003</ele><time>2026-04-03T15:57:34.353Z</time></trkpt><trkpt lat="43.3878418" lon="11.1990165"><ele>200.0</ele><time>2026-04-03T15:57:36.349Z</time></trkpt><trkpt lat="43.3877971" lon="11.1990978"><ele>200.16666666666669</ele><time>2026-04-03T15:57:38.351Z</time></trkpt><trkpt lat="43.3877545" lon="11.1991773"><ele>200.33333333333334</ele><time>2026-04-03T15:57:40.339Z</time></trkpt><trkpt lat="43.3877039" lon="11.1992569"><ele>200.5</ele><time>2026-04-03T15:57:42.365Z</time></trkpt><trkpt lat="43.3876518" lon="11.1993363"><ele>200.66666666666669</ele><time>2026-04-03T15:57:44.352Z</time></trkpt><trkpt lat="43.3875981" lon="11.1994308"><ele>200.83333333333334</ele><time>2026-04-03T15:57:46.352Z</time></trkpt><trkpt lat="43.3875416" lon="11.1995392"><ele>201.0</ele><time>2026-04-03T15:57:48.352Z</time></trkpt><trkpt lat="43.387485" lon="11.1996495"><ele>201.0</ele><time>2026-04-03T15:57:50.354Z</time></trkpt><trkpt lat="43.3874236" lon="11.1997681"><ele>201.0</ele><time>2026-04-03T15:57:52.346Z</time></trkpt><trkpt lat="43.3873569" lon="11.1998858"><ele>201.0</ele><time>2026-04-03T15:57:54.354Z</time></trkpt><trkpt lat="43.3872915" lon="11.2000052"><ele>201.0</ele><time>2026-04-03T15:57:56.365Z</time></trkpt><trkpt lat="43.3872247" lon="11.2001294"><ele>201.0</ele><time>2026-04-03T15:57:58.347Z</time></trkpt><trkpt lat="43.3871554" lon="11.2002588"><ele>200.25</ele><time>2026-04-03T15:58:00.354Z</time></trkpt><trkpt lat="43.3870863" lon="11.2003914"><ele>199.5</ele><time>2026-04-03T15:58:02.358Z</time></trkpt><trkpt lat="43.3870159" lon="11.2005326"><ele>198.75</ele><time>2026-04-03T15:58:04.353Z</time></trkpt><trkpt lat="43.3869441" lon="11.200672"><ele>198.0</ele><time>2026-04-03T15:58:06.351Z</time></trkpt><trkpt lat="43.3868717" lon="11.2008107"><ele>197.85714285714286</ele><time>2026-04-03T15:58:08.355Z</time></trkpt><trkpt lat="43.3868329" lon="11.2008804"><ele>197.7142857142857</ele><time>2026-04-03T15:58:09.359Z</time></trkpt><trkpt lat="43.3867959" lon="11.200952"><ele>197.57142857142856</ele><time>2026-04-03T15:58:10.353Z</time></trkpt><trkpt lat="43.3867566" lon="11.2010271"><ele>197.42857142857144</ele><time>2026-04-03T15:58:11.348Z</time></trkpt><trkpt lat="43.3867165" lon="11.2011028"><ele>197.28571428571428</ele><time>2026-04-03T15:58:12.367Z</time></trkpt><trkpt lat="43.3866764" lon="11.2011764"><ele>197.14285714285714</ele><time>2026-04-03T15:58:13.349Z</time></trkpt><trkpt lat="43.3866376" lon="11.2012544"><ele>197.0</ele><time>2026-04-03T15:58:14.347Z</time></trkpt><trkpt lat="43.386596" lon="11.2013341"><ele>197.00000000000003</ele><time>2026-04-03T15:58:15.355Z</time></trkpt><trkpt lat="43.3865525" lon="11.201412"><ele>197.0</ele><time>2026-04-03T15:58:16.345Z</time></trkpt><trkpt lat="43.386512" lon="11.2014889"><ele>197.0</ele><time>2026-04-03T15:58:17.365Z</time></trkpt><trkpt lat="43.3864742" lon="11.201563"><ele>197.0</ele><time>2026-04-03T15:58:18.345Z</time></trkpt><trkpt lat="43.386438" lon="11.2016342"><ele>197.00000000000003</ele><time>2026-04-03T15:58:19.368Z</time></trkpt><trkpt lat="43.3863691" lon="11.2017611"><ele>197.0</ele><time>2026-04-03T15:58:21.351Z</time></trkpt><trkpt lat="43.3863067" lon="11.2018844"><ele>196.6</ele><time>2026-04-03T15:58:23.344Z</time></trkpt><trkpt lat="43.3862508" lon="11.2019994"><ele>196.2</ele><time>2026-04-03T15:58:25.351Z</time></trkpt><trkpt lat="43.3862006" lon="11.2021126"><ele>195.8</ele><time>2026-04-03T15:58:27.361Z</time></trkpt><trkpt lat="43.3861461" lon="11.2022092"><ele>195.4</ele><time>2026-04-03T15:58:29.363Z</time></trkpt><trkpt lat="43.3860881" lon="11.202306"><ele>195.0</ele><time>2026-04-03T15:58:31.34Z</time></trkpt><trkpt lat="43.3860258" lon="11.2024152"><ele>195.0</ele><time>2026-04-03T15:58:33.353Z</time></trkpt><trkpt lat="43.3859669" lon="11.2025329"><ele>195.0</ele><time>2026-04-03T15:58:35.359Z</time></trkpt><trkpt lat="43.3859075" lon="11.202651"><ele>195.0</ele><time>2026-04-03T15:58:37.357Z</time></trkpt><trkpt lat="43.3858454" lon="11.2027699"><ele>195.0</ele><time>2026-04-03T15:58:39.35Z</time></trkpt><trkpt lat="43.3857809" lon="11.2028912"><ele>195.0</ele><time>2026-04-03T15:58:41.352Z</time></trkpt><trkpt lat="43.3857144" lon="11.2030119"><ele>195.0</ele><time>2026-04-03T15:58:43.347Z</time></trkpt><trkpt lat="43.3856501" lon="11.2031331"><ele>195.0</ele><time>2026-04-03T15:58:45.361Z</time></trkpt><trkpt lat="43.3855856" lon="11.2032558"><ele>195.0</ele><time>2026-04-03T15:58:47.352Z</time></trkpt><trkpt lat="43.385517" lon="11.2033747"><ele>195.0</ele><time>2026-04-03T15:58:49.374Z</time></trkpt><trkpt lat="43.3854564" lon="11.2035043"><ele>195.0</ele><time>2026-04-03T15:58:51.358Z</time></trkpt><trkpt lat="43.3853925" lon="11.2036258"><ele>195.0</ele><time>2026-04-03T15:58:53.353Z</time></trkpt><trkpt lat="43.3853223" lon="11.2037533"><ele>195.0</ele><time>2026-04-03T15:58:55.346Z</time></trkpt><trkpt lat="43.3852549" lon="11.2038823"><ele>195.0</ele><time>2026-04-03T15:58:57.352Z</time></trkpt><trkpt lat="43.3851887" lon="11.2040077"><ele>195.0</ele><time>2026-04-03T15:58:59.352Z</time></trkpt><trkpt lat="43.3851214" lon="11.2041329"><ele>194.8</ele><time>2026-04-03T15:59:01.356Z</time></trkpt><trkpt lat="43.3850525" lon="11.2042593"><ele>194.6</ele><time>2026-04-03T15:59:03.355Z</time></trkpt><trkpt lat="43.3849884" lon="11.2043835"><ele>194.39999999999998</ele><time>2026-04-03T15:59:05.36Z</time></trkpt><trkpt lat="43.3849247" lon="11.2045108"><ele>194.2</ele><time>2026-04-03T15:59:07.347Z</time></trkpt><trkpt lat="43.3848627" lon="11.2046381"><ele>194.0</ele><time>2026-04-03T15:59:09.346Z</time></trkpt><trkpt lat="43.3847959" lon="11.2047644"><ele>193.79999999999998</ele><time>2026-04-03T15:59:11.355Z</time></trkpt><trkpt lat="43.3847296" lon="11.2048908"><ele>193.6</ele><time>2026-04-03T15:59:13.363Z</time></trkpt><trkpt lat="43.3846654" lon="11.2050151"><ele>193.4</ele><time>2026-04-03T15:59:15.361Z</time></trkpt><trkpt lat="43.3846051" lon="11.2051439"><ele>193.2</ele><time>2026-04-03T15:59:17.347Z</time></trkpt><trkpt lat="43.3845382" lon="11.2052642"><ele>193.0</ele><time>2026-04-03T15:59:19.353Z</time></trkpt><trkpt lat="43.3844644" lon="11.205381"><ele>193.2</ele><time>2026-04-03T15:59:21.357Z</time></trkpt><trkpt lat="43.3843984" lon="11.2055085"><ele>193.4</ele><time>2026-04-03T15:59:23.369Z</time></trkpt><trkpt lat="43.3843362" lon="11.2056297"><ele>193.6</ele><time>2026-04-03T15:59:25.357Z</time></trkpt><trkpt lat="43.3842762" lon="11.2057547"><ele>193.79999999999998</ele><time>2026-04-03T15:59:27.353Z</time></trkpt><trkpt lat="43.3842203" lon="11.2058852"><ele>194.0</ele><time>2026-04-03T15:59:29.36Z</time></trkpt><trkpt lat="43.3841889" lon="11.2060386"><ele>194.0</ele><time>2026-04-03T15:59:31.341Z</time></trkpt><trkpt lat="43.3841654" lon="11.2061945"><ele>194.0</ele><time>2026-04-03T15:59:33.335Z</time></trkpt><trkpt lat="43.3841489" lon="11.2063506"><ele>194.0</ele><time>2026-04-03T15:59:35.342Z</time></trkpt><trkpt lat="43.3841351" lon="11.2065079"><ele>194.0</ele><time>2026-04-03T15:59:37.347Z</time></trkpt><trkpt lat="43.3841135" lon="11.2066548"><ele>193.79999999999998</ele><time>2026-04-03T15:59:39.344Z</time></trkpt><trkpt lat="43.3840982" lon="11.2067947"><ele>193.6</ele><time>2026-04-03T15:59:41.368Z</time></trkpt><trkpt lat="43.3840842" lon="11.2069511"><ele>193.4</ele><time>2026-04-03T15:59:43.352Z</time></trkpt><trkpt lat="43.3840653" lon="11.2070984"><ele>193.2</ele><time>2026-04-03T15:59:45.354Z</time></trkpt><trkpt lat="43.3840489" lon="11.2072479"><ele>193.0</ele><time>2026-04-03T15:59:47.357Z</time></trkpt><trkpt lat="43.3840264" lon="11.2073895"><ele>193.0</ele><time>2026-04-03T15:59:49.354Z</time></trkpt><trkpt lat="43.384005" lon="11.2075288"><ele>193.0</ele><time>2026-04-03T15:59:51.34Z</time></trkpt><trkpt lat="43.3839855" lon="11.2076699"><ele>193.0</ele><time>2026-04-03T15:59:53.344Z</time></trkpt><trkpt lat="43.3839641" lon="11.2078139"><ele>193.0</ele><time>2026-04-03T15:59:55.358Z</time></trkpt><trkpt lat="43.3839412" lon="11.2079533"><ele>193.0</ele><time>2026-04-03T15:59:57.347Z</time></trkpt><trkpt lat="43.3839205" lon="11.2080972"><ele>192.8</ele><time>2026-04-03T15:59:59.348Z</time></trkpt><trkpt lat="43.3839002" lon="11.2082349"><ele>192.60000000000002</ele><time>2026-04-03T16:00:01.37Z</time></trkpt><trkpt lat="43.3838909" lon="11.2083634"><ele>192.39999999999998</ele><time>2026-04-03T16:00:03.356Z</time></trkpt><trkpt lat="43.3838734" lon="11.2084877"><ele>192.2</ele><time>2026-04-03T16:00:05.356Z</time></trkpt><trkpt lat="43.3838569" lon="11.208617"><ele>192.0</ele><time>2026-04-03T16:00:07.346Z</time></trkpt><trkpt lat="43.3838431" lon="11.2087526"><ele>192.39999999999998</ele><time>2026-04-03T16:00:09.355Z</time></trkpt><trkpt lat="43.383836" lon="11.2088857"><ele>192.79999999999998</ele><time>2026-04-03T16:00:11.349Z</time></trkpt><trkpt lat="43.3838276" lon="11.2090295"><ele>193.2</ele><time>2026-04-03T16:00:13.38Z</time></trkpt><trkpt lat="43.3838084" lon="11.2091702"><ele>193.6</ele><time>2026-04-03T16:00:15.36Z</time></trkpt><trkpt lat="43.3837877" lon="11.2093091"><ele>194.0</ele><time>2026-04-03T16:00:17.337Z</time></trkpt><trkpt lat="43.3837669" lon="11.2094388"><ele>194.0</ele><time>2026-04-03T16:00:19.343Z</time></trkpt><trkpt lat="43.38375" lon="11.2095646"><ele>194.0</ele><time>2026-04-03T16:00:21.339Z</time></trkpt><trkpt lat="43.3837222" lon="11.2096882"><ele>194.0</ele><time>2026-04-03T16:00:23.361Z</time></trkpt><trkpt lat="43.3837041" lon="11.2098084"><ele>194.0</ele><time>2026-04-03T16:00:25.348Z</time></trkpt><trkpt lat="43.383695" lon="11.2099353"><ele>194.0</ele><time>2026-04-03T16:00:27.341Z</time></trkpt><trkpt lat="43.3836742" lon="11.2100655"><ele>194.0</ele><time>2026-04-03T16:00:29.354Z</time></trkpt><trkpt lat="43.3836551" lon="11.2101995"><ele>194.0</ele><time>2026-04-03T16:00:31.351Z</time></trkpt><trkpt lat="43.3836403" lon="11.2103285"><ele>194.0</ele><time>2026-04-03T16:00:33.359Z</time></trkpt><trkpt lat="43.3836186" lon="11.21046"><ele>194.0</ele><time>2026-04-03T16:00:35.345Z</time></trkpt><trkpt lat="43.3836005" lon="11.2105906"><ele>194.0</ele><time>2026-04-03T16:00:37.352Z</time></trkpt><trkpt lat="43.3835875" lon="11.2107235"><ele>194.2</ele><time>2026-04-03T16:00:39.35Z</time></trkpt><trkpt lat="43.3835705" lon="11.2108631"><ele>194.39999999999998</ele><time>2026-04-03T16:00:41.351Z</time></trkpt><trkpt lat="43.383551" lon="11.2110002"><ele>194.6</ele><time>2026-04-03T16:00:43.356Z</time></trkpt><trkpt lat="43.3835294" lon="11.2111314"><ele>194.8</ele><time>2026-04-03T16:00:45.348Z</time></trkpt><trkpt lat="43.3835113" lon="11.2112626"><ele>195.0</ele><time>2026-04-03T16:00:47.364Z</time></trkpt><trkpt lat="43.3835024" lon="11.2113919"><ele>195.0</ele><time>2026-04-03T16:00:49.347Z</time></trkpt><trkpt lat="43.3834823" lon="11.2115289"><ele>195.0</ele><time>2026-04-03T16:00:51.357Z</time></trkpt><trkpt lat="43.3834757" lon="11.2116755"><ele>195.0</ele><time>2026-04-03T16:00:53.349Z</time></trkpt><trkpt lat="43.3834673" lon="11.2118079"><ele>195.0</ele><time>2026-04-03T16:00:55.361Z</time></trkpt><trkpt lat="43.3834552" lon="11.2119388"><ele>195.0</ele><time>2026-04-03T16:00:57.347Z</time></trkpt><trkpt lat="43.3834522" lon="11.2120612"><ele>195.0</ele><time>2026-04-03T16:00:59.356Z</time></trkpt><trkpt lat="43.3834454" lon="11.2121507"><ele>195.0</ele><time>2026-04-03T16:01:01.352Z</time></trkpt><trkpt lat="43.3834344" lon="11.2122446"><ele>195.0</ele><time>2026-04-03T16:01:03.349Z</time></trkpt><trkpt lat="43.3834201" lon="11.2123471"><ele>195.0</ele><time>2026-04-03T16:01:05.355Z</time></trkpt><trkpt lat="43.3834274" lon="11.2124656"><ele>195.0</ele><time>2026-04-03T16:01:07.35Z</time></trkpt><trkpt lat="43.383429" lon="11.2125834"><ele>195.0</ele><time>2026-04-03T16:01:09.341Z</time></trkpt><trkpt lat="43.383431" lon="11.212708"><ele>195.42857142857142</ele><time>2026-04-03T16:01:11.344Z</time></trkpt><trkpt lat="43.3834532" lon="11.2128058"><ele>195.85714285714283</ele><time>2026-04-03T16:01:13.362Z</time></trkpt><trkpt lat="43.3834863" lon="11.2129101"><ele>196.28571428571428</ele><time>2026-04-03T16:01:16.353Z</time></trkpt><trkpt lat="43.3835446" lon="11.2129485"><ele>196.71428571428572</ele><time>2026-04-03T16:01:19.356Z</time></trkpt><trkpt lat="43.3836061" lon="11.2129884"><ele>197.14285714285714</ele><time>2026-04-03T16:01:22.356Z</time></trkpt><trkpt lat="43.3836762" lon="11.2130132"><ele>197.57142857142858</ele><time>2026-04-03T16:01:25.339Z</time></trkpt><trkpt lat="43.3837393" lon="11.2129828"><ele>198.0</ele><time>2026-04-03T16:01:27.352Z</time></trkpt><trkpt lat="43.3838359" lon="11.2129047"><ele>198.2</ele><time>2026-04-03T16:01:29.368Z</time></trkpt><trkpt lat="43.3839175" lon="11.2128285"><ele>198.4</ele><time>2026-04-03T16:01:31.348Z</time></trkpt><trkpt lat="43.3839947" lon="11.2127676"><ele>198.6</ele><time>2026-04-03T16:01:33.338Z</time></trkpt><trkpt lat="43.3840798" lon="11.2127112"><ele>198.79999999999998</ele><time>2026-04-03T16:01:35.34Z</time></trkpt><trkpt lat="43.3841671" lon="11.2126512"><ele>199.0</ele><time>2026-04-03T16:01:37.347Z</time></trkpt><trkpt lat="43.3842444" lon="11.2125983"><ele>198.99999999999997</ele><time>2026-04-03T16:01:39.361Z</time></trkpt><trkpt lat="43.3843256" lon="11.2125349"><ele>199.0</ele><time>2026-04-03T16:01:41.361Z</time></trkpt><trkpt lat="43.3843947" lon="11.2124551"><ele>199.0</ele><time>2026-04-03T16:01:43.34Z</time></trkpt><trkpt lat="43.3844701" lon="11.2124119"><ele>199.0</ele><time>2026-04-03T16:01:46.346Z</time></trkpt><trkpt lat="43.3845319" lon="11.2123674"><ele>198.99999999999997</ele><time>2026-04-03T16:01:48.363Z</time></trkpt><trkpt lat="43.3845981" lon="11.2123198"><ele>199.0</ele><time>2026-04-03T16:01:50.34Z</time></trkpt><trkpt lat="43.3846817" lon="11.2122749"><ele>198.49999999999997</ele><time>2026-04-03T16:01:52.348Z</time></trkpt><trkpt lat="43.3847723" lon="11.212236"><ele>198.0</ele><time>2026-04-03T16:01:54.33Z</time></trkpt><trkpt lat="43.3848473" lon="11.2121856"><ele>197.5</ele><time>2026-04-03T16:01:56.356Z</time></trkpt><trkpt lat="43.3849288" lon="11.2121478"><ele>197.0</ele><time>2026-04-03T16:01:58.35Z</time></trkpt><trkpt lat="43.3850073" lon="11.2121068"><ele>196.49999999999997</ele><time>2026-04-03T16:02:00.355Z</time></trkpt><trkpt lat="43.3850943" lon="11.2120789"><ele>196.0</ele><time>2026-04-03T16:02:02.351Z</time></trkpt><trkpt lat="43.3851855" lon="11.2120669"><ele>196.0</ele><time>2026-04-03T16:02:04.361Z</time></trkpt><trkpt lat="43.3852816" lon="11.2120609"><ele>196.0</ele><time>2026-04-03T16:02:06.362Z</time></trkpt><trkpt lat="43.3853827" lon="11.2120514"><ele>196.0</ele><time>2026-04-03T16:02:08.362Z</time></trkpt><trkpt lat="43.3854798" lon="11.2120305"><ele>196.0</ele><time>2026-04-03T16:02:10.358Z</time></trkpt><trkpt lat="43.3855755" lon="11.2119953"><ele>196.0</ele><time>2026-04-03T16:02:12.348Z</time></trkpt><trkpt lat="43.3856649" lon="11.2119557"><ele>195.99999999999997</ele><time>2026-04-03T16:02:14.353Z</time></trkpt><trkpt lat="43.3857532" lon="11.2119167"><ele>196.0</ele><time>2026-04-03T16:02:16.348Z</time></trkpt><trkpt lat="43.3858413" lon="11.2118863"><ele>196.0</ele><time>2026-04-03T16:02:18.358Z</time></trkpt><trkpt lat="43.3859255" lon="11.2118654"><ele>196.0</ele><time>2026-04-03T16:02:20.349Z</time></trkpt><trkpt lat="43.3860081" lon="11.2118443"><ele>195.99999999999997</ele><time>2026-04-03T16:02:22.358Z</time></trkpt><trkpt lat="43.3860885" lon="11.211821"><ele>196.0</ele><time>2026-04-03T16:02:24.348Z</time></trkpt><trkpt lat="43.3861668" lon="11.2117982"><ele>195.99999999999997</ele><time>2026-04-03T16:02:26.36Z</time></trkpt><trkpt lat="43.3862504" lon="11.2117632"><ele>196.0</ele><time>2026-04-03T16:02:28.354Z</time></trkpt><trkpt lat="43.3863287" lon="11.211724"><ele>196.0</ele><time>2026-04-03T16:02:30.349Z</time></trkpt><trkpt lat="43.3864049" lon="11.2116553"><ele>196.0</ele><time>2026-04-03T16:02:32.349Z</time></trkpt><trkpt lat="43.386473" lon="11.211576"><ele>195.99999999999997</ele><time>2026-04-03T16:02:34.361Z</time></trkpt><trkpt lat="43.3865449" lon="11.2115303"><ele>196.0</ele><time>2026-04-03T16:02:36.352Z</time></trkpt><trkpt lat="43.3866294" lon="11.2115179"><ele>197.0</ele><time>2026-04-03T16:02:38.352Z</time></trkpt><trkpt lat="43.3867223" lon="11.2115352"><ele>198.0</ele><time>2026-04-03T16:02:40.353Z</time></trkpt><trkpt lat="43.3868124" lon="11.211564"><ele>199.0</ele><time>2026-04-03T16:02:42.347Z</time></trkpt><trkpt lat="43.3869073" lon="11.211582"><ele>200.0</ele><time>2026-04-03T16:02:44.348Z</time></trkpt><trkpt lat="43.3870078" lon="11.2115949"><ele>201.0</ele><time>2026-04-03T16:02:46.354Z</time></trkpt><trkpt lat="43.3871113" lon="11.2116121"><ele>200.60000000000002</ele><time>2026-04-03T16:02:48.352Z</time></trkpt><trkpt lat="43.3872074" lon="11.2116368"><ele>200.2</ele><time>2026-04-03T16:02:50.335Z</time></trkpt><trkpt lat="43.3873033" lon="11.2116821"><ele>199.8</ele><time>2026-04-03T16:02:52.342Z</time></trkpt><trkpt lat="43.387401" lon="11.211727"><ele>199.39999999999998</ele><time>2026-04-03T16:02:54.336Z</time></trkpt><trkpt lat="43.3874877" lon="11.211783"><ele>199.0</ele><time>2026-04-03T16:02:56.342Z</time></trkpt><trkpt lat="43.3875684" lon="11.2118425"><ele>198.99999999999997</ele><time>2026-04-03T16:02:58.363Z</time></trkpt><trkpt lat="43.3876401" lon="11.2119071"><ele>199.0</ele><time>2026-04-03T16:03:00.343Z</time></trkpt><trkpt lat="43.387713" lon="11.2119769"><ele>199.0</ele><time>2026-04-03T16:03:02.36Z</time></trkpt><trkpt lat="43.3877751" lon="11.2120391"><ele>199.0</ele><time>2026-04-03T16:03:04.351Z</time></trkpt><trkpt lat="43.3878562" lon="11.2121025"><ele>198.99999999999997</ele><time>2026-04-03T16:03:06.365Z</time></trkpt><trkpt lat="43.3879284" lon="11.2121719"><ele>199.0</ele><time>2026-04-03T16:03:08.352Z</time></trkpt><trkpt lat="43.3879936" lon="11.2122393"><ele>199.16666666666666</ele><time>2026-04-03T16:03:10.35Z</time></trkpt><trkpt lat="43.3880667" lon="11.2122989"><ele>199.33333333333331</ele><time>2026-04-03T16:03:12.345Z</time></trkpt><trkpt lat="43.3881585" lon="11.212356"><ele>199.5</ele><time>2026-04-03T16:03:14.35Z</time></trkpt><trkpt lat="43.3882363" lon="11.2124267"><ele>199.66666666666669</ele><time>2026-04-03T16:03:16.347Z</time></trkpt><trkpt lat="43.3882982" lon="11.2125003"><ele>199.83333333333334</ele><time>2026-04-03T16:03:18.355Z</time></trkpt><trkpt lat="43.3883616" lon="11.2125635"><ele>200.0</ele><time>2026-04-03T16:03:20.336Z</time></trkpt><trkpt lat="43.3884158" lon="11.2126299"><ele>200.00000000000003</ele><time>2026-04-03T16:03:22.339Z</time></trkpt><trkpt lat="43.3884677" lon="11.212691"><ele>200.0</ele><time>2026-04-03T16:03:24.346Z</time></trkpt><trkpt lat="43.3885209" lon="11.2127616"><ele>200.0</ele><time>2026-04-03T16:03:26.354Z</time></trkpt><trkpt lat="43.3885744" lon="11.2128273"><ele>200.0</ele><time>2026-04-03T16:03:28.355Z</time></trkpt><trkpt lat="43.3886327" lon="11.2128809"><ele>200.00000000000003</ele><time>2026-04-03T16:03:30.362Z</time></trkpt><trkpt lat="43.388695" lon="11.2129413"><ele>200.0</ele><time>2026-04-03T16:03:32.36Z</time></trkpt><trkpt lat="43.3887711" lon="11.2130187"><ele>200.00000000000003</ele><time>2026-04-03T16:03:34.353Z</time></trkpt><trkpt lat="43.3888253" lon="11.2130868"><ele>200.0</ele><time>2026-04-03T16:03:36.339Z</time></trkpt><trkpt lat="43.3888677" lon="11.2131571"><ele>200.0</ele><time>2026-04-03T16:03:38.355Z</time></trkpt><trkpt lat="43.3888975" lon="11.2132412"><ele>200.0</ele><time>2026-04-03T16:03:40.355Z</time></trkpt><trkpt lat="43.3889338" lon="11.2133596"><ele>200.00000000000003</ele><time>2026-04-03T16:03:42.361Z</time></trkpt><trkpt lat="43.3889693" lon="11.2134796"><ele>200.0</ele><time>2026-04-03T16:03:44.348Z</time></trkpt><trkpt lat="43.3890045" lon="11.2136135"><ele>200.2</ele><time>2026-04-03T16:03:46.343Z</time></trkpt><trkpt lat="43.3890282" lon="11.213745"><ele>200.4</ele><time>2026-04-03T16:03:48.358Z</time></trkpt><trkpt lat="43.3890517" lon="11.2138665"><ele>200.60000000000002</ele><time>2026-04-03T16:03:50.367Z</time></trkpt><trkpt lat="43.3890755" lon="11.2139863"><ele>200.8</ele><time>2026-04-03T16:03:52.348Z</time></trkpt><trkpt lat="43.3890909" lon="11.2141006"><ele>201.0</ele><time>2026-04-03T16:03:54.357Z</time></trkpt><trkpt lat="43.3891039" lon="11.2142181"><ele>201.0</ele><time>2026-04-03T16:03:56.349Z</time></trkpt><trkpt lat="43.389128" lon="11.21433"><ele>201.0</ele><time>2026-04-03T16:03:58.347Z</time></trkpt><trkpt lat="43.3891615" lon="11.2144315"><ele>201.0</ele><time>2026-04-03T16:04:00.336Z</time></trkpt><trkpt lat="43.3892004" lon="11.2145156"><ele>201.0</ele><time>2026-04-03T16:04:02.346Z</time></trkpt><trkpt lat="43.3892515" lon="11.2145917"><ele>201.0</ele><time>2026-04-03T16:04:04.352Z</time></trkpt><trkpt lat="43.389301" lon="11.2146566"><ele>201.0</ele><time>2026-04-03T16:04:06.347Z</time></trkpt><trkpt lat="43.3893588" lon="11.2147249"><ele>201.0</ele><time>2026-04-03T16:04:08.354Z</time></trkpt><trkpt lat="43.3894325" lon="11.2147904"><ele>201.0</ele><time>2026-04-03T16:04:10.353Z</time></trkpt><trkpt lat="43.3895099" lon="11.214847"><ele>201.0</ele><time>2026-04-03T16:04:12.339Z</time></trkpt><trkpt lat="43.3895765" lon="11.2149161"><ele>201.0</ele><time>2026-04-03T16:04:14.372Z</time></trkpt><trkpt lat="43.3896324" lon="11.2149989"><ele>201.0</ele><time>2026-04-03T16:04:16.356Z</time></trkpt><trkpt lat="43.3896853" lon="11.2150738"><ele>201.0</ele><time>2026-04-03T16:04:18.349Z</time></trkpt><trkpt lat="43.3897309" lon="11.2151457"><ele>200.57142857142856</ele><time>2026-04-03T16:04:20.353Z</time></trkpt><trkpt lat="43.3897774" lon="11.2152143"><ele>200.14285714285717</ele><time>2026-04-03T16:04:22.36Z</time></trkpt><trkpt lat="43.3898234" lon="11.2152841"><ele>199.71428571428572</ele><time>2026-04-03T16:04:24.349Z</time></trkpt><trkpt lat="43.3898708" lon="11.2153531"><ele>199.28571428571428</ele><time>2026-04-03T16:04:26.364Z</time></trkpt><trkpt lat="43.3899216" lon="11.2154299"><ele>198.85714285714283</ele><time>2026-04-03T16:04:28.36Z</time></trkpt><trkpt lat="43.3899715" lon="11.215505"><ele>198.42857142857144</ele><time>2026-04-03T16:04:30.348Z</time></trkpt><trkpt lat="43.3900139" lon="11.2155855"><ele>198.0</ele><time>2026-04-03T16:04:32.35Z</time></trkpt><trkpt lat="43.3900613" lon="11.2156562"><ele>199.33333333333334</ele><time>2026-04-03T16:04:34.345Z</time></trkpt><trkpt lat="43.3901089" lon="11.2157283"><ele>200.66666666666669</ele><time>2026-04-03T16:04:36.361Z</time></trkpt><trkpt lat="43.3901595" lon="11.2157986"><ele>202.0</ele><time>2026-04-03T16:04:38.35Z</time></trkpt><trkpt lat="43.3902304" lon="11.2158676"><ele>203.33333333333334</ele><time>2026-04-03T16:04:40.332Z</time></trkpt><trkpt lat="43.3903139" lon="11.2159256"><ele>204.66666666666669</ele><time>2026-04-03T16:04:42.355Z</time></trkpt><trkpt lat="43.3904071" lon="11.2159754"><ele>206.0</ele><time>2026-04-03T16:04:44.358Z</time></trkpt><trkpt lat="43.3905059" lon="11.2160178"><ele>204.20000000000002</ele><time>2026-04-03T16:04:46.37Z</time></trkpt><trkpt lat="43.3905914" lon="11.2160685"><ele>202.4</ele><time>2026-04-03T16:04:48.342Z</time></trkpt><trkpt lat="43.3906741" lon="11.2161349"><ele>200.6</ele><time>2026-04-03T16:04:50.341Z</time></trkpt><trkpt lat="43.3907561" lon="11.2162047"><ele>198.8</ele><time>2026-04-03T16:04:52.337Z</time></trkpt><trkpt lat="43.3908335" lon="11.216279"><ele>197.0</ele><time>2026-04-03T16:04:54.352Z</time></trkpt><trkpt lat="43.3908952" lon="11.2163826"><ele>197.00000000000003</ele><time>2026-04-03T16:04:56.373Z</time></trkpt><trkpt lat="43.3909395" lon="11.2164715"><ele>197.0</ele><time>2026-04-03T16:04:58.341Z</time></trkpt><trkpt lat="43.3909972" lon="11.2165639"><ele>197.0</ele><time>2026-04-03T16:05:00.363Z</time></trkpt><trkpt lat="43.3910594" lon="11.2166459"><ele>197.0</ele><time>2026-04-03T16:05:02.35Z</time></trkpt><trkpt lat="43.3911256" lon="11.2167089"><ele>197.00000000000003</ele><time>2026-04-03T16:05:04.348Z</time></trkpt><trkpt lat="43.3911921" lon="11.2167812"><ele>197.0</ele><time>2026-04-03T16:05:06.348Z</time></trkpt><trkpt lat="43.39126" lon="11.2168421"><ele>196.85714285714286</ele><time>2026-04-03T16:05:08.356Z</time></trkpt><trkpt lat="43.3913289" lon="11.2168932"><ele>196.71428571428572</ele><time>2026-04-03T16:05:10.344Z</time></trkpt><trkpt lat="43.3914052" lon="11.216947"><ele>196.57142857142856</ele><time>2026-04-03T16:05:12.345Z</time></trkpt><trkpt lat="43.3914659" lon="11.217009"><ele>196.42857142857144</ele><time>2026-04-03T16:05:14.345Z</time></trkpt><trkpt lat="43.3915197" lon="11.2170565"><ele>196.28571428571428</ele><time>2026-04-03T16:05:16.347Z</time></trkpt><trkpt lat="43.3915809" lon="11.217113"><ele>196.14285714285714</ele><time>2026-04-03T16:05:19.362Z</time></trkpt><trkpt lat="43.3916311" lon="11.217171"><ele>196.0</ele><time>2026-04-03T16:05:22.364Z</time></trkpt><trkpt lat="43.3916888" lon="11.2172384"><ele>195.99999999999997</ele><time>2026-04-03T16:05:25.344Z</time></trkpt><trkpt lat="43.3917462" lon="11.217314"><ele>196.0</ele><time>2026-04-03T16:05:28.33Z</time></trkpt><trkpt lat="43.3918178" lon="11.2174059"><ele>196.0</ele><time>2026-04-03T16:05:31.363Z</time></trkpt><trkpt lat="43.3918788" lon="11.2174766"><ele>196.0</ele><time>2026-04-03T16:05:33.341Z</time></trkpt><trkpt lat="43.391966" lon="11.2175618"><ele>195.99999999999997</ele><time>2026-04-03T16:05:35.334Z</time></trkpt><trkpt lat="43.3920224" lon="11.2176085"><ele>196.0</ele><time>2026-04-03T16:05:36.338Z</time></trkpt><trkpt lat="43.3921097" lon="11.2176932"><ele>196.33333333333331</ele><time>2026-04-03T16:05:38.332Z</time></trkpt><trkpt lat="43.3921784" lon="11.2177775"><ele>196.66666666666666</ele><time>2026-04-03T16:05:40.347Z</time></trkpt><trkpt lat="43.3922356" lon="11.2178577"><ele>197.0</ele><time>2026-04-03T16:05:42.347Z</time></trkpt><trkpt lat="43.3922877" lon="11.2179423"><ele>197.33333333333331</ele><time>2026-04-03T16:05:44.355Z</time></trkpt><trkpt lat="43.392349" lon="11.2180206"><ele>197.66666666666666</ele><time>2026-04-03T16:05:46.368Z</time></trkpt><trkpt lat="43.3924098" lon="11.2180932"><ele>198.0</ele><time>2026-04-03T16:05:48.339Z</time></trkpt><trkpt lat="43.3924573" lon="11.2181607"><ele>199.33333333333334</ele><time>2026-04-03T16:05:50.342Z</time></trkpt><trkpt lat="43.3925157" lon="11.2182494"><ele>200.66666666666669</ele><time>2026-04-03T16:05:53.346Z</time></trkpt><trkpt lat="43.3925662" lon="11.2183397"><ele>202.0</ele><time>2026-04-03T16:05:56.339Z</time></trkpt><trkpt lat="43.3926194" lon="11.2184326"><ele>203.33333333333334</ele><time>2026-04-03T16:05:59.347Z</time></trkpt><trkpt lat="43.3926503" lon="11.2185354"><ele>204.66666666666669</ele><time>2026-04-03T16:06:01.352Z</time></trkpt><trkpt lat="43.392653" lon="11.2186593"><ele>206.0</ele><time>2026-04-03T16:06:04.355Z</time></trkpt><trkpt lat="43.392652" lon="11.2187468"><ele>206.00000000000003</ele><time>2026-04-03T16:06:06.352Z</time></trkpt><trkpt lat="43.3926454" lon="11.2188699"><ele>206.0</ele><time>2026-04-03T16:06:09.351Z</time></trkpt><trkpt lat="43.392651" lon="11.2189895"><ele>206.0</ele><time>2026-04-03T16:06:12.35Z</time></trkpt><trkpt lat="43.3926347" lon="11.2190775"><ele>206.0</ele><time>2026-04-03T16:06:15.355Z</time></trkpt><trkpt lat="43.392637" lon="11.2191697"><ele>206.00000000000003</ele><time>2026-04-03T16:06:18.356Z</time></trkpt><trkpt lat="43.3926744" lon="11.2192499"><ele>206.0</ele><time>2026-04-03T16:06:21.354Z</time></trkpt><trkpt lat="43.3927366" lon="11.2193203"><ele>206.4</ele><time>2026-04-03T16:06:23.344Z</time></trkpt><trkpt lat="43.3928268" lon="11.2194109"><ele>206.8</ele><time>2026-04-03T16:06:25.347Z</time></trkpt><trkpt lat="43.3928851" lon="11.219444"><ele>207.20000000000002</ele><time>2026-04-03T16:06:26.353Z</time></trkpt><trkpt lat="43.3929457" lon="11.2194703"><ele>207.60000000000002</ele><time>2026-04-03T16:06:27.34Z</time></trkpt><trkpt lat="43.3930646" lon="11.2195111"><ele>208.0</ele><time>2026-04-03T16:06:29.35Z</time></trkpt><trkpt lat="43.3931728" lon="11.2195562"><ele>207.33333333333331</ele><time>2026-04-03T16:06:31.348Z</time></trkpt><trkpt lat="43.3932847" lon="11.2196008"><ele>206.66666666666666</ele><time>2026-04-03T16:06:33.355Z</time></trkpt><trkpt lat="43.3933468" lon="11.2196184"><ele>206.0</ele><time>2026-04-03T16:06:34.344Z</time></trkpt><trkpt lat="43.3934125" lon="11.2196405"><ele>205.33333333333331</ele><time>2026-04-03T16:06:35.334Z</time></trkpt><trkpt lat="43.3934813" lon="11.2196581"><ele>204.66666666666666</ele><time>2026-04-03T16:06:36.354Z</time></trkpt><trkpt lat="43.3935552" lon="11.2196701"><ele>204.0</ele><time>2026-04-03T16:06:37.349Z</time></trkpt><trkpt lat="43.3936346" lon="11.219681"><ele>204.0</ele><time>2026-04-03T16:06:38.344Z</time></trkpt><trkpt lat="43.3937099" lon="11.2196969"><ele>204.0</ele><time>2026-04-03T16:06:39.345Z</time></trkpt><trkpt lat="43.3937832" lon="11.2197124"><ele>204.0</ele><time>2026-04-03T16:06:40.343Z</time></trkpt><trkpt lat="43.3938499" lon="11.2197208"><ele>204.0</ele><time>2026-04-03T16:06:41.342Z</time></trkpt><trkpt lat="43.393968" lon="11.2197092"><ele>204.0</ele><time>2026-04-03T16:06:43.361Z</time></trkpt><trkpt lat="43.3940722" lon="11.2196558"><ele>204.0</ele><time>2026-04-03T16:06:45.357Z</time></trkpt><trkpt lat="43.3941087" lon="11.2195412"><ele>203.33333333333334</ele><time>2026-04-03T16:06:47.345Z</time></trkpt><trkpt lat="43.3941173" lon="11.2194275"><ele>202.66666666666669</ele><time>2026-04-03T16:06:49.355Z</time></trkpt><trkpt lat="43.3941429" lon="11.2193196"><ele>202.0</ele><time>2026-04-03T16:06:51.353Z</time></trkpt><trkpt lat="43.3941774" lon="11.2192106"><ele>201.33333333333334</ele><time>2026-04-03T16:06:53.353Z</time></trkpt><trkpt lat="43.3942217" lon="11.2191109"><ele>200.66666666666669</ele><time>2026-04-03T16:06:55.366Z</time></trkpt><trkpt lat="43.3942758" lon="11.2190235"><ele>200.0</ele><time>2026-04-03T16:06:57.343Z</time></trkpt><trkpt lat="43.3943394" lon="11.2189435"><ele>199.8</ele><time>2026-04-03T16:06:59.351Z</time></trkpt><trkpt lat="43.3944076" lon="11.2188668"><ele>199.6</ele><time>2026-04-03T16:07:01.349Z</time></trkpt><trkpt lat="43.3944892" lon="11.2187924"><ele>199.39999999999998</ele><time>2026-04-03T16:07:03.35Z</time></trkpt><trkpt lat="43.3945769" lon="11.218714"><ele>199.2</ele><time>2026-04-03T16:07:05.343Z</time></trkpt><trkpt lat="43.3946647" lon="11.2186359"><ele>199.0</ele><time>2026-04-03T16:07:07.345Z</time></trkpt><trkpt lat="43.3947532" lon="11.2185474"><ele>198.2</ele><time>2026-04-03T16:07:09.351Z</time></trkpt><trkpt lat="43.3948396" lon="11.218465"><ele>197.39999999999998</ele><time>2026-04-03T16:07:11.339Z</time></trkpt><trkpt lat="43.3949303" lon="11.2183768"><ele>196.6</ele><time>2026-04-03T16:07:13.353Z</time></trkpt><trkpt lat="43.3950278" lon="11.218291"><ele>195.8</ele><time>2026-04-03T16:07:15.335Z</time></trkpt><trkpt lat="43.3951254" lon="11.2182081"><ele>195.0</ele><time>2026-04-03T16:07:17.357Z</time></trkpt><trkpt lat="43.3952312" lon="11.2181244"><ele>195.0</ele><time>2026-04-03T16:07:19.359Z</time></trkpt><trkpt lat="43.3952863" lon="11.2180823"><ele>195.0</ele><time>2026-04-03T16:07:20.355Z</time></trkpt><trkpt lat="43.3953933" lon="11.2180015"><ele>195.0</ele><time>2026-04-03T16:07:22.35Z</time></trkpt><trkpt lat="43.3954911" lon="11.2179056"><ele>195.0</ele><time>2026-04-03T16:07:24.351Z</time></trkpt><trkpt lat="43.395558" lon="11.217778"><ele>195.0</ele><time>2026-04-03T16:07:26.331Z</time></trkpt><trkpt lat="43.3955998" lon="11.2176375"><ele>194.83333333333334</ele><time>2026-04-03T16:07:28.354Z</time></trkpt><trkpt lat="43.3956198" lon="11.2175029"><ele>194.66666666666669</ele><time>2026-04-03T16:07:30.358Z</time></trkpt><trkpt lat="43.3956398" lon="11.2173793"><ele>194.5</ele><time>2026-04-03T16:07:32.363Z</time></trkpt><trkpt lat="43.3956495" lon="11.2172661"><ele>194.33333333333334</ele><time>2026-04-03T16:07:34.36Z</time></trkpt><trkpt lat="43.3956632" lon="11.2171572"><ele>194.16666666666669</ele><time>2026-04-03T16:07:36.347Z</time></trkpt><trkpt lat="43.3957003" lon="11.2170631"><ele>194.0</ele><time>2026-04-03T16:07:38.332Z</time></trkpt><trkpt lat="43.3957523" lon="11.2169914"><ele>194.00000000000003</ele><time>2026-04-03T16:07:40.364Z</time></trkpt><trkpt lat="43.3958131" lon="11.2169361"><ele>194.0</ele><time>2026-04-03T16:07:42.344Z</time></trkpt><trkpt lat="43.3958788" lon="11.2168804"><ele>194.0</ele><time>2026-04-03T16:07:44.348Z</time></trkpt><trkpt lat="43.3959636" lon="11.2168582"><ele>194.0</ele><time>2026-04-03T16:07:46.348Z</time></trkpt><trkpt lat="43.3960545" lon="11.2168435"><ele>194.00000000000003</ele><time>2026-04-03T16:07:48.352Z</time></trkpt><trkpt lat="43.3961555" lon="11.2168132"><ele>194.0</ele><time>2026-04-03T16:07:50.344Z</time></trkpt><trkpt lat="43.3962711" lon="11.2167776"><ele>193.66666666666669</ele><time>2026-04-03T16:07:52.353Z</time></trkpt><trkpt lat="43.396393" lon="11.2167388"><ele>193.33333333333334</ele><time>2026-04-03T16:07:54.353Z</time></trkpt><trkpt lat="43.3964597" lon="11.2167224"><ele>193.0</ele><time>2026-04-03T16:07:55.352Z</time></trkpt><trkpt lat="43.3965277" lon="11.2167121"><ele>192.66666666666669</ele><time>2026-04-03T16:07:56.349Z</time></trkpt><trkpt lat="43.3965932" lon="11.2166979"><ele>192.33333333333334</ele><time>2026-04-03T16:07:57.353Z</time></trkpt><trkpt lat="43.3966593" lon="11.2166821"><ele>192.0</ele><time>2026-04-03T16:07:58.351Z</time></trkpt><trkpt lat="43.3967209" lon="11.2166641"><ele>192.0</ele><time>2026-04-03T16:07:59.355Z</time></trkpt><trkpt lat="43.3968391" lon="11.2166298"><ele>192.0</ele><time>2026-04-03T16:08:01.344Z</time></trkpt><trkpt lat="43.3969556" lon="11.2166038"><ele>192.0</ele><time>2026-04-03T16:08:03.352Z</time></trkpt><trkpt lat="43.3970663" lon="11.2165724"><ele>192.0</ele><time>2026-04-03T16:08:05.344Z</time></trkpt><trkpt lat="43.3971742" lon="11.2165455"><ele>192.0</ele><time>2026-04-03T16:08:07.351Z</time></trkpt><trkpt lat="43.3972862" lon="11.2165261"><ele>192.0</ele><time>2026-04-03T16:08:09.353Z</time></trkpt><trkpt lat="43.3973905" lon="11.2165025"><ele>192.0</ele><time>2026-04-03T16:08:11.358Z</time></trkpt><trkpt lat="43.397495" lon="11.2164762"><ele>192.0</ele><time>2026-04-03T16:08:13.351Z</time></trkpt><trkpt lat="43.3976" lon="11.2164405"><ele>192.0</ele><time>2026-04-03T16:08:15.351Z</time></trkpt><trkpt lat="43.3977047" lon="11.2164138"><ele>192.2</ele><time>2026-04-03T16:08:17.34Z</time></trkpt><trkpt lat="43.3978093" lon="11.2164055"><ele>192.39999999999998</ele><time>2026-04-03T16:08:19.364Z</time></trkpt><trkpt lat="43.3979075" lon="11.2163936"><ele>192.60000000000002</ele><time>2026-04-03T16:08:21.35Z</time></trkpt><trkpt lat="43.3980008" lon="11.2163688"><ele>192.8</ele><time>2026-04-03T16:08:23.371Z</time></trkpt><trkpt lat="43.3980948" lon="11.2163317"><ele>193.0</ele><time>2026-04-03T16:08:25.36Z</time></trkpt><trkpt lat="43.3981838" lon="11.2162967"><ele>192.66666666666666</ele><time>2026-04-03T16:08:27.349Z</time></trkpt><trkpt lat="43.3982684" lon="11.2162686"><ele>192.33333333333331</ele><time>2026-04-03T16:08:29.35Z</time></trkpt><trkpt lat="43.3983491" lon="11.2162541"><ele>192.0</ele><time>2026-04-03T16:08:31.352Z</time></trkpt><trkpt lat="43.3984268" lon="11.2162251"><ele>191.66666666666666</ele><time>2026-04-03T16:08:33.363Z</time></trkpt><trkpt lat="43.3985052" lon="11.2161939"><ele>191.33333333333331</ele><time>2026-04-03T16:08:35.347Z</time></trkpt><trkpt lat="43.3985669" lon="11.216162"><ele>191.0</ele><time>2026-04-03T16:08:37.345Z</time></trkpt><trkpt lat="43.3986332" lon="11.2161311"><ele>191.0</ele><time>2026-04-03T16:08:39.362Z</time></trkpt><trkpt lat="43.3987038" lon="11.2160832"><ele>191.0</ele><time>2026-04-03T16:08:41.361Z</time></trkpt><trkpt lat="43.3987728" lon="11.2160012"><ele>191.0</ele><time>2026-04-03T16:08:43.348Z</time></trkpt><trkpt lat="43.3988508" lon="11.2159297"><ele>191.0</ele><time>2026-04-03T16:08:45.368Z</time></trkpt><trkpt lat="43.398941" lon="11.2158866"><ele>191.0</ele><time>2026-04-03T16:08:47.343Z</time></trkpt><trkpt lat="43.3990306" lon="11.2158827"><ele>191.0</ele><time>2026-04-03T16:08:49.35Z</time></trkpt><trkpt lat="43.3991008" lon="11.2158757"><ele>191.42857142857144</ele><time>2026-04-03T16:08:51.348Z</time></trkpt><trkpt lat="43.3991678" lon="11.2158738"><ele>191.85714285714283</ele><time>2026-04-03T16:08:53.347Z</time></trkpt><trkpt lat="43.3992401" lon="11.2158785"><ele>192.28571428571428</ele><time>2026-04-03T16:08:55.355Z</time></trkpt><trkpt lat="43.3993129" lon="11.2158733"><ele>192.71428571428572</ele><time>2026-04-03T16:08:57.352Z</time></trkpt><trkpt lat="43.399397" lon="11.215881"><ele>193.14285714285717</ele><time>2026-04-03T16:08:59.336Z</time></trkpt><trkpt lat="43.3994641" lon="11.2159013"><ele>193.57142857142856</ele><time>2026-04-03T16:09:01.35Z</time></trkpt><trkpt lat="43.399527" lon="11.2159211"><ele>194.0</ele><time>2026-04-03T16:09:03.349Z</time></trkpt><trkpt lat="43.3995995" lon="11.215938"><ele>194.33333333333334</ele><time>2026-04-03T16:09:05.343Z</time></trkpt><trkpt lat="43.3996933" lon="11.2159249"><ele>194.66666666666669</ele><time>2026-04-03T16:09:07.346Z</time></trkpt><trkpt lat="43.3997804" lon="11.2158996"><ele>195.0</ele><time>2026-04-03T16:09:09.354Z</time></trkpt><trkpt lat="43.3998602" lon="11.2158657"><ele>195.33333333333331</ele><time>2026-04-03T16:09:11.354Z</time></trkpt><trkpt lat="43.3999356" lon="11.215823"><ele>195.66666666666666</ele><time>2026-04-03T16:09:13.34Z</time></trkpt><trkpt lat="43.4000119" lon="11.2157728"><ele>196.0</ele><time>2026-04-03T16:09:15.343Z</time></trkpt><trkpt lat="43.400095" lon="11.2157277"><ele>196.0</ele><time>2026-04-03T16:09:17.359Z</time></trkpt><trkpt lat="43.4001816" lon="11.2156738"><ele>196.0</ele><time>2026-04-03T16:09:19.347Z</time></trkpt><trkpt lat="43.4002668" lon="11.2156278"><ele>196.0</ele><time>2026-04-03T16:09:21.346Z</time></trkpt><trkpt lat="43.4003523" lon="11.2155718"><ele>196.0</ele><time>2026-04-03T16:09:23.345Z</time></trkpt><trkpt lat="43.400438" lon="11.2155205"><ele>196.0</ele><time>2026-04-03T16:09:25.344Z</time></trkpt><trkpt lat="43.400527" lon="11.2154728"><ele>197.60000000000002</ele><time>2026-04-03T16:09:27.357Z</time></trkpt><trkpt lat="43.4006219" lon="11.2154314"><ele>199.2</ele><time>2026-04-03T16:09:29.347Z</time></trkpt><trkpt lat="43.400712" lon="11.2153734"><ele>200.8</ele><time>2026-04-03T16:09:31.346Z</time></trkpt><trkpt lat="43.4008064" lon="11.2153265"><ele>202.39999999999998</ele><time>2026-04-03T16:09:33.338Z</time></trkpt><trkpt lat="43.4009044" lon="11.2152766"><ele>204.0</ele><time>2026-04-03T16:09:35.342Z</time></trkpt><trkpt lat="43.401012" lon="11.2152204"><ele>204.0</ele><time>2026-04-03T16:09:37.351Z</time></trkpt><trkpt lat="43.4011147" lon="11.2151662"><ele>204.0</ele><time>2026-04-03T16:09:39.349Z</time></trkpt><trkpt lat="43.4012278" lon="11.2151195"><ele>204.0</ele><time>2026-04-03T16:09:41.35Z</time></trkpt><trkpt lat="43.4012881" lon="11.2150931"><ele>204.0</ele><time>2026-04-03T16:09:42.336Z</time></trkpt><trkpt lat="43.4014015" lon="11.2150227"><ele>204.0</ele><time>2026-04-03T16:09:44.348Z</time></trkpt><trkpt lat="43.4015014" lon="11.214942"><ele>205.79999999999998</ele><time>2026-04-03T16:09:46.35Z</time></trkpt><trkpt lat="43.4015896" lon="11.2148699"><ele>207.6</ele><time>2026-04-03T16:09:48.347Z</time></trkpt><trkpt lat="43.4016812" lon="11.2148219"><ele>209.4</ele><time>2026-04-03T16:09:50.349Z</time></trkpt><trkpt lat="43.4017687" lon="11.2147722"><ele>211.2</ele><time>2026-04-03T16:09:52.349Z</time></trkpt><trkpt lat="43.4018706" lon="11.2147351"><ele>213.0</ele><time>2026-04-03T16:09:54.365Z</time></trkpt><trkpt lat="43.4019773" lon="11.2147041"><ele>213.0</ele><time>2026-04-03T16:09:56.349Z</time></trkpt><trkpt lat="43.4020363" lon="11.2146717"><ele>213.0</ele><time>2026-04-03T16:09:57.347Z</time></trkpt><trkpt lat="43.4021475" lon="11.214614"><ele>213.0</ele><time>2026-04-03T16:09:59.351Z</time></trkpt><trkpt lat="43.402256" lon="11.2145485"><ele>213.0</ele><time>2026-04-03T16:10:01.357Z</time></trkpt><trkpt lat="43.4023639" lon="11.2144737"><ele>213.0</ele><time>2026-04-03T16:10:03.361Z</time></trkpt><trkpt lat="43.4024606" lon="11.2144143"><ele>209.4</ele><time>2026-04-03T16:10:05.349Z</time></trkpt><trkpt lat="43.4025538" lon="11.2143608"><ele>205.8</ele><time>2026-04-03T16:10:07.36Z</time></trkpt><trkpt lat="43.4026429" lon="11.214298"><ele>202.2</ele><time>2026-04-03T16:10:09.354Z</time></trkpt><trkpt lat="43.4027273" lon="11.2142508"><ele>198.6</ele><time>2026-04-03T16:10:11.352Z</time></trkpt><trkpt lat="43.4028025" lon="11.2141998"><ele>195.0</ele><time>2026-04-03T16:10:13.359Z</time></trkpt><trkpt lat="43.4028807" lon="11.2141527"><ele>195.0</ele><time>2026-04-03T16:10:15.348Z</time></trkpt><trkpt lat="43.4029695" lon="11.2141143"><ele>195.0</ele><time>2026-04-03T16:10:17.362Z</time></trkpt><trkpt lat="43.4030584" lon="11.2140665"><ele>195.0</ele><time>2026-04-03T16:10:19.366Z</time></trkpt><trkpt lat="43.4031475" lon="11.214"><ele>195.0</ele><time>2026-04-03T16:10:21.357Z</time></trkpt><trkpt lat="43.40324" lon="11.2139369"><ele>195.0</ele><time>2026-04-03T16:10:23.363Z</time></trkpt><trkpt lat="43.403337" lon="11.2138799"><ele>194.2</ele><time>2026-04-03T16:10:25.344Z</time></trkpt><trkpt lat="43.4034297" lon="11.2138258"><ele>193.4</ele><time>2026-04-03T16:10:27.346Z</time></trkpt><trkpt lat="43.4035207" lon="11.213768"><ele>192.60000000000002</ele><time>2026-04-03T16:10:29.351Z</time></trkpt><trkpt lat="43.4036142" lon="11.213708"><ele>191.8</ele><time>2026-04-03T16:10:31.349Z</time></trkpt><trkpt lat="43.4037114" lon="11.213658"><ele>191.0</ele><time>2026-04-03T16:10:33.344Z</time></trkpt><trkpt lat="43.4038132" lon="11.2136076"><ele>190.8</ele><time>2026-04-03T16:10:35.355Z</time></trkpt><trkpt lat="43.4039074" lon="11.2135936"><ele>190.60000000000002</ele><time>2026-04-03T16:10:37.355Z</time></trkpt><trkpt lat="43.4040083" lon="11.2136106"><ele>190.4</ele><time>2026-04-03T16:10:39.36Z</time></trkpt><trkpt lat="43.4041162" lon="11.2136075"><ele>190.2</ele><time>2026-04-03T16:10:41.336Z</time></trkpt><trkpt lat="43.4042236" lon="11.2136013"><ele>190.0</ele><time>2026-04-03T16:10:43.357Z</time></trkpt><trkpt lat="43.4043249" lon="11.2135914"><ele>190.0</ele><time>2026-04-03T16:10:45.352Z</time></trkpt><trkpt lat="43.404432" lon="11.2135788"><ele>190.0</ele><time>2026-04-03T16:10:47.357Z</time></trkpt><trkpt lat="43.4045386" lon="11.2135725"><ele>190.0</ele><time>2026-04-03T16:10:49.35Z</time></trkpt><trkpt lat="43.4046391" lon="11.2135572"><ele>190.0</ele><time>2026-04-03T16:10:51.356Z</time></trkpt><trkpt lat="43.4047387" lon="11.2135442"><ele>190.0</ele><time>2026-04-03T16:10:53.354Z</time></trkpt><trkpt lat="43.404837" lon="11.2135376"><ele>190.0</ele><time>2026-04-03T16:10:55.345Z</time></trkpt><trkpt lat="43.4049395" lon="11.2135317"><ele>190.0</ele><time>2026-04-03T16:10:57.354Z</time></trkpt><trkpt lat="43.4050345" lon="11.2135162"><ele>190.0</ele><time>2026-04-03T16:10:59.354Z</time></trkpt><trkpt lat="43.4051287" lon="11.2135031"><ele>190.0</ele><time>2026-04-03T16:11:01.353Z</time></trkpt><trkpt lat="43.4052154" lon="11.2135515"><ele>190.0</ele><time>2026-04-03T16:11:03.359Z</time></trkpt><trkpt lat="43.4052959" lon="11.2136199"><ele>190.0</ele><time>2026-04-03T16:11:05.361Z</time></trkpt><trkpt lat="43.4053825" lon="11.2136452"><ele>190.0</ele><time>2026-04-03T16:11:07.345Z</time></trkpt><trkpt lat="43.4054779" lon="11.2136102"><ele>190.0</ele><time>2026-04-03T16:11:09.371Z</time></trkpt><trkpt lat="43.405579" lon="11.2135743"><ele>190.0</ele><time>2026-04-03T16:11:11.364Z</time></trkpt><trkpt lat="43.4056828" lon="11.2135349"><ele>190.0</ele><time>2026-04-03T16:11:13.358Z</time></trkpt><trkpt lat="43.405787" lon="11.2134925"><ele>189.4</ele><time>2026-04-03T16:11:15.354Z</time></trkpt><trkpt lat="43.4058882" lon="11.2134481"><ele>188.8</ele><time>2026-04-03T16:11:17.361Z</time></trkpt><trkpt lat="43.4059813" lon="11.2134111"><ele>188.2</ele><time>2026-04-03T16:11:19.341Z</time></trkpt><trkpt lat="43.4060722" lon="11.2133811"><ele>187.6</ele><time>2026-04-03T16:11:21.347Z</time></trkpt><trkpt lat="43.4061657" lon="11.2133439"><ele>187.0</ele><time>2026-04-03T16:11:23.348Z</time></trkpt><trkpt lat="43.4062558" lon="11.2133017"><ele>187.2</ele><time>2026-04-03T16:11:25.355Z</time></trkpt><trkpt lat="43.4063518" lon="11.2132608"><ele>187.39999999999998</ele><time>2026-04-03T16:11:27.365Z</time></trkpt><trkpt lat="43.4064433" lon="11.2131932"><ele>187.60000000000002</ele><time>2026-04-03T16:11:29.354Z</time></trkpt><trkpt lat="43.4065332" lon="11.2131326"><ele>187.8</ele><time>2026-04-03T16:11:31.358Z</time></trkpt><trkpt lat="43.4066305" lon="11.2130792"><ele>188.0</ele><time>2026-04-03T16:11:33.359Z</time></trkpt><trkpt lat="43.4067224" lon="11.2130317"><ele>188.0</ele><time>2026-04-03T16:11:35.352Z</time></trkpt><trkpt lat="43.4068096" lon="11.2129992"><ele>188.0</ele><time>2026-04-03T16:11:37.352Z</time></trkpt><trkpt lat="43.4068937" lon="11.2129572"><ele>188.0</ele><time>2026-04-03T16:11:39.354Z</time></trkpt><trkpt lat="43.4069809" lon="11.2129069"><ele>188.0</ele><time>2026-04-03T16:11:41.351Z</time></trkpt><trkpt lat="43.4070748" lon="11.2128615"><ele>188.0</ele><time>2026-04-03T16:11:43.353Z</time></trkpt><trkpt lat="43.4071721" lon="11.2128266"><ele>188.0</ele><time>2026-04-03T16:11:45.352Z</time></trkpt><trkpt lat="43.4072642" lon="11.2127757"><ele>188.0</ele><time>2026-04-03T16:11:47.344Z</time></trkpt><trkpt lat="43.4073635" lon="11.2127326"><ele>188.0</ele><time>2026-04-03T16:11:49.361Z</time></trkpt><trkpt lat="43.4074615" lon="11.2126942"><ele>188.0</ele><time>2026-04-03T16:11:51.351Z</time></trkpt><trkpt lat="43.4075546" lon="11.2126462"><ele>188.0</ele><time>2026-04-03T16:11:53.347Z</time></trkpt><trkpt lat="43.4076394" lon="11.2125815"><ele>188.0</ele><time>2026-04-03T16:11:55.338Z</time></trkpt><trkpt lat="43.4076995" lon="11.2124767"><ele>188.0</ele><time>2026-04-03T16:11:57.357Z</time></trkpt><trkpt lat="43.4077435" lon="11.2123604"><ele>188.0</ele><time>2026-04-03T16:11:59.352Z</time></trkpt><trkpt lat="43.4077938" lon="11.2122518"><ele>188.0</ele><time>2026-04-03T16:12:01.35Z</time></trkpt><trkpt lat="43.4078741" lon="11.2121773"><ele>188.0</ele><time>2026-04-03T16:12:03.373Z</time></trkpt><trkpt lat="43.4079578" lon="11.2121209"><ele>188.33333333333331</ele><time>2026-04-03T16:12:05.362Z</time></trkpt><trkpt lat="43.4080396" lon="11.2120806"><ele>188.66666666666666</ele><time>2026-04-03T16:12:07.355Z</time></trkpt><trkpt lat="43.4081249" lon="11.2120453"><ele>189.0</ele><time>2026-04-03T16:12:09.339Z</time></trkpt><trkpt lat="43.4082123" lon="11.2120128"><ele>189.33333333333334</ele><time>2026-04-03T16:12:11.345Z</time></trkpt><trkpt lat="43.4082944" lon="11.2119756"><ele>189.66666666666669</ele><time>2026-04-03T16:12:13.36Z</time></trkpt><trkpt lat="43.4083649" lon="11.211954"><ele>190.0</ele><time>2026-04-03T16:12:15.367Z</time></trkpt><trkpt lat="43.4084113" lon="11.2118866"><ele>190.0</ele><time>2026-04-03T16:12:17.342Z</time></trkpt><trkpt lat="43.4084121" lon="11.2117672"><ele>190.0</ele><time>2026-04-03T16:12:19.361Z</time></trkpt><trkpt lat="43.4084511" lon="11.2116981"><ele>190.0</ele><time>2026-04-03T16:12:21.368Z</time></trkpt><trkpt lat="43.408514" lon="11.2116028"><ele>190.0</ele><time>2026-04-03T16:12:23.352Z</time></trkpt><trkpt lat="43.4085196" lon="11.2114857"><ele>190.0</ele><time>2026-04-03T16:12:25.349Z</time></trkpt><trkpt lat="43.4084867" lon="11.2113832"><ele>190.0</ele><time>2026-04-03T16:12:27.333Z</time></trkpt><trkpt lat="43.4084165" lon="11.2113143"><ele>190.0</ele><time>2026-04-03T16:12:29.347Z</time></trkpt><trkpt lat="43.4083489" lon="11.2112445"><ele>190.0</ele><time>2026-04-03T16:12:31.351Z</time></trkpt><trkpt lat="43.4082722" lon="11.2111756"><ele>190.0</ele><time>2026-04-03T16:12:33.338Z</time></trkpt><trkpt lat="43.4081958" lon="11.2111034"><ele>190.0</ele><time>2026-04-03T16:12:35.329Z</time></trkpt><trkpt lat="43.408123" lon="11.2110435"><ele>190.0</ele><time>2026-04-03T16:12:37.348Z</time></trkpt><trkpt lat="43.4080513" lon="11.2109674"><ele>190.0</ele><time>2026-04-03T16:12:39.355Z</time></trkpt><trkpt lat="43.4079795" lon="11.2109026"><ele>190.2</ele><time>2026-04-03T16:12:41.345Z</time></trkpt><trkpt lat="43.4079047" lon="11.2108421"><ele>190.4</ele><time>2026-04-03T16:12:43.345Z</time></trkpt><trkpt lat="43.4078314" lon="11.2107707"><ele>190.60000000000002</ele><time>2026-04-03T16:12:45.342Z</time></trkpt><trkpt lat="43.4077558" lon="11.2106981"><ele>190.8</ele><time>2026-04-03T16:12:47.367Z</time></trkpt><trkpt lat="43.4076799" lon="11.2106289"><ele>191.0</ele><time>2026-04-03T16:12:49.359Z</time></trkpt><trkpt lat="43.4076015" lon="11.2105551"><ele>191.20000000000002</ele><time>2026-04-03T16:12:51.344Z</time></trkpt><trkpt lat="43.4075271" lon="11.2104717"><ele>191.4</ele><time>2026-04-03T16:12:53.352Z</time></trkpt><trkpt lat="43.4074436" lon="11.2104013"><ele>191.6</ele><time>2026-04-03T16:12:55.354Z</time></trkpt><trkpt lat="43.4073633" lon="11.2103293"><ele>191.8</ele><time>2026-04-03T16:12:57.352Z</time></trkpt><trkpt lat="43.407285" lon="11.2102535"><ele>192.0</ele><time>2026-04-03T16:12:59.343Z</time></trkpt><trkpt lat="43.4072086" lon="11.2101876"><ele>192.5</ele><time>2026-04-03T16:13:01.369Z</time></trkpt><trkpt lat="43.4071328" lon="11.2101172"><ele>193.0</ele><time>2026-04-03T16:13:03.355Z</time></trkpt><trkpt lat="43.4070638" lon="11.2100553"><ele>193.5</ele><time>2026-04-03T16:13:05.339Z</time></trkpt><trkpt lat="43.4070033" lon="11.2099905"><ele>194.0</ele><time>2026-04-03T16:13:07.349Z</time></trkpt><trkpt lat="43.406941" lon="11.209926"><ele>194.5</ele><time>2026-04-03T16:13:09.344Z</time></trkpt><trkpt lat="43.4068759" lon="11.2098606"><ele>195.0</ele><time>2026-04-03T16:13:11.354Z</time></trkpt><trkpt lat="43.4068076" lon="11.2097989"><ele>194.85714285714286</ele><time>2026-04-03T16:13:13.349Z</time></trkpt><trkpt lat="43.4068023" lon="11.209703"><ele>194.71428571428572</ele><time>2026-04-03T16:13:15.353Z</time></trkpt><trkpt lat="43.4068638" lon="11.2096581"><ele>194.57142857142856</ele><time>2026-04-03T16:13:17.367Z</time></trkpt><trkpt lat="43.4069354" lon="11.2096277"><ele>194.42857142857144</ele><time>2026-04-03T16:13:19.349Z</time></trkpt><trkpt lat="43.4070054" lon="11.2095923"><ele>194.2857142857143</ele><time>2026-04-03T16:13:21.355Z</time></trkpt><trkpt lat="43.4070746" lon="11.2095397"><ele>194.14285714285714</ele><time>2026-04-03T16:13:23.356Z</time></trkpt><trkpt lat="43.4071422" lon="11.2094966"><ele>194.0</ele><time>2026-04-03T16:13:25.353Z</time></trkpt><trkpt lat="43.4072254" lon="11.2094491"><ele>194.0</ele><time>2026-04-03T16:13:27.353Z</time></trkpt><trkpt lat="43.4073127" lon="11.2093945"><ele>194.0</ele><time>2026-04-03T16:13:29.351Z</time></trkpt><trkpt lat="43.407401" lon="11.2093466"><ele>194.0</ele><time>2026-04-03T16:13:31.341Z</time></trkpt><trkpt lat="43.4074902" lon="11.2093006"><ele>194.0</ele><time>2026-04-03T16:13:33.341Z</time></trkpt><trkpt lat="43.4075778" lon="11.2092478"><ele>194.0</ele><time>2026-04-03T16:13:35.353Z</time></trkpt><trkpt lat="43.4076651" lon="11.209195"><ele>194.00000000000003</ele><time>2026-04-03T16:13:37.372Z</time></trkpt><trkpt lat="43.407741" lon="11.2091421"><ele>194.0</ele><time>2026-04-03T16:13:39.337Z</time></trkpt><trkpt lat="43.4078196" lon="11.2090871"><ele>194.0</ele><time>2026-04-03T16:13:41.355Z</time></trkpt><trkpt lat="43.4079006" lon="11.2090374"><ele>194.0</ele><time>2026-04-03T16:13:43.342Z</time></trkpt><trkpt lat="43.4079795" lon="11.2089861"><ele>194.00000000000003</ele><time>2026-04-03T16:13:45.35Z</time></trkpt><trkpt lat="43.4080534" lon="11.2089408"><ele>194.0</ele><time>2026-04-03T16:13:47.36Z</time></trkpt><trkpt lat="43.4081241" lon="11.2088965"><ele>195.66666666666669</ele><time>2026-04-03T16:13:49.333Z</time></trkpt><trkpt lat="43.408202" lon="11.2088455"><ele>197.33333333333334</ele><time>2026-04-03T16:13:51.349Z</time></trkpt><trkpt lat="43.408282" lon="11.2088036"><ele>199.0</ele><time>2026-04-03T16:13:53.337Z</time></trkpt><trkpt lat="43.4083613" lon="11.2087543"><ele>200.66666666666669</ele><time>2026-04-03T16:13:55.371Z</time></trkpt><trkpt lat="43.4084382" lon="11.2087073"><ele>202.33333333333334</ele><time>2026-04-03T16:13:57.355Z</time></trkpt><trkpt lat="43.4085103" lon="11.2086627"><ele>204.0</ele><time>2026-04-03T16:13:59.363Z</time></trkpt><trkpt lat="43.4085822" lon="11.2086223"><ele>204.0</ele><time>2026-04-03T16:14:01.364Z</time></trkpt><trkpt lat="43.4086524" lon="11.2085814"><ele>204.0</ele><time>2026-04-03T16:14:03.349Z</time></trkpt><trkpt lat="43.4087317" lon="11.2085353"><ele>204.0</ele><time>2026-04-03T16:14:05.348Z</time></trkpt><trkpt lat="43.4088056" lon="11.2084918"><ele>204.0</ele><time>2026-04-03T16:14:07.357Z</time></trkpt><trkpt lat="43.4088775" lon="11.208458"><ele>204.0</ele><time>2026-04-03T16:14:09.351Z</time></trkpt><trkpt lat="43.4089427" lon="11.2084183"><ele>204.0</ele><time>2026-04-03T16:14:11.35Z</time></trkpt><trkpt lat="43.4090078" lon="11.208376"><ele>203.33333333333334</ele><time>2026-04-03T16:14:13.35Z</time></trkpt><trkpt lat="43.4090741" lon="11.2083399"><ele>202.66666666666669</ele><time>2026-04-03T16:14:15.343Z</time></trkpt><trkpt lat="43.4091348" lon="11.208295"><ele>202.0</ele><time>2026-04-03T16:14:17.34Z</time></trkpt><trkpt lat="43.4091981" lon="11.2082428"><ele>201.33333333333334</ele><time>2026-04-03T16:14:19.344Z</time></trkpt><trkpt lat="43.4092738" lon="11.2081827"><ele>200.66666666666669</ele><time>2026-04-03T16:14:21.346Z</time></trkpt><trkpt lat="43.4093663" lon="11.2080944"><ele>200.0</ele><time>2026-04-03T16:14:23.35Z</time></trkpt><trkpt lat="43.4094182" lon="11.2080381"><ele>199.14285714285717</ele><time>2026-04-03T16:14:24.344Z</time></trkpt><trkpt lat="43.4094707" lon="11.2079752"><ele>198.28571428571428</ele><time>2026-04-03T16:14:25.35Z</time></trkpt><trkpt lat="43.4095254" lon="11.2079089"><ele>197.42857142857144</ele><time>2026-04-03T16:14:26.364Z</time></trkpt><trkpt lat="43.4095825" lon="11.2078442"><ele>196.57142857142858</ele><time>2026-04-03T16:14:27.361Z</time></trkpt><trkpt lat="43.4096368" lon="11.2077752"><ele>195.71428571428572</ele><time>2026-04-03T16:14:28.348Z</time></trkpt><trkpt lat="43.4096921" lon="11.2077079"><ele>194.85714285714286</ele><time>2026-04-03T16:14:29.352Z</time></trkpt><trkpt lat="43.4097484" lon="11.2076454"><ele>194.0</ele><time>2026-04-03T16:14:30.368Z</time></trkpt><trkpt lat="43.4098023" lon="11.2075827"><ele>194.0</ele><time>2026-04-03T16:14:31.347Z</time></trkpt><trkpt lat="43.4098556" lon="11.2075201"><ele>194.0</ele><time>2026-04-03T16:14:32.346Z</time></trkpt><trkpt lat="43.4099089" lon="11.2074612"><ele>194.0</ele><time>2026-04-03T16:14:33.351Z</time></trkpt><trkpt lat="43.4099639" lon="11.2074029"><ele>194.0</ele><time>2026-04-03T16:14:34.352Z</time></trkpt><trkpt lat="43.4100174" lon="11.2073404"><ele>194.0</ele><time>2026-04-03T16:14:35.357Z</time></trkpt><trkpt lat="43.4100692" lon="11.2072759"><ele>194.0</ele><time>2026-04-03T16:14:36.353Z</time></trkpt><trkpt lat="43.4101254" lon="11.2072163"><ele>194.0</ele><time>2026-04-03T16:14:37.349Z</time></trkpt><trkpt lat="43.4101789" lon="11.207158"><ele>193.85714285714286</ele><time>2026-04-03T16:14:38.358Z</time></trkpt><trkpt lat="43.410229" lon="11.2070944"><ele>193.71428571428572</ele><time>2026-04-03T16:14:39.351Z</time></trkpt><trkpt lat="43.4102811" lon="11.2070322"><ele>193.57142857142858</ele><time>2026-04-03T16:14:40.352Z</time></trkpt><trkpt lat="43.4103353" lon="11.2069808"><ele>193.42857142857144</ele><time>2026-04-03T16:14:41.355Z</time></trkpt><trkpt lat="43.410392" lon="11.2069387"><ele>193.28571428571428</ele><time>2026-04-03T16:14:42.343Z</time></trkpt><trkpt lat="43.4104516" lon="11.2068948"><ele>193.14285714285717</ele><time>2026-04-03T16:14:43.348Z</time></trkpt><trkpt lat="43.4105172" lon="11.2068714"><ele>193.0</ele><time>2026-04-03T16:14:44.359Z</time></trkpt><trkpt lat="43.4105834" lon="11.2068661"><ele>192.99999999999997</ele><time>2026-04-03T16:14:45.351Z</time></trkpt><trkpt lat="43.4106476" lon="11.2068514"><ele>193.0</ele><time>2026-04-03T16:14:46.353Z</time></trkpt><trkpt lat="43.4107576" lon="11.2067651"><ele>193.0</ele><time>2026-04-03T16:14:48.345Z</time></trkpt><trkpt lat="43.4108019" lon="11.2066977"><ele>193.0</ele><time>2026-04-03T16:14:49.341Z</time></trkpt><trkpt lat="43.410835" lon="11.206622"><ele>192.99999999999997</ele><time>2026-04-03T16:14:50.351Z</time></trkpt><trkpt lat="43.4108606" lon="11.2065396"><ele>193.0</ele><time>2026-04-03T16:14:51.355Z</time></trkpt><trkpt lat="43.4109165" lon="11.2063869"><ele>193.0</ele><time>2026-04-03T16:14:53.359Z</time></trkpt><trkpt lat="43.4109946" lon="11.2062683"><ele>193.0</ele><time>2026-04-03T16:14:55.356Z</time></trkpt><trkpt lat="43.411078" lon="11.2061595"><ele>193.0</ele><time>2026-04-03T16:14:57.35Z</time></trkpt><trkpt lat="43.4111699" lon="11.2060667"><ele>193.0</ele><time>2026-04-03T16:14:59.36Z</time></trkpt><trkpt lat="43.411259" lon="11.2059723"><ele>193.0</ele><time>2026-04-03T16:15:01.357Z</time></trkpt><trkpt lat="43.4113464" lon="11.2058772"><ele>193.0</ele><time>2026-04-03T16:15:03.347Z</time></trkpt><trkpt lat="43.4114278" lon="11.2057944"><ele>193.0</ele><time>2026-04-03T16:15:05.347Z</time></trkpt><trkpt lat="43.4114961" lon="11.2057174"><ele>193.0</ele><time>2026-04-03T16:15:07.351Z</time></trkpt><trkpt lat="43.4115611" lon="11.2056382"><ele>193.0</ele><time>2026-04-03T16:15:09.341Z</time></trkpt><trkpt lat="43.4116245" lon="11.2055578"><ele>193.4</ele><time>2026-04-03T16:15:11.348Z</time></trkpt><trkpt lat="43.4116823" lon="11.2054795"><ele>193.8</ele><time>2026-04-03T16:15:13.351Z</time></trkpt><trkpt lat="43.4117449" lon="11.2054041"><ele>194.2</ele><time>2026-04-03T16:15:15.346Z</time></trkpt><trkpt lat="43.4118106" lon="11.2053144"><ele>194.6</ele><time>2026-04-03T16:15:17.35Z</time></trkpt><trkpt lat="43.4118839" lon="11.2052187"><ele>195.0</ele><time>2026-04-03T16:15:19.358Z</time></trkpt><trkpt lat="43.4119646" lon="11.2051185"><ele>195.0</ele><time>2026-04-03T16:15:21.338Z</time></trkpt><trkpt lat="43.4120478" lon="11.2050137"><ele>195.0</ele><time>2026-04-03T16:15:23.349Z</time></trkpt><trkpt lat="43.4121289" lon="11.2048951"><ele>195.0</ele><time>2026-04-03T16:15:25.35Z</time></trkpt><trkpt lat="43.4122149" lon="11.2047736"><ele>195.0</ele><time>2026-04-03T16:15:27.334Z</time></trkpt><trkpt lat="43.412301" lon="11.2046407"><ele>194.42857142857142</ele><time>2026-04-03T16:15:29.354Z</time></trkpt><trkpt lat="43.4123464" lon="11.2045738"><ele>193.85714285714283</ele><time>2026-04-03T16:15:30.356Z</time></trkpt><trkpt lat="43.4123915" lon="11.2045096"><ele>193.28571428571428</ele><time>2026-04-03T16:15:31.346Z</time></trkpt><trkpt lat="43.4124355" lon="11.2044384"><ele>192.71428571428572</ele><time>2026-04-03T16:15:32.354Z</time></trkpt><trkpt lat="43.4124781" lon="11.2043652"><ele>192.14285714285714</ele><time>2026-04-03T16:15:33.339Z</time></trkpt><trkpt lat="43.4125239" lon="11.2043024"><ele>191.57142857142858</ele><time>2026-04-03T16:15:34.345Z</time></trkpt><trkpt lat="43.4125721" lon="11.204238"><ele>191.0</ele><time>2026-04-03T16:15:35.356Z</time></trkpt><trkpt lat="43.412618" lon="11.2041733"><ele>191.0</ele><time>2026-04-03T16:15:36.353Z</time></trkpt><trkpt lat="43.4126617" lon="11.2041098"><ele>191.0</ele><time>2026-04-03T16:15:37.35Z</time></trkpt><trkpt lat="43.4127077" lon="11.2040485"><ele>191.0</ele><time>2026-04-03T16:15:38.354Z</time></trkpt><trkpt lat="43.4127574" lon="11.2039884"><ele>191.0</ele><time>2026-04-03T16:15:39.347Z</time></trkpt><trkpt lat="43.4128048" lon="11.2039292"><ele>191.0</ele><time>2026-04-03T16:15:40.344Z</time></trkpt><trkpt lat="43.412849" lon="11.2038636"><ele>191.0</ele><time>2026-04-03T16:15:41.347Z</time></trkpt><trkpt lat="43.4128942" lon="11.2037979"><ele>191.0</ele><time>2026-04-03T16:15:42.347Z</time></trkpt><trkpt lat="43.4129381" lon="11.2037311"><ele>191.42857142857144</ele><time>2026-04-03T16:15:43.357Z</time></trkpt><trkpt lat="43.4129851" lon="11.2036635"><ele>191.85714285714283</ele><time>2026-04-03T16:15:44.336Z</time></trkpt><trkpt lat="43.413035" lon="11.2035983"><ele>192.28571428571428</ele><time>2026-04-03T16:15:45.347Z</time></trkpt><trkpt lat="43.4130855" lon="11.2035329"><ele>192.71428571428572</ele><time>2026-04-03T16:15:46.343Z</time></trkpt><trkpt lat="43.4131341" lon="11.2034614"><ele>193.14285714285717</ele><time>2026-04-03T16:15:47.346Z</time></trkpt><trkpt lat="43.4131833" lon="11.2033933"><ele>193.57142857142856</ele><time>2026-04-03T16:15:48.339Z</time></trkpt><trkpt lat="43.4132348" lon="11.2033267"><ele>194.0</ele><time>2026-04-03T16:15:49.352Z</time></trkpt><trkpt lat="43.4132841" lon="11.2032608"><ele>193.42857142857142</ele><time>2026-04-03T16:15:50.353Z</time></trkpt><trkpt lat="43.413337" lon="11.2031981"><ele>192.85714285714286</ele><time>2026-04-03T16:15:51.361Z</time></trkpt><trkpt lat="43.4133911" lon="11.2031354"><ele>192.28571428571428</ele><time>2026-04-03T16:15:52.338Z</time></trkpt><trkpt lat="43.4134426" lon="11.2030709"><ele>191.71428571428572</ele><time>2026-04-03T16:15:53.359Z</time></trkpt><trkpt lat="43.413496" lon="11.2030085"><ele>191.14285714285717</ele><time>2026-04-03T16:15:54.362Z</time></trkpt><trkpt lat="43.4135513" lon="11.2029454"><ele>190.57142857142858</ele><time>2026-04-03T16:15:55.341Z</time></trkpt><trkpt lat="43.4136054" lon="11.2028751"><ele>190.0</ele><time>2026-04-03T16:15:56.342Z</time></trkpt><trkpt lat="43.4136599" lon="11.2028069"><ele>190.0</ele><time>2026-04-03T16:15:57.361Z</time></trkpt><trkpt lat="43.4137153" lon="11.2027339"><ele>190.0</ele><time>2026-04-03T16:15:58.361Z</time></trkpt><trkpt lat="43.4137746" lon="11.2026635"><ele>190.0</ele><time>2026-04-03T16:15:59.342Z</time></trkpt><trkpt lat="43.4138348" lon="11.2025894"><ele>190.0</ele><time>2026-04-03T16:16:00.349Z</time></trkpt><trkpt lat="43.4138919" lon="11.2025142"><ele>190.0</ele><time>2026-04-03T16:16:01.35Z</time></trkpt><trkpt lat="43.4139514" lon="11.2024398"><ele>190.0</ele><time>2026-04-03T16:16:02.382Z</time></trkpt><trkpt lat="43.4140101" lon="11.2023718"><ele>189.0</ele><time>2026-04-03T16:16:03.344Z</time></trkpt><trkpt lat="43.4140681" lon="11.2023026"><ele>188.0</ele><time>2026-04-03T16:16:04.349Z</time></trkpt><trkpt lat="43.4141225" lon="11.202229"><ele>187.0</ele><time>2026-04-03T16:16:05.364Z</time></trkpt><trkpt lat="43.4141766" lon="11.2021532"><ele>186.0</ele><time>2026-04-03T16:16:06.357Z</time></trkpt><trkpt lat="43.4142289" lon="11.2020718"><ele>185.0</ele><time>2026-04-03T16:16:07.348Z</time></trkpt><trkpt lat="43.4142775" lon="11.2019877"><ele>184.0</ele><time>2026-04-03T16:16:08.344Z</time></trkpt><trkpt lat="43.4143251" lon="11.2019022"><ele>184.0</ele><time>2026-04-03T16:16:09.37Z</time></trkpt><trkpt lat="43.4143719" lon="11.2018165"><ele>184.0</ele><time>2026-04-03T16:16:10.343Z</time></trkpt><trkpt lat="43.414422" lon="11.2017362"><ele>184.0</ele><time>2026-04-03T16:16:11.352Z</time></trkpt><trkpt lat="43.4144717" lon="11.2016565"><ele>184.0</ele><time>2026-04-03T16:16:12.361Z</time></trkpt><trkpt lat="43.4145195" lon="11.2015743"><ele>184.0</ele><time>2026-04-03T16:16:13.36Z</time></trkpt><trkpt lat="43.4145625" lon="11.2014903"><ele>184.0</ele><time>2026-04-03T16:16:14.36Z</time></trkpt><trkpt lat="43.4146072" lon="11.2014082"><ele>184.14285714285714</ele><time>2026-04-03T16:16:15.35Z</time></trkpt><trkpt lat="43.4146506" lon="11.201329"><ele>184.28571428571428</ele><time>2026-04-03T16:16:16.351Z</time></trkpt><trkpt lat="43.4146928" lon="11.201247"><ele>184.42857142857142</ele><time>2026-04-03T16:16:17.349Z</time></trkpt><trkpt lat="43.4147348" lon="11.2011688"><ele>184.57142857142856</ele><time>2026-04-03T16:16:18.35Z</time></trkpt><trkpt lat="43.4147757" lon="11.2010883"><ele>184.71428571428572</ele><time>2026-04-03T16:16:19.349Z</time></trkpt><trkpt lat="43.4148186" lon="11.2010074"><ele>184.85714285714283</ele><time>2026-04-03T16:16:20.35Z</time></trkpt><trkpt lat="43.4148617" lon="11.2009222"><ele>185.0</ele><time>2026-04-03T16:16:21.347Z</time></trkpt><trkpt lat="43.4149035" lon="11.2008375"><ele>184.57142857142856</ele><time>2026-04-03T16:16:22.357Z</time></trkpt><trkpt lat="43.4149394" lon="11.2007464"><ele>184.14285714285714</ele><time>2026-04-03T16:16:23.345Z</time></trkpt><trkpt lat="43.4149715" lon="11.2006584"><ele>183.71428571428572</ele><time>2026-04-03T16:16:24.339Z</time></trkpt><trkpt lat="43.4150048" lon="11.2005675"><ele>183.28571428571428</ele><time>2026-04-03T16:16:25.349Z</time></trkpt><trkpt lat="43.4150375" lon="11.200479"><ele>182.85714285714286</ele><time>2026-04-03T16:16:26.353Z</time></trkpt><trkpt lat="43.4150663" lon="11.2003873"><ele>182.42857142857142</ele><time>2026-04-03T16:16:27.353Z</time></trkpt><trkpt lat="43.4150924" lon="11.2002942"><ele>182.0</ele><time>2026-04-03T16:16:28.342Z</time></trkpt><trkpt lat="43.4151201" lon="11.2002019"><ele>181.85714285714286</ele><time>2026-04-03T16:16:29.358Z</time></trkpt><trkpt lat="43.4151492" lon="11.2001108"><ele>181.71428571428572</ele><time>2026-04-03T16:16:30.353Z</time></trkpt><trkpt lat="43.4151722" lon="11.2000185"><ele>181.57142857142856</ele><time>2026-04-03T16:16:31.349Z</time></trkpt><trkpt lat="43.4151894" lon="11.1999219"><ele>181.42857142857144</ele><time>2026-04-03T16:16:32.367Z</time></trkpt><trkpt lat="43.415208" lon="11.1998242"><ele>181.28571428571428</ele><time>2026-04-03T16:16:33.353Z</time></trkpt><trkpt lat="43.4152303" lon="11.1997259"><ele>181.14285714285714</ele><time>2026-04-03T16:16:34.343Z</time></trkpt><trkpt lat="43.4152485" lon="11.1996269"><ele>181.0</ele><time>2026-04-03T16:16:35.349Z</time></trkpt><trkpt lat="43.4152615" lon="11.1995262"><ele>181.33333333333334</ele><time>2026-04-03T16:16:36.362Z</time></trkpt><trkpt lat="43.415274" lon="11.1994236"><ele>181.66666666666669</ele><time>2026-04-03T16:16:37.344Z</time></trkpt><trkpt lat="43.4152881" lon="11.1993161"><ele>182.0</ele><time>2026-04-03T16:16:38.348Z</time></trkpt><trkpt lat="43.4153023" lon="11.1992114"><ele>182.33333333333334</ele><time>2026-04-03T16:16:39.348Z</time></trkpt><trkpt lat="43.4153235" lon="11.1991169"><ele>182.66666666666666</ele><time>2026-04-03T16:16:40.343Z</time></trkpt><trkpt lat="43.4153502" lon="11.1990171"><ele>183.0</ele><time>2026-04-03T16:16:41.357Z</time></trkpt><trkpt lat="43.4153856" lon="11.1989169"><ele>183.0</ele><time>2026-04-03T16:16:42.346Z</time></trkpt><trkpt lat="43.4154235" lon="11.1988167"><ele>183.0</ele><time>2026-04-03T16:16:43.355Z</time></trkpt><trkpt lat="43.4154634" lon="11.1987204"><ele>183.0</ele><time>2026-04-03T16:16:44.364Z</time></trkpt><trkpt lat="43.4155053" lon="11.1986238"><ele>183.0</ele><time>2026-04-03T16:16:45.344Z</time></trkpt><trkpt lat="43.4155435" lon="11.1985303"><ele>183.0</ele><time>2026-04-03T16:16:46.344Z</time></trkpt><trkpt lat="43.415584" lon="11.1984372"><ele>183.0</ele><time>2026-04-03T16:16:47.351Z</time></trkpt><trkpt lat="43.4156245" lon="11.198348"><ele>182.16666666666666</ele><time>2026-04-03T16:16:48.356Z</time></trkpt><trkpt lat="43.4156688" lon="11.1982556"><ele>181.33333333333334</ele><time>2026-04-03T16:16:49.345Z</time></trkpt><trkpt lat="43.4157094" lon="11.1981666"><ele>180.5</ele><time>2026-04-03T16:16:50.369Z</time></trkpt><trkpt lat="43.4157508" lon="11.1980753"><ele>179.66666666666669</ele><time>2026-04-03T16:16:51.357Z</time></trkpt><trkpt lat="43.4157905" lon="11.1979869"><ele>178.83333333333334</ele><time>2026-04-03T16:16:52.35Z</time></trkpt><trkpt lat="43.4158267" lon="11.1978978"><ele>178.0</ele><time>2026-04-03T16:16:53.344Z</time></trkpt><trkpt lat="43.4158666" lon="11.1978103"><ele>178.0</ele><time>2026-04-03T16:16:54.341Z</time></trkpt><trkpt lat="43.4159081" lon="11.1977213"><ele>178.0</ele><time>2026-04-03T16:16:55.35Z</time></trkpt><trkpt lat="43.4159498" lon="11.1976331"><ele>178.0</ele><time>2026-04-03T16:16:56.346Z</time></trkpt><trkpt lat="43.415992" lon="11.1975444"><ele>178.0</ele><time>2026-04-03T16:16:57.344Z</time></trkpt><trkpt lat="43.4160388" lon="11.19746"><ele>178.0</ele><time>2026-04-03T16:16:58.36Z</time></trkpt><trkpt lat="43.4160865" lon="11.1973777"><ele>178.0</ele><time>2026-04-03T16:16:59.355Z</time></trkpt><trkpt lat="43.4161371" lon="11.1973003"><ele>177.85714285714283</ele><time>2026-04-03T16:17:00.356Z</time></trkpt><trkpt lat="43.4161909" lon="11.1972241"><ele>177.71428571428572</ele><time>2026-04-03T16:17:01.35Z</time></trkpt><trkpt lat="43.4162428" lon="11.197151"><ele>177.57142857142856</ele><time>2026-04-03T16:17:02.348Z</time></trkpt><trkpt lat="43.4162931" lon="11.1970767"><ele>177.42857142857142</ele><time>2026-04-03T16:17:03.35Z</time></trkpt><trkpt lat="43.4163396" lon="11.1969978"><ele>177.28571428571428</ele><time>2026-04-03T16:17:04.35Z</time></trkpt><trkpt lat="43.4163818" lon="11.1969169"><ele>177.14285714285714</ele><time>2026-04-03T16:17:05.345Z</time></trkpt><trkpt lat="43.4164209" lon="11.1968302"><ele>177.0</ele><time>2026-04-03T16:17:06.358Z</time></trkpt><trkpt lat="43.4164573" lon="11.1967455"><ele>177.0</ele><time>2026-04-03T16:17:07.36Z</time></trkpt><trkpt lat="43.4164885" lon="11.1966507"><ele>177.0</ele><time>2026-04-03T16:17:08.36Z</time></trkpt><trkpt lat="43.4165163" lon="11.1965564"><ele>177.0</ele><time>2026-04-03T16:17:09.35Z</time></trkpt><trkpt lat="43.4165434" lon="11.1964635"><ele>177.0</ele><time>2026-04-03T16:17:10.339Z</time></trkpt><trkpt lat="43.4165721" lon="11.1963691"><ele>177.0</ele><time>2026-04-03T16:17:11.344Z</time></trkpt><trkpt lat="43.4166037" lon="11.1962707"><ele>177.0</ele><time>2026-04-03T16:17:12.344Z</time></trkpt><trkpt lat="43.4166358" lon="11.1961678"><ele>176.5</ele><time>2026-04-03T16:17:13.347Z</time></trkpt><trkpt lat="43.4166653" lon="11.196061"><ele>176.0</ele><time>2026-04-03T16:17:14.352Z</time></trkpt><trkpt lat="43.416697" lon="11.1959487"><ele>175.5</ele><time>2026-04-03T16:17:15.346Z</time></trkpt><trkpt lat="43.4167246" lon="11.1958304"><ele>175.0</ele><time>2026-04-03T16:17:16.361Z</time></trkpt><trkpt lat="43.4167482" lon="11.1957089"><ele>174.5</ele><time>2026-04-03T16:17:17.343Z</time></trkpt><trkpt lat="43.4167688" lon="11.1955855"><ele>174.0</ele><time>2026-04-03T16:17:18.355Z</time></trkpt><trkpt lat="43.4167784" lon="11.1954636"><ele>173.39999999999998</ele><time>2026-04-03T16:17:19.356Z</time></trkpt><trkpt lat="43.4167763" lon="11.1953446"><ele>172.8</ele><time>2026-04-03T16:17:20.335Z</time></trkpt><trkpt lat="43.4167576" lon="11.1952267"><ele>172.2</ele><time>2026-04-03T16:17:21.336Z</time></trkpt><trkpt lat="43.4167214" lon="11.1951048"><ele>171.60000000000002</ele><time>2026-04-03T16:17:22.342Z</time></trkpt><trkpt lat="43.4166667" lon="11.1949793"><ele>171.0</ele><time>2026-04-03T16:17:23.349Z</time></trkpt><trkpt lat="43.4166132" lon="11.194854"><ele>170.20000000000002</ele><time>2026-04-03T16:17:24.344Z</time></trkpt><trkpt lat="43.4165678" lon="11.1947189"><ele>169.4</ele><time>2026-04-03T16:17:25.346Z</time></trkpt><trkpt lat="43.4165387" lon="11.1945781"><ele>168.6</ele><time>2026-04-03T16:17:26.35Z</time></trkpt><trkpt lat="43.4165321" lon="11.1944297"><ele>167.8</ele><time>2026-04-03T16:17:27.354Z</time></trkpt><trkpt lat="43.4165503" lon="11.1942924"><ele>167.0</ele><time>2026-04-03T16:17:28.351Z</time></trkpt><trkpt lat="43.416583" lon="11.1941637"><ele>167.0</ele><time>2026-04-03T16:17:29.348Z</time></trkpt><trkpt lat="43.4166118" lon="11.1940462"><ele>167.0</ele><time>2026-04-03T16:17:30.355Z</time></trkpt><trkpt lat="43.4166491" lon="11.1939268"><ele>167.0</ele><time>2026-04-03T16:17:31.367Z</time></trkpt><trkpt lat="43.4166963" lon="11.1938155"><ele>167.0</ele><time>2026-04-03T16:17:32.352Z</time></trkpt><trkpt lat="43.4167481" lon="11.1937187"><ele>167.0</ele><time>2026-04-03T16:17:33.359Z</time></trkpt><trkpt lat="43.4168122" lon="11.1936401"><ele>167.16666666666666</ele><time>2026-04-03T16:17:34.343Z</time></trkpt><trkpt lat="43.4168718" lon="11.1935542"><ele>167.33333333333331</ele><time>2026-04-03T16:17:35.354Z</time></trkpt><trkpt lat="43.4169225" lon="11.1934644"><ele>167.5</ele><time>2026-04-03T16:17:36.337Z</time></trkpt><trkpt lat="43.4169636" lon="11.1933642"><ele>167.66666666666666</ele><time>2026-04-03T16:17:37.337Z</time></trkpt><trkpt lat="43.4169913" lon="11.1932552"><ele>167.83333333333334</ele><time>2026-04-03T16:17:38.341Z</time></trkpt><trkpt lat="43.4170073" lon="11.1931453"><ele>168.0</ele><time>2026-04-03T16:17:39.353Z</time></trkpt><trkpt lat="43.4170194" lon="11.1930297"><ele>168.5</ele><time>2026-04-03T16:17:40.339Z</time></trkpt><trkpt lat="43.417023" lon="11.1929176"><ele>169.0</ele><time>2026-04-03T16:17:41.359Z</time></trkpt><trkpt lat="43.4170324" lon="11.1928088"><ele>169.5</ele><time>2026-04-03T16:17:42.363Z</time></trkpt><trkpt lat="43.4170454" lon="11.1927031"><ele>170.0</ele><time>2026-04-03T16:17:43.354Z</time></trkpt><trkpt lat="43.4170593" lon="11.1926002"><ele>170.5</ele><time>2026-04-03T16:17:44.339Z</time></trkpt><trkpt lat="43.4170775" lon="11.1924992"><ele>171.0</ele><time>2026-04-03T16:17:45.338Z</time></trkpt><trkpt lat="43.4171001" lon="11.1924074"><ele>171.33333333333334</ele><time>2026-04-03T16:17:46.347Z</time></trkpt><trkpt lat="43.4171269" lon="11.1923205"><ele>171.66666666666666</ele><time>2026-04-03T16:17:47.38Z</time></trkpt><trkpt lat="43.417154" lon="11.1922347"><ele>172.0</ele><time>2026-04-03T16:17:48.346Z</time></trkpt><trkpt lat="43.4171762" lon="11.1921528"><ele>172.33333333333331</ele><time>2026-04-03T16:17:49.357Z</time></trkpt><trkpt lat="43.4172323" lon="11.1920006"><ele>172.66666666666666</ele><time>2026-04-03T16:17:51.349Z</time></trkpt><trkpt lat="43.4172928" lon="11.1918644"><ele>173.0</ele><time>2026-04-03T16:17:53.352Z</time></trkpt><trkpt lat="43.4173484" lon="11.1917309"><ele>173.2</ele><time>2026-04-03T16:17:55.335Z</time></trkpt><trkpt lat="43.4173972" lon="11.1916058"><ele>173.4</ele><time>2026-04-03T16:17:57.332Z</time></trkpt><trkpt lat="43.4174435" lon="11.191491"><ele>173.6</ele><time>2026-04-03T16:17:59.346Z</time></trkpt><trkpt lat="43.4174942" lon="11.191386"><ele>173.79999999999998</ele><time>2026-04-03T16:18:01.343Z</time></trkpt><trkpt lat="43.4175434" lon="11.1912756"><ele>174.0</ele><time>2026-04-03T16:18:03.342Z</time></trkpt><trkpt lat="43.4175937" lon="11.1911616"><ele>174.0</ele><time>2026-04-03T16:18:05.334Z</time></trkpt><trkpt lat="43.4176447" lon="11.1910555"><ele>174.0</ele><time>2026-04-03T16:18:07.353Z</time></trkpt><trkpt lat="43.417682" lon="11.1909471"><ele>174.0</ele><time>2026-04-03T16:18:09.332Z</time></trkpt><trkpt lat="43.4177225" lon="11.1908391"><ele>174.0</ele><time>2026-04-03T16:18:11.357Z</time></trkpt><trkpt lat="43.4177631" lon="11.1907259"><ele>174.0</ele><time>2026-04-03T16:18:13.345Z</time></trkpt><trkpt lat="43.4178105" lon="11.190598"><ele>174.0</ele><time>2026-04-03T16:18:15.348Z</time></trkpt><trkpt lat="43.4178654" lon="11.1904465"><ele>174.0</ele><time>2026-04-03T16:18:17.346Z</time></trkpt><trkpt lat="43.4179226" lon="11.1902924"><ele>174.0</ele><time>2026-04-03T16:18:19.351Z</time></trkpt><trkpt lat="43.4179765" lon="11.1901348"><ele>174.0</ele><time>2026-04-03T16:18:21.351Z</time></trkpt><trkpt lat="43.4180053" lon="11.1900517"><ele>174.0</ele><time>2026-04-03T16:18:22.352Z</time></trkpt><trkpt lat="43.418033" lon="11.1899657"><ele>173.71428571428572</ele><time>2026-04-03T16:18:23.352Z</time></trkpt><trkpt lat="43.4180571" lon="11.1898748"><ele>173.42857142857144</ele><time>2026-04-03T16:18:24.367Z</time></trkpt><trkpt lat="43.4180757" lon="11.1897828"><ele>173.14285714285717</ele><time>2026-04-03T16:18:25.341Z</time></trkpt><trkpt lat="43.4180935" lon="11.1896897"><ele>172.85714285714286</ele><time>2026-04-03T16:18:26.351Z</time></trkpt><trkpt lat="43.418108" lon="11.1895942"><ele>172.57142857142858</ele><time>2026-04-03T16:18:27.349Z</time></trkpt><trkpt lat="43.4181232" lon="11.1894994"><ele>172.2857142857143</ele><time>2026-04-03T16:18:28.359Z</time></trkpt><trkpt lat="43.4181426" lon="11.1894087"><ele>172.0</ele><time>2026-04-03T16:18:29.344Z</time></trkpt><trkpt lat="43.4181724" lon="11.1893198"><ele>171.71428571428572</ele><time>2026-04-03T16:18:30.352Z</time></trkpt><trkpt lat="43.4182172" lon="11.1892451"><ele>171.42857142857144</ele><time>2026-04-03T16:18:31.355Z</time></trkpt><trkpt lat="43.4182767" lon="11.1891925"><ele>171.14285714285717</ele><time>2026-04-03T16:18:32.336Z</time></trkpt><trkpt lat="43.4183324" lon="11.1891408"><ele>170.85714285714286</ele><time>2026-04-03T16:18:33.357Z</time></trkpt><trkpt lat="43.4183699" lon="11.1890645"><ele>170.57142857142856</ele><time>2026-04-03T16:18:34.34Z</time></trkpt><trkpt lat="43.4183921" lon="11.188969"><ele>170.2857142857143</ele><time>2026-04-03T16:18:35.344Z</time></trkpt><trkpt lat="43.4184011" lon="11.1888825"><ele>170.0</ele><time>2026-04-03T16:18:36.36Z</time></trkpt><trkpt lat="43.4184052" lon="11.1887899"><ele>169.83333333333331</ele><time>2026-04-03T16:18:37.333Z</time></trkpt><trkpt lat="43.4184159" lon="11.1886993"><ele>169.66666666666666</ele><time>2026-04-03T16:18:38.354Z</time></trkpt><trkpt lat="43.418439" lon="11.1886128"><ele>169.5</ele><time>2026-04-03T16:18:39.357Z</time></trkpt><trkpt lat="43.4184681" lon="11.1885316"><ele>169.33333333333334</ele><time>2026-04-03T16:18:40.347Z</time></trkpt><trkpt lat="43.4185078" lon="11.1884607"><ele>169.16666666666669</ele><time>2026-04-03T16:18:41.34Z</time></trkpt><trkpt lat="43.4185973" lon="11.1883453"><ele>169.0</ele><time>2026-04-03T16:18:43.348Z</time></trkpt><trkpt lat="43.4186779" lon="11.1882244"><ele>169.6</ele><time>2026-04-03T16:18:45.331Z</time></trkpt><trkpt lat="43.4187578" lon="11.1881028"><ele>170.2</ele><time>2026-04-03T16:18:47.344Z</time></trkpt><trkpt lat="43.4188372" lon="11.1879718"><ele>170.79999999999998</ele><time>2026-04-03T16:18:49.345Z</time></trkpt><trkpt lat="43.4188765" lon="11.1879028"><ele>171.39999999999998</ele><time>2026-04-03T16:18:50.363Z</time></trkpt><trkpt lat="43.4189507" lon="11.1877628"><ele>172.0</ele><time>2026-04-03T16:18:52.361Z</time></trkpt><trkpt lat="43.4189897" lon="11.1876907"><ele>172.0</ele><time>2026-04-03T16:18:53.347Z</time></trkpt><trkpt lat="43.4190279" lon="11.1876185"><ele>172.0</ele><time>2026-04-03T16:18:54.336Z</time></trkpt><trkpt lat="43.4191022" lon="11.1874816"><ele>172.0</ele><time>2026-04-03T16:18:56.367Z</time></trkpt><trkpt lat="43.419176" lon="11.1873474"><ele>172.0</ele><time>2026-04-03T16:18:58.369Z</time></trkpt><trkpt lat="43.4192477" lon="11.1872223"><ele>172.0</ele><time>2026-04-03T16:19:00.347Z</time></trkpt><trkpt lat="43.4193171" lon="11.1871024"><ele>172.39999999999998</ele><time>2026-04-03T16:19:02.361Z</time></trkpt><trkpt lat="43.4193777" lon="11.1869895"><ele>172.79999999999998</ele><time>2026-04-03T16:19:04.342Z</time></trkpt><trkpt lat="43.4194387" lon="11.1868792"><ele>173.2</ele><time>2026-04-03T16:19:06.345Z</time></trkpt><trkpt lat="43.4194949" lon="11.1867703"><ele>173.6</ele><time>2026-04-03T16:19:08.348Z</time></trkpt><trkpt lat="43.4195532" lon="11.1866793"><ele>174.0</ele><time>2026-04-03T16:19:10.345Z</time></trkpt><trkpt lat="43.4196047" lon="11.1865744"><ele>174.33333333333334</ele><time>2026-04-03T16:19:12.338Z</time></trkpt><trkpt lat="43.419662" lon="11.186487"><ele>174.66666666666666</ele><time>2026-04-03T16:19:14.355Z</time></trkpt><trkpt lat="43.4197124" lon="11.1863977"><ele>175.0</ele><time>2026-04-03T16:19:16.356Z</time></trkpt><trkpt lat="43.419765" lon="11.1863083"><ele>175.33333333333331</ele><time>2026-04-03T16:19:18.349Z</time></trkpt><trkpt lat="43.4198173" lon="11.1862089"><ele>175.66666666666666</ele><time>2026-04-03T16:19:20.351Z</time></trkpt><trkpt lat="43.4198637" lon="11.1861027"><ele>176.0</ele><time>2026-04-03T16:19:22.342Z</time></trkpt><trkpt lat="43.4199151" lon="11.186016"><ele>176.0</ele><time>2026-04-03T16:19:24.353Z</time></trkpt><trkpt lat="43.4199657" lon="11.1859509"><ele>176.0</ele><time>2026-04-03T16:19:26.356Z</time></trkpt><trkpt lat="43.4200444" lon="11.1858666"><ele>176.0</ele><time>2026-04-03T16:19:29.353Z</time></trkpt><trkpt lat="43.4200905" lon="11.1857593"><ele>176.0</ele><time>2026-04-03T16:19:31.357Z</time></trkpt><trkpt lat="43.4201385" lon="11.1856394"><ele>176.0</ele><time>2026-04-03T16:19:33.357Z</time></trkpt><trkpt lat="43.4201901" lon="11.1855278"><ele>176.0</ele><time>2026-04-03T16:19:35.34Z</time></trkpt><trkpt lat="43.4202441" lon="11.1854166"><ele>176.0</ele><time>2026-04-03T16:19:37.344Z</time></trkpt><trkpt lat="43.4203014" lon="11.1853033"><ele>176.0</ele><time>2026-04-03T16:19:39.354Z</time></trkpt><trkpt lat="43.4203532" lon="11.1851915"><ele>176.0</ele><time>2026-04-03T16:19:41.355Z</time></trkpt><trkpt lat="43.4204135" lon="11.1850818"><ele>176.0</ele><time>2026-04-03T16:19:43.347Z</time></trkpt><trkpt lat="43.4204818" lon="11.1849718"><ele>175.8</ele><time>2026-04-03T16:19:45.341Z</time></trkpt><trkpt lat="43.4205434" lon="11.1848522"><ele>175.60000000000002</ele><time>2026-04-03T16:19:47.353Z</time></trkpt><trkpt lat="43.4206098" lon="11.184737"><ele>175.4</ele><time>2026-04-03T16:19:49.339Z</time></trkpt><trkpt lat="43.420674" lon="11.1846133"><ele>175.2</ele><time>2026-04-03T16:19:51.353Z</time></trkpt><trkpt lat="43.4207297" lon="11.1844937"><ele>175.0</ele><time>2026-04-03T16:19:53.353Z</time></trkpt><trkpt lat="43.4207936" lon="11.1843771"><ele>175.2</ele><time>2026-04-03T16:19:55.35Z</time></trkpt><trkpt lat="43.4208595" lon="11.1842674"><ele>175.4</ele><time>2026-04-03T16:19:57.338Z</time></trkpt><trkpt lat="43.4209179" lon="11.1841411"><ele>175.60000000000002</ele><time>2026-04-03T16:19:59.345Z</time></trkpt><trkpt lat="43.4209792" lon="11.1840153"><ele>175.8</ele><time>2026-04-03T16:20:01.347Z</time></trkpt><trkpt lat="43.4210446" lon="11.1838985"><ele>176.0</ele><time>2026-04-03T16:20:03.356Z</time></trkpt><trkpt lat="43.4211021" lon="11.1837916"><ele>176.0</ele><time>2026-04-03T16:20:05.365Z</time></trkpt><trkpt lat="43.421154" lon="11.1836926"><ele>176.0</ele><time>2026-04-03T16:20:07.354Z</time></trkpt><trkpt lat="43.4212236" lon="11.1836054"><ele>176.0</ele><time>2026-04-03T16:20:09.34Z</time></trkpt><trkpt lat="43.4212971" lon="11.1835172"><ele>176.0</ele><time>2026-04-03T16:20:11.338Z</time></trkpt><trkpt lat="43.4213849" lon="11.1834365"><ele>176.0</ele><time>2026-04-03T16:20:13.348Z</time></trkpt><trkpt lat="43.421473" lon="11.1833509"><ele>175.8</ele><time>2026-04-03T16:20:15.366Z</time></trkpt><trkpt lat="43.4215579" lon="11.1832651"><ele>175.60000000000002</ele><time>2026-04-03T16:20:17.347Z</time></trkpt><trkpt lat="43.421644" lon="11.1831775"><ele>175.4</ele><time>2026-04-03T16:20:19.34Z</time></trkpt><trkpt lat="43.4217398" lon="11.1830967"><ele>175.2</ele><time>2026-04-03T16:20:21.342Z</time></trkpt><trkpt lat="43.4218419" lon="11.1830042"><ele>175.0</ele><time>2026-04-03T16:20:23.356Z</time></trkpt><trkpt lat="43.4219442" lon="11.1829031"><ele>175.0</ele><time>2026-04-03T16:20:25.352Z</time></trkpt><trkpt lat="43.4220018" lon="11.1828586"><ele>175.0</ele><time>2026-04-03T16:20:26.343Z</time></trkpt><trkpt lat="43.4220605" lon="11.1828178"><ele>175.0</ele><time>2026-04-03T16:20:27.351Z</time></trkpt><trkpt lat="43.4221672" lon="11.1827372"><ele>175.0</ele><time>2026-04-03T16:20:29.341Z</time></trkpt><trkpt lat="43.4222585" lon="11.1826535"><ele>175.0</ele><time>2026-04-03T16:20:31.361Z</time></trkpt><trkpt lat="43.4222632" lon="11.1825097"><ele>175.0</ele><time>2026-04-03T16:20:33.347Z</time></trkpt><trkpt lat="43.4222294" lon="11.1824343"><ele>175.0</ele><time>2026-04-03T16:20:34.351Z</time></trkpt><trkpt lat="43.4221752" lon="11.1823077"><ele>175.0</ele><time>2026-04-03T16:20:36.354Z</time></trkpt><trkpt lat="43.4221157" lon="11.1821754"><ele>175.0</ele><time>2026-04-03T16:20:38.365Z</time></trkpt><trkpt lat="43.4220451" lon="11.1820477"><ele>175.0</ele><time>2026-04-03T16:20:40.357Z</time></trkpt><trkpt lat="43.4219824" lon="11.1819099"><ele>175.0</ele><time>2026-04-03T16:20:42.341Z</time></trkpt><trkpt lat="43.4219197" lon="11.1817664"><ele>175.0</ele><time>2026-04-03T16:20:44.342Z</time></trkpt><trkpt lat="43.4218673" lon="11.1816193"><ele>175.0</ele><time>2026-04-03T16:20:46.347Z</time></trkpt><trkpt lat="43.4218147" lon="11.1814687"><ele>175.0</ele><time>2026-04-03T16:20:48.339Z</time></trkpt><trkpt lat="43.4217642" lon="11.1813209"><ele>174.8</ele><time>2026-04-03T16:20:50.349Z</time></trkpt><trkpt lat="43.4217141" lon="11.1811784"><ele>174.6</ele><time>2026-04-03T16:20:52.343Z</time></trkpt><trkpt lat="43.4216656" lon="11.1810396"><ele>174.39999999999998</ele><time>2026-04-03T16:20:54.382Z</time></trkpt><trkpt lat="43.421616" lon="11.1809008"><ele>174.2</ele><time>2026-04-03T16:20:56.333Z</time></trkpt><trkpt lat="43.4215707" lon="11.1807662"><ele>174.0</ele><time>2026-04-03T16:20:58.345Z</time></trkpt><trkpt lat="43.421546" lon="11.18065"><ele>173.85714285714286</ele><time>2026-04-03T16:21:00.356Z</time></trkpt><trkpt lat="43.4215148" lon="11.1805441"><ele>173.71428571428572</ele><time>2026-04-03T16:21:02.341Z</time></trkpt><trkpt lat="43.4214883" lon="11.1804564"><ele>173.57142857142856</ele><time>2026-04-03T16:21:04.375Z</time></trkpt><trkpt lat="43.4214724" lon="11.1803626"><ele>173.42857142857144</ele><time>2026-04-03T16:21:06.359Z</time></trkpt><trkpt lat="43.4214652" lon="11.1802663"><ele>173.2857142857143</ele><time>2026-04-03T16:21:08.362Z</time></trkpt><trkpt lat="43.4214655" lon="11.1801701"><ele>173.14285714285714</ele><time>2026-04-03T16:21:10.342Z</time></trkpt><trkpt lat="43.4215028" lon="11.180075"><ele>173.0</ele><time>2026-04-03T16:21:12.345Z</time></trkpt><trkpt lat="43.4215471" lon="11.1799707"><ele>173.0</ele><time>2026-04-03T16:21:14.352Z</time></trkpt><trkpt lat="43.4215925" lon="11.1798883"><ele>173.0</ele><time>2026-04-03T16:21:16.36Z</time></trkpt><trkpt lat="43.4216514" lon="11.1798266"><ele>173.0</ele><time>2026-04-03T16:21:18.349Z</time></trkpt><trkpt lat="43.4217209" lon="11.1797909"><ele>173.0</ele><time>2026-04-03T16:21:20.358Z</time></trkpt><trkpt lat="43.421797" lon="11.1797382"><ele>173.0</ele><time>2026-04-03T16:21:22.341Z</time></trkpt><trkpt lat="43.4218701" lon="11.1796871"><ele>173.0</ele><time>2026-04-03T16:21:24.357Z</time></trkpt><trkpt lat="43.4219473" lon="11.1796556"><ele>173.60000000000002</ele><time>2026-04-03T16:21:26.345Z</time></trkpt><trkpt lat="43.4220273" lon="11.179622"><ele>174.20000000000002</ele><time>2026-04-03T16:21:28.346Z</time></trkpt><trkpt lat="43.4221087" lon="11.1795809"><ele>174.8</ele><time>2026-04-03T16:21:30.343Z</time></trkpt><trkpt lat="43.422198" lon="11.1795484"><ele>175.4</ele><time>2026-04-03T16:21:32.344Z</time></trkpt><trkpt lat="43.4222918" lon="11.1795219"><ele>176.0</ele><time>2026-04-03T16:21:34.371Z</time></trkpt><trkpt lat="43.4223854" lon="11.1795018"><ele>176.4</ele><time>2026-04-03T16:21:36.361Z</time></trkpt><trkpt lat="43.4224838" lon="11.1794656"><ele>176.8</ele><time>2026-04-03T16:21:38.337Z</time></trkpt><trkpt lat="43.422582" lon="11.1794324"><ele>177.20000000000002</ele><time>2026-04-03T16:21:40.346Z</time></trkpt><trkpt lat="43.4226826" lon="11.1793991"><ele>177.60000000000002</ele><time>2026-04-03T16:21:42.345Z</time></trkpt><trkpt lat="43.4227899" lon="11.1793775"><ele>178.0</ele><time>2026-04-03T16:21:44.349Z</time></trkpt><trkpt lat="43.4229006" lon="11.179349"><ele>177.0</ele><time>2026-04-03T16:21:46.353Z</time></trkpt><trkpt lat="43.4230126" lon="11.1793211"><ele>176.0</ele><time>2026-04-03T16:21:48.372Z</time></trkpt><trkpt lat="43.4231205" lon="11.1792935"><ele>175.0</ele><time>2026-04-03T16:21:50.335Z</time></trkpt><trkpt lat="43.4232325" lon="11.1792662"><ele>174.0</ele><time>2026-04-03T16:21:52.348Z</time></trkpt><trkpt lat="43.4233369" lon="11.1792271"><ele>173.0</ele><time>2026-04-03T16:21:54.362Z</time></trkpt><trkpt lat="43.4234354" lon="11.179209"><ele>173.0</ele><time>2026-04-03T16:21:56.358Z</time></trkpt><trkpt lat="43.4235366" lon="11.1791687"><ele>173.0</ele><time>2026-04-03T16:21:58.349Z</time></trkpt><trkpt lat="43.4236458" lon="11.1791507"><ele>173.0</ele><time>2026-04-03T16:22:00.356Z</time></trkpt><trkpt lat="43.4237548" lon="11.1791253"><ele>173.0</ele><time>2026-04-03T16:22:02.353Z</time></trkpt><trkpt lat="43.4238585" lon="11.1790941"><ele>173.0</ele><time>2026-04-03T16:22:04.338Z</time></trkpt><trkpt lat="43.4239641" lon="11.1790614"><ele>172.5</ele><time>2026-04-03T16:22:06.338Z</time></trkpt><trkpt lat="43.4240767" lon="11.1790329"><ele>172.0</ele><time>2026-04-03T16:22:08.342Z</time></trkpt><trkpt lat="43.4241863" lon="11.179009"><ele>171.5</ele><time>2026-04-03T16:22:10.348Z</time></trkpt><trkpt lat="43.4242988" lon="11.1789923"><ele>171.0</ele><time>2026-04-03T16:22:12.374Z</time></trkpt><trkpt lat="43.4244135" lon="11.1789463"><ele>171.16666666666666</ele><time>2026-04-03T16:22:14.352Z</time></trkpt><trkpt lat="43.4245295" lon="11.1789102"><ele>171.33333333333334</ele><time>2026-04-03T16:22:16.35Z</time></trkpt><trkpt lat="43.4246503" lon="11.1788894"><ele>171.5</ele><time>2026-04-03T16:22:18.361Z</time></trkpt><trkpt lat="43.4247139" lon="11.17889"><ele>171.66666666666669</ele><time>2026-04-03T16:22:19.35Z</time></trkpt><trkpt lat="43.4247807" lon="11.1788829"><ele>171.83333333333334</ele><time>2026-04-03T16:22:20.354Z</time></trkpt><trkpt lat="43.4248503" lon="11.1788658"><ele>172.0</ele><time>2026-04-03T16:22:21.345Z</time></trkpt><trkpt lat="43.4249204" lon="11.1788515"><ele>172.0</ele><time>2026-04-03T16:22:22.353Z</time></trkpt><trkpt lat="43.4249896" lon="11.1788432"><ele>172.0</ele><time>2026-04-03T16:22:23.339Z</time></trkpt><trkpt lat="43.425061" lon="11.17884"><ele>172.0</ele><time>2026-04-03T16:22:24.349Z</time></trkpt><trkpt lat="43.4251333" lon="11.1788375"><ele>172.0</ele><time>2026-04-03T16:22:25.358Z</time></trkpt><trkpt lat="43.4252083" lon="11.1788372"><ele>172.0</ele><time>2026-04-03T16:22:26.346Z</time></trkpt><trkpt lat="43.4252901" lon="11.1788402"><ele>172.0</ele><time>2026-04-03T16:22:27.352Z</time></trkpt><trkpt lat="43.4253722" lon="11.1788554"><ele>172.0</ele><time>2026-04-03T16:22:28.347Z</time></trkpt><trkpt lat="43.4254506" lon="11.1788845"><ele>172.0</ele><time>2026-04-03T16:22:29.352Z</time></trkpt><trkpt lat="43.4255277" lon="11.1789167"><ele>172.0</ele><time>2026-04-03T16:22:30.358Z</time></trkpt><trkpt lat="43.4256043" lon="11.1789532"><ele>172.0</ele><time>2026-04-03T16:22:31.359Z</time></trkpt><trkpt lat="43.4256734" lon="11.1790128"><ele>172.0</ele><time>2026-04-03T16:22:32.36Z</time></trkpt><trkpt lat="43.4257316" lon="11.1790926"><ele>172.0</ele><time>2026-04-03T16:22:33.345Z</time></trkpt><trkpt lat="43.4257886" lon="11.1791702"><ele>171.33333333333334</ele><time>2026-04-03T16:22:34.339Z</time></trkpt><trkpt lat="43.425852" lon="11.1792396"><ele>170.66666666666669</ele><time>2026-04-03T16:22:35.366Z</time></trkpt><trkpt lat="43.4259252" lon="11.1792664"><ele>170.0</ele><time>2026-04-03T16:22:36.34Z</time></trkpt><trkpt lat="43.4259962" lon="11.1792516"><ele>169.33333333333334</ele><time>2026-04-03T16:22:37.357Z</time></trkpt><trkpt lat="43.4260511" lon="11.1791928"><ele>168.66666666666666</ele><time>2026-04-03T16:22:38.365Z</time></trkpt><trkpt lat="43.4260859" lon="11.1791183"><ele>168.0</ele><time>2026-04-03T16:22:39.344Z</time></trkpt><trkpt lat="43.4261085" lon="11.1789531"><ele>168.0</ele><time>2026-04-03T16:22:41.351Z</time></trkpt><trkpt lat="43.4261015" lon="11.1788121"><ele>168.0</ele><time>2026-04-03T16:22:43.346Z</time></trkpt><trkpt lat="43.4261183" lon="11.1786976"><ele>168.0</ele><time>2026-04-03T16:22:45.332Z</time></trkpt><trkpt lat="43.4261811" lon="11.1785986"><ele>168.0</ele><time>2026-04-03T16:22:47.361Z</time></trkpt><trkpt lat="43.4262548" lon="11.1785028"><ele>168.0</ele><time>2026-04-03T16:22:49.367Z</time></trkpt><trkpt lat="43.4263183" lon="11.178401"><ele>167.4</ele><time>2026-04-03T16:22:51.354Z</time></trkpt><trkpt lat="43.4263781" lon="11.178299"><ele>166.8</ele><time>2026-04-03T16:22:53.364Z</time></trkpt><trkpt lat="43.4264334" lon="11.1781953"><ele>166.2</ele><time>2026-04-03T16:22:55.35Z</time></trkpt><trkpt lat="43.4264887" lon="11.1780925"><ele>165.6</ele><time>2026-04-03T16:22:57.346Z</time></trkpt><trkpt lat="43.426549" lon="11.177988"><ele>165.0</ele><time>2026-04-03T16:22:59.352Z</time></trkpt><trkpt lat="43.4266091" lon="11.1778844"><ele>165.0</ele><time>2026-04-03T16:23:01.354Z</time></trkpt><trkpt lat="43.4266653" lon="11.1777787"><ele>165.0</ele><time>2026-04-03T16:23:03.344Z</time></trkpt><trkpt lat="43.4267285" lon="11.1776681"><ele>165.0</ele><time>2026-04-03T16:23:05.349Z</time></trkpt><trkpt lat="43.4267933" lon="11.1775437"><ele>165.0</ele><time>2026-04-03T16:23:07.34Z</time></trkpt><trkpt lat="43.4268561" lon="11.1774217"><ele>165.0</ele><time>2026-04-03T16:23:09.356Z</time></trkpt><trkpt lat="43.4269236" lon="11.1772973"><ele>165.0</ele><time>2026-04-03T16:23:11.359Z</time></trkpt><trkpt lat="43.4269892" lon="11.1771733"><ele>165.0</ele><time>2026-04-03T16:23:13.354Z</time></trkpt><trkpt lat="43.4270539" lon="11.1770434"><ele>165.0</ele><time>2026-04-03T16:23:15.372Z</time></trkpt><trkpt lat="43.4271084" lon="11.1769055"><ele>165.0</ele><time>2026-04-03T16:23:17.347Z</time></trkpt><trkpt lat="43.4271613" lon="11.1767621"><ele>164.4</ele><time>2026-04-03T16:23:19.349Z</time></trkpt><trkpt lat="43.4272043" lon="11.1766188"><ele>163.8</ele><time>2026-04-03T16:23:21.353Z</time></trkpt><trkpt lat="43.4272319" lon="11.1764638"><ele>163.2</ele><time>2026-04-03T16:23:23.359Z</time></trkpt><trkpt lat="43.4272453" lon="11.1762971"><ele>162.6</ele><time>2026-04-03T16:23:25.363Z</time></trkpt><trkpt lat="43.4272502" lon="11.1762099"><ele>162.0</ele><time>2026-04-03T16:23:26.367Z</time></trkpt><trkpt lat="43.4272534" lon="11.1760461"><ele>162.0</ele><time>2026-04-03T16:23:28.346Z</time></trkpt><trkpt lat="43.4272592" lon="11.1758884"><ele>162.0</ele><time>2026-04-03T16:23:30.347Z</time></trkpt><trkpt lat="43.4272665" lon="11.1757249"><ele>162.0</ele><time>2026-04-03T16:23:32.358Z</time></trkpt><trkpt lat="43.4272899" lon="11.1755651"><ele>162.0</ele><time>2026-04-03T16:23:34.347Z</time></trkpt><trkpt lat="43.427359" lon="11.1754333"><ele>163.75</ele><time>2026-04-03T16:23:36.346Z</time></trkpt><trkpt lat="43.4274622" lon="11.1753465"><ele>165.5</ele><time>2026-04-03T16:23:38.336Z</time></trkpt><trkpt lat="43.4275704" lon="11.1752859"><ele>167.25</ele><time>2026-04-03T16:23:40.35Z</time></trkpt><trkpt lat="43.4276789" lon="11.1752465"><ele>169.0</ele><time>2026-04-03T16:23:42.351Z</time></trkpt><trkpt lat="43.4277762" lon="11.175199"><ele>169.0</ele><time>2026-04-03T16:23:44.349Z</time></trkpt><trkpt lat="43.4278654" lon="11.1751518"><ele>169.0</ele><time>2026-04-03T16:23:46.347Z</time></trkpt><trkpt lat="43.4279534" lon="11.1751063"><ele>169.0</ele><time>2026-04-03T16:23:48.361Z</time></trkpt><trkpt lat="43.4280419" lon="11.1750636"><ele>169.0</ele><time>2026-04-03T16:23:50.355Z</time></trkpt><trkpt lat="43.4281267" lon="11.1750182"><ele>169.0</ele><time>2026-04-03T16:23:52.347Z</time></trkpt><trkpt lat="43.4282136" lon="11.1749838"><ele>168.39999999999998</ele><time>2026-04-03T16:23:54.361Z</time></trkpt><trkpt lat="43.4282985" lon="11.174946"><ele>167.8</ele><time>2026-04-03T16:23:56.355Z</time></trkpt><trkpt lat="43.4283834" lon="11.1748998"><ele>167.2</ele><time>2026-04-03T16:23:58.345Z</time></trkpt><trkpt lat="43.4284675" lon="11.1748578"><ele>166.60000000000002</ele><time>2026-04-03T16:24:00.348Z</time></trkpt><trkpt lat="43.4285517" lon="11.17482"><ele>166.0</ele><time>2026-04-03T16:24:02.353Z</time></trkpt><trkpt lat="43.4286384" lon="11.1747784"><ele>167.8</ele><time>2026-04-03T16:24:04.353Z</time></trkpt><trkpt lat="43.4287244" lon="11.1747433"><ele>169.60000000000002</ele><time>2026-04-03T16:24:06.347Z</time></trkpt><trkpt lat="43.4288138" lon="11.1747257"><ele>171.4</ele><time>2026-04-03T16:24:08.349Z</time></trkpt><trkpt lat="43.4289017" lon="11.1747278"><ele>173.2</ele><time>2026-04-03T16:24:10.356Z</time></trkpt><trkpt lat="43.4289895" lon="11.1747499"><ele>175.0</ele><time>2026-04-03T16:24:12.342Z</time></trkpt><trkpt lat="43.4290794" lon="11.1747858"><ele>175.0</ele><time>2026-04-03T16:24:14.352Z</time></trkpt><trkpt lat="43.4291686" lon="11.174835"><ele>175.0</ele><time>2026-04-03T16:24:16.344Z</time></trkpt><trkpt lat="43.4292517" lon="11.1749078"><ele>175.0</ele><time>2026-04-03T16:24:18.351Z</time></trkpt><trkpt lat="43.4293227" lon="11.1749921"><ele>175.0</ele><time>2026-04-03T16:24:20.358Z</time></trkpt><trkpt lat="43.4293902" lon="11.1750858"><ele>175.0</ele><time>2026-04-03T16:24:22.356Z</time></trkpt><trkpt lat="43.4294655" lon="11.1751773"><ele>174.0</ele><time>2026-04-03T16:24:24.345Z</time></trkpt><trkpt lat="43.4295436" lon="11.1752773"><ele>173.0</ele><time>2026-04-03T16:24:26.346Z</time></trkpt><trkpt lat="43.4296285" lon="11.1753741"><ele>172.0</ele><time>2026-04-03T16:24:28.355Z</time></trkpt><trkpt lat="43.4297119" lon="11.1754785"><ele>171.0</ele><time>2026-04-03T16:24:30.357Z</time></trkpt><trkpt lat="43.4297971" lon="11.1755798"><ele>170.0</ele><time>2026-04-03T16:24:32.347Z</time></trkpt><trkpt lat="43.4298913" lon="11.1756662"><ele>168.75</ele><time>2026-04-03T16:24:34.355Z</time></trkpt><trkpt lat="43.4299995" lon="11.1757025"><ele>167.5</ele><time>2026-04-03T16:24:36.345Z</time></trkpt><trkpt lat="43.4301159" lon="11.175683"><ele>166.25</ele><time>2026-04-03T16:24:38.338Z</time></trkpt><trkpt lat="43.4302231" lon="11.1756091"><ele>165.0</ele><time>2026-04-03T16:24:40.344Z</time></trkpt><trkpt lat="43.4303069" lon="11.175483"><ele>165.00000000000003</ele><time>2026-04-03T16:24:42.363Z</time></trkpt><trkpt lat="43.4303403" lon="11.175406"><ele>165.0</ele><time>2026-04-03T16:24:43.344Z</time></trkpt><trkpt lat="43.4303736" lon="11.1753239"><ele>165.0</ele><time>2026-04-03T16:24:44.347Z</time></trkpt><trkpt lat="43.43041" lon="11.1752389"><ele>165.0</ele><time>2026-04-03T16:24:45.358Z</time></trkpt><trkpt lat="43.4304505" lon="11.1751558"><ele>165.0</ele><time>2026-04-03T16:24:46.358Z</time></trkpt><trkpt lat="43.4305012" lon="11.1750877"><ele>165.00000000000003</ele><time>2026-04-03T16:24:47.343Z</time></trkpt><trkpt lat="43.4305631" lon="11.1750463"><ele>165.0</ele><time>2026-04-03T16:24:48.377Z</time></trkpt><trkpt lat="43.4306278" lon="11.1750265"><ele>164.57142857142858</ele><time>2026-04-03T16:24:49.349Z</time></trkpt><trkpt lat="43.4306959" lon="11.1750104"><ele>164.14285714285714</ele><time>2026-04-03T16:24:50.353Z</time></trkpt><trkpt lat="43.4307608" lon="11.1749965"><ele>163.71428571428572</ele><time>2026-04-03T16:24:51.357Z</time></trkpt><trkpt lat="43.4308272" lon="11.1749935"><ele>163.28571428571428</ele><time>2026-04-03T16:24:52.351Z</time></trkpt><trkpt lat="43.4308932" lon="11.1750046"><ele>162.85714285714286</ele><time>2026-04-03T16:24:53.353Z</time></trkpt><trkpt lat="43.4309568" lon="11.1750302"><ele>162.42857142857144</ele><time>2026-04-03T16:24:54.356Z</time></trkpt><trkpt lat="43.4310129" lon="11.1750753"><ele>162.0</ele><time>2026-04-03T16:24:55.351Z</time></trkpt><trkpt lat="43.4310608" lon="11.1751368"><ele>162.0</ele><time>2026-04-03T16:24:56.354Z</time></trkpt><trkpt lat="43.4311211" lon="11.175276"><ele>162.0</ele><time>2026-04-03T16:24:58.344Z</time></trkpt><trkpt lat="43.4311452" lon="11.1753562"><ele>162.0</ele><time>2026-04-03T16:24:59.359Z</time></trkpt><trkpt lat="43.4311805" lon="11.1755105"><ele>162.0</ele><time>2026-04-03T16:25:01.342Z</time></trkpt><trkpt lat="43.4312217" lon="11.1756578"><ele>162.0</ele><time>2026-04-03T16:25:03.348Z</time></trkpt><trkpt lat="43.4312638" lon="11.1758017"><ele>162.2</ele><time>2026-04-03T16:25:05.346Z</time></trkpt><trkpt lat="43.4313124" lon="11.17593"><ele>162.39999999999998</ele><time>2026-04-03T16:25:07.351Z</time></trkpt><trkpt lat="43.4313811" lon="11.1760489"><ele>162.60000000000002</ele><time>2026-04-03T16:25:09.342Z</time></trkpt><trkpt lat="43.4314586" lon="11.1761585"><ele>162.8</ele><time>2026-04-03T16:25:11.352Z</time></trkpt><trkpt lat="43.4315444" lon="11.1762528"><ele>163.0</ele><time>2026-04-03T16:25:13.352Z</time></trkpt><trkpt lat="43.4316395" lon="11.1763407"><ele>163.0</ele><time>2026-04-03T16:25:15.36Z</time></trkpt><trkpt lat="43.4317298" lon="11.1764366"><ele>163.0</ele><time>2026-04-03T16:25:17.352Z</time></trkpt><trkpt lat="43.4318121" lon="11.1765367"><ele>163.0</ele><time>2026-04-03T16:25:19.366Z</time></trkpt><trkpt lat="43.4318941" lon="11.1766341"><ele>163.0</ele><time>2026-04-03T16:25:21.35Z</time></trkpt><trkpt lat="43.4319854" lon="11.1767274"><ele>163.0</ele><time>2026-04-03T16:25:23.34Z</time></trkpt><trkpt lat="43.4320789" lon="11.1768172"><ele>162.20000000000002</ele><time>2026-04-03T16:25:25.355Z</time></trkpt><trkpt lat="43.4321736" lon="11.176901"><ele>161.4</ele><time>2026-04-03T16:25:27.36Z</time></trkpt><trkpt lat="43.4322686" lon="11.176972"><ele>160.60000000000002</ele><time>2026-04-03T16:25:29.359Z</time></trkpt><trkpt lat="43.4323635" lon="11.1770283"><ele>159.8</ele><time>2026-04-03T16:25:31.34Z</time></trkpt><trkpt lat="43.4324657" lon="11.1770808"><ele>159.0</ele><time>2026-04-03T16:25:33.337Z</time></trkpt><trkpt lat="43.4325693" lon="11.1770858"><ele>159.0</ele><time>2026-04-03T16:25:35.353Z</time></trkpt><trkpt lat="43.4326764" lon="11.1770703"><ele>159.0</ele><time>2026-04-03T16:25:37.349Z</time></trkpt><trkpt lat="43.4327863" lon="11.1770443"><ele>159.0</ele><time>2026-04-03T16:25:39.36Z</time></trkpt><trkpt lat="43.4329007" lon="11.1769976"><ele>159.0</ele><time>2026-04-03T16:25:41.346Z</time></trkpt><trkpt lat="43.4330111" lon="11.176949"><ele>158.5</ele><time>2026-04-03T16:25:43.351Z</time></trkpt><trkpt lat="43.4331205" lon="11.1768949"><ele>158.0</ele><time>2026-04-03T16:25:45.351Z</time></trkpt><trkpt lat="43.4332295" lon="11.1768357"><ele>157.5</ele><time>2026-04-03T16:25:47.348Z</time></trkpt><trkpt lat="43.433343" lon="11.1767801"><ele>157.0</ele><time>2026-04-03T16:25:49.353Z</time></trkpt><trkpt lat="43.4334615" lon="11.1767231"><ele>157.0</ele><time>2026-04-03T16:25:51.347Z</time></trkpt><trkpt lat="43.4335224" lon="11.1766963"><ele>157.0</ele><time>2026-04-03T16:25:52.36Z</time></trkpt><trkpt lat="43.433583" lon="11.1766711"><ele>157.0</ele><time>2026-04-03T16:25:53.353Z</time></trkpt><trkpt lat="43.4336977" lon="11.1766162"><ele>157.0</ele><time>2026-04-03T16:25:55.344Z</time></trkpt><trkpt lat="43.4338094" lon="11.1765597"><ele>157.0</ele><time>2026-04-03T16:25:57.357Z</time></trkpt><trkpt lat="43.4339106" lon="11.1764988"><ele>157.4</ele><time>2026-04-03T16:25:59.349Z</time></trkpt><trkpt lat="43.4340111" lon="11.1764384"><ele>157.79999999999998</ele><time>2026-04-03T16:26:01.35Z</time></trkpt><trkpt lat="43.4341056" lon="11.1763687"><ele>158.2</ele><time>2026-04-03T16:26:03.346Z</time></trkpt><trkpt lat="43.4341992" lon="11.1762951"><ele>158.6</ele><time>2026-04-03T16:26:05.343Z</time></trkpt><trkpt lat="43.4342915" lon="11.1762103"><ele>159.0</ele><time>2026-04-03T16:26:07.343Z</time></trkpt><trkpt lat="43.4343823" lon="11.176125"><ele>159.0</ele><time>2026-04-03T16:26:09.34Z</time></trkpt><trkpt lat="43.4344721" lon="11.1760344"><ele>159.0</ele><time>2026-04-03T16:26:11.34Z</time></trkpt><trkpt lat="43.4345588" lon="11.175926"><ele>159.0</ele><time>2026-04-03T16:26:13.342Z</time></trkpt><trkpt lat="43.4346544" lon="11.1758158"><ele>159.0</ele><time>2026-04-03T16:26:15.357Z</time></trkpt><trkpt lat="43.4347034" lon="11.1757588"><ele>159.0</ele><time>2026-04-03T16:26:16.359Z</time></trkpt><trkpt lat="43.4347523" lon="11.1756992"><ele>158.42857142857142</ele><time>2026-04-03T16:26:17.356Z</time></trkpt><trkpt lat="43.4348022" lon="11.1756395"><ele>157.85714285714286</ele><time>2026-04-03T16:26:18.351Z</time></trkpt><trkpt lat="43.4348537" lon="11.1755801"><ele>157.28571428571428</ele><time>2026-04-03T16:26:19.348Z</time></trkpt><trkpt lat="43.4349063" lon="11.1755197"><ele>156.71428571428572</ele><time>2026-04-03T16:26:20.349Z</time></trkpt><trkpt lat="43.4349602" lon="11.1754601"><ele>156.14285714285714</ele><time>2026-04-03T16:26:21.354Z</time></trkpt><trkpt lat="43.4350141" lon="11.1754028"><ele>155.57142857142858</ele><time>2026-04-03T16:26:22.358Z</time></trkpt><trkpt lat="43.4350665" lon="11.1753444"><ele>155.0</ele><time>2026-04-03T16:26:23.353Z</time></trkpt><trkpt lat="43.4351184" lon="11.1752837"><ele>155.0</ele><time>2026-04-03T16:26:24.351Z</time></trkpt><trkpt lat="43.4351694" lon="11.1752195"><ele>155.0</ele><time>2026-04-03T16:26:25.336Z</time></trkpt><trkpt lat="43.4352231" lon="11.1751526"><ele>155.0</ele><time>2026-04-03T16:26:26.35Z</time></trkpt><trkpt lat="43.4352745" lon="11.1750843"><ele>155.0</ele><time>2026-04-03T16:26:27.365Z</time></trkpt><trkpt lat="43.4353268" lon="11.1750153"><ele>155.0</ele><time>2026-04-03T16:26:28.36Z</time></trkpt><trkpt lat="43.4353809" lon="11.1749475"><ele>155.0</ele><time>2026-04-03T16:26:29.368Z</time></trkpt><trkpt lat="43.435433" lon="11.174878"><ele>155.0</ele><time>2026-04-03T16:26:30.35Z</time></trkpt><trkpt lat="43.4354839" lon="11.1748106"><ele>154.85714285714286</ele><time>2026-04-03T16:26:31.365Z</time></trkpt><trkpt lat="43.4355354" lon="11.1747441"><ele>154.71428571428572</ele><time>2026-04-03T16:26:32.355Z</time></trkpt><trkpt lat="43.4355885" lon="11.1746794"><ele>154.57142857142856</ele><time>2026-04-03T16:26:33.362Z</time></trkpt><trkpt lat="43.4356422" lon="11.1746121"><ele>154.42857142857144</ele><time>2026-04-03T16:26:34.352Z</time></trkpt><trkpt lat="43.4356964" lon="11.1745418"><ele>154.28571428571428</ele><time>2026-04-03T16:26:35.345Z</time></trkpt><trkpt lat="43.4357485" lon="11.1744727"><ele>154.14285714285714</ele><time>2026-04-03T16:26:36.332Z</time></trkpt><trkpt lat="43.4358008" lon="11.174403"><ele>154.0</ele><time>2026-04-03T16:26:37.353Z</time></trkpt><trkpt lat="43.4358533" lon="11.174333"><ele>154.0</ele><time>2026-04-03T16:26:38.348Z</time></trkpt><trkpt lat="43.4359082" lon="11.1742665"><ele>154.0</ele><time>2026-04-03T16:26:39.351Z</time></trkpt><trkpt lat="43.435965" lon="11.174197"><ele>154.0</ele><time>2026-04-03T16:26:40.36Z</time></trkpt><trkpt lat="43.43602" lon="11.1741268"><ele>154.0</ele><time>2026-04-03T16:26:41.357Z</time></trkpt><trkpt lat="43.4360759" lon="11.1740518"><ele>154.0</ele><time>2026-04-03T16:26:42.361Z</time></trkpt><trkpt lat="43.4361322" lon="11.173975"><ele>154.0</ele><time>2026-04-03T16:26:43.365Z</time></trkpt><trkpt lat="43.4361904" lon="11.1738982"><ele>154.0</ele><time>2026-04-03T16:26:44.349Z</time></trkpt><trkpt lat="43.4362521" lon="11.1738194"><ele>154.0</ele><time>2026-04-03T16:26:45.336Z</time></trkpt><trkpt lat="43.4363146" lon="11.1737382"><ele>154.0</ele><time>2026-04-03T16:26:46.354Z</time></trkpt><trkpt lat="43.4363768" lon="11.1736577"><ele>154.0</ele><time>2026-04-03T16:26:47.34Z</time></trkpt><trkpt lat="43.4364389" lon="11.1735761"><ele>154.0</ele><time>2026-04-03T16:26:48.348Z</time></trkpt><trkpt lat="43.4365021" lon="11.1734973"><ele>154.0</ele><time>2026-04-03T16:26:49.339Z</time></trkpt><trkpt lat="43.4365696" lon="11.1734123"><ele>152.8</ele><time>2026-04-03T16:26:50.342Z</time></trkpt><trkpt lat="43.4366365" lon="11.1733265"><ele>151.60000000000002</ele><time>2026-04-03T16:26:51.341Z</time></trkpt><trkpt lat="43.436703" lon="11.1732387"><ele>150.4</ele><time>2026-04-03T16:26:52.344Z</time></trkpt><trkpt lat="43.4367697" lon="11.1731496"><ele>149.20000000000002</ele><time>2026-04-03T16:26:53.366Z</time></trkpt><trkpt lat="43.4368369" lon="11.1730647"><ele>148.0</ele><time>2026-04-03T16:26:54.329Z</time></trkpt><trkpt lat="43.4369072" lon="11.1729766"><ele>148.0</ele><time>2026-04-03T16:26:55.352Z</time></trkpt><trkpt lat="43.4369733" lon="11.1728933"><ele>148.0</ele><time>2026-04-03T16:26:56.35Z</time></trkpt><trkpt lat="43.4370353" lon="11.1728127"><ele>148.0</ele><time>2026-04-03T16:26:57.343Z</time></trkpt><trkpt lat="43.4370973" lon="11.1727352"><ele>148.0</ele><time>2026-04-03T16:26:58.351Z</time></trkpt><trkpt lat="43.4371582" lon="11.1726606"><ele>148.0</ele><time>2026-04-03T16:26:59.364Z</time></trkpt><trkpt lat="43.437215" lon="11.1725845"><ele>148.0</ele><time>2026-04-03T16:27:00.337Z</time></trkpt><trkpt lat="43.4372678" lon="11.1725047"><ele>147.71428571428572</ele><time>2026-04-03T16:27:01.353Z</time></trkpt><trkpt lat="43.4373131" lon="11.1724243"><ele>147.42857142857142</ele><time>2026-04-03T16:27:02.34Z</time></trkpt><trkpt lat="43.4373551" lon="11.1723407"><ele>147.14285714285714</ele><time>2026-04-03T16:27:03.341Z</time></trkpt><trkpt lat="43.4373954" lon="11.1722597"><ele>146.85714285714286</ele><time>2026-04-03T16:27:04.353Z</time></trkpt><trkpt lat="43.4374342" lon="11.1721804"><ele>146.57142857142858</ele><time>2026-04-03T16:27:05.34Z</time></trkpt><trkpt lat="43.4374717" lon="11.1720977"><ele>146.28571428571428</ele><time>2026-04-03T16:27:06.351Z</time></trkpt><trkpt lat="43.4375038" lon="11.1720145"><ele>146.0</ele><time>2026-04-03T16:27:07.339Z</time></trkpt><trkpt lat="43.43753" lon="11.1719304"><ele>146.0</ele><time>2026-04-03T16:27:08.344Z</time></trkpt><trkpt lat="43.4375672" lon="11.1717655"><ele>146.0</ele><time>2026-04-03T16:27:10.344Z</time></trkpt><trkpt lat="43.4375839" lon="11.1716815"><ele>146.0</ele><time>2026-04-03T16:27:11.345Z</time></trkpt><trkpt lat="43.4376109" lon="11.1715153"><ele>146.0</ele><time>2026-04-03T16:27:13.358Z</time></trkpt><trkpt lat="43.4376219" lon="11.171348"><ele>146.0</ele><time>2026-04-03T16:27:15.356Z</time></trkpt><trkpt lat="43.4376274" lon="11.1712595"><ele>145.85714285714286</ele><time>2026-04-03T16:27:16.357Z</time></trkpt><trkpt lat="43.4376369" lon="11.1711732"><ele>145.71428571428572</ele><time>2026-04-03T16:27:17.348Z</time></trkpt><trkpt lat="43.4376518" lon="11.1710878"><ele>145.57142857142858</ele><time>2026-04-03T16:27:18.351Z</time></trkpt><trkpt lat="43.4376727" lon="11.1710028"><ele>145.42857142857144</ele><time>2026-04-03T16:27:19.347Z</time></trkpt><trkpt lat="43.4376942" lon="11.1709184"><ele>145.2857142857143</ele><time>2026-04-03T16:27:20.353Z</time></trkpt><trkpt lat="43.4377067" lon="11.17083"><ele>145.14285714285714</ele><time>2026-04-03T16:27:21.347Z</time></trkpt><trkpt lat="43.437716" lon="11.1707396"><ele>145.0</ele><time>2026-04-03T16:27:22.347Z</time></trkpt><trkpt lat="43.4377249" lon="11.1706477"><ele>144.66666666666669</ele><time>2026-04-03T16:27:23.349Z</time></trkpt><trkpt lat="43.4377338" lon="11.170559"><ele>144.33333333333334</ele><time>2026-04-03T16:27:24.348Z</time></trkpt><trkpt lat="43.4377432" lon="11.1704696"><ele>144.0</ele><time>2026-04-03T16:27:25.343Z</time></trkpt><trkpt lat="43.4377553" lon="11.1703835"><ele>143.66666666666666</ele><time>2026-04-03T16:27:26.346Z</time></trkpt><trkpt lat="43.4377674" lon="11.1702982"><ele>143.33333333333331</ele><time>2026-04-03T16:27:27.356Z</time></trkpt><trkpt lat="43.4377887" lon="11.1701368"><ele>143.0</ele><time>2026-04-03T16:27:29.352Z</time></trkpt><trkpt lat="43.4378155" lon="11.1699863"><ele>142.16666666666666</ele><time>2026-04-03T16:27:31.347Z</time></trkpt><trkpt lat="43.4378376" lon="11.1698515"><ele>141.33333333333331</ele><time>2026-04-03T16:27:33.369Z</time></trkpt><trkpt lat="43.4378535" lon="11.1697257"><ele>140.5</ele><time>2026-04-03T16:27:35.337Z</time></trkpt><trkpt lat="43.4378672" lon="11.1696242"><ele>139.66666666666666</ele><time>2026-04-03T16:27:37.35Z</time></trkpt><trkpt lat="43.4379022" lon="11.1695484"><ele>138.83333333333334</ele><time>2026-04-03T16:27:39.364Z</time></trkpt><trkpt lat="43.4379634" lon="11.1694972"><ele>138.0</ele><time>2026-04-03T16:27:41.356Z</time></trkpt><trkpt lat="43.4380253" lon="11.169421"><ele>137.5</ele><time>2026-04-03T16:27:44.354Z</time></trkpt><trkpt lat="43.4380907" lon="11.1693568"><ele>137.0</ele><time>2026-04-03T16:27:47.359Z</time></trkpt><trkpt lat="43.4381618" lon="11.1692874"><ele>136.5</ele><time>2026-04-03T16:27:50.352Z</time></trkpt><trkpt lat="43.4382421" lon="11.1692416"><ele>136.0</ele><time>2026-04-03T16:27:53.342Z</time></trkpt><trkpt lat="43.4383233" lon="11.1692051"><ele>135.5</ele><time>2026-04-03T16:27:56.35Z</time></trkpt><trkpt lat="43.4383838" lon="11.169179"><ele>135.0</ele><time>2026-04-03T16:27:59.344Z</time></trkpt><trkpt lat="43.4384594" lon="11.1691332"><ele>135.0</ele><time>2026-04-03T16:28:03.353Z</time></trkpt><trkpt lat="43.4385302" lon="11.16909"><ele>135.0</ele><time>2026-04-03T16:28:06.359Z</time></trkpt><trkpt lat="43.4385973" lon="11.1690508"><ele>135.0</ele><time>2026-04-03T16:28:09.345Z</time></trkpt><trkpt lat="43.4386686" lon="11.1689848"><ele>135.0</ele><time>2026-04-03T16:28:12.347Z</time></trkpt><trkpt lat="43.4387228" lon="11.1689021"><ele>135.0</ele><time>2026-04-03T16:28:15.34Z</time></trkpt><trkpt lat="43.4387764" lon="11.1688333"><ele>135.0</ele><time>2026-04-03T16:28:18.349Z</time></trkpt><trkpt lat="43.4388303" lon="11.1687718"><ele>135.0</ele><time>2026-04-03T16:28:21.364Z</time></trkpt><trkpt lat="43.4388902" lon="11.16874"><ele>135.0</ele><time>2026-04-03T16:28:26.343Z</time></trkpt><trkpt lat="43.4388327" lon="11.1687858"><ele>135.0</ele><time>2026-04-03T16:28:32.347Z</time></trkpt><trkpt lat="43.4387771" lon="11.1688298"><ele>135.0</ele><time>2026-04-03T16:28:36.349Z</time></trkpt><trkpt lat="43.4387222" lon="11.1689013"><ele>135.0</ele><time>2026-04-03T16:28:40.345Z</time></trkpt><trkpt lat="43.4386642" lon="11.1689887"><ele>135.0</ele><time>2026-04-03T16:28:44.336Z</time></trkpt><trkpt lat="43.4386046" lon="11.1690518"><ele>135.0</ele><time>2026-04-03T16:28:48.352Z</time></trkpt><trkpt lat="43.4385318" lon="11.1690879"><ele>135.0</ele><time>2026-04-03T16:28:53.348Z</time></trkpt><trkpt lat="43.4384598" lon="11.1691131"><ele>135.0</ele><time>2026-04-03T16:28:57.353Z</time></trkpt><trkpt lat="43.4383953" lon="11.169141"><ele>135.0</ele><time>2026-04-03T16:29:02.36Z</time></trkpt><trkpt lat="43.4383244" lon="11.1691918"><ele>135.0</ele><time>2026-04-03T16:29:08.343Z</time></trkpt><trkpt lat="43.4382505" lon="11.1692192"><ele>135.0</ele><time>2026-04-03T16:29:13.341Z</time></trkpt><trkpt lat="43.4381859" lon="11.1692668"><ele>135.0</ele><time>2026-04-03T16:29:17.344Z</time></trkpt><trkpt lat="43.4381355" lon="11.1693319"><ele>135.0</ele><time>2026-04-03T16:29:21.339Z</time></trkpt><trkpt lat="43.4380763" lon="11.1693934"><ele>135.0</ele><time>2026-04-03T16:29:26.344Z</time></trkpt><trkpt lat="43.4380266" lon="11.1694489"><ele>135.0</ele><time>2026-04-03T16:29:30.352Z</time></trkpt><trkpt lat="43.4379599" lon="11.1694647"><ele>135.0</ele><time>2026-04-03T16:29:37.347Z</time></trkpt><trkpt lat="43.4379302" lon="11.1693631"><ele>135.0</ele><time>2026-04-03T16:29:41.352Z</time></trkpt><trkpt lat="43.437939" lon="11.1692484"><ele>135.0</ele><time>2026-04-03T16:29:44.355Z</time></trkpt><trkpt lat="43.4379648" lon="11.1691198"><ele>135.0</ele><time>2026-04-03T16:29:47.339Z</time></trkpt><trkpt lat="43.437985" lon="11.1690222"><ele>133.57142857142856</ele><time>2026-04-03T16:29:49.356Z</time></trkpt><trkpt lat="43.4380076" lon="11.1689278"><ele>132.14285714285714</ele><time>2026-04-03T16:29:51.365Z</time></trkpt><trkpt lat="43.438041" lon="11.1688419"><ele>130.71428571428572</ele><time>2026-04-03T16:29:53.338Z</time></trkpt><trkpt lat="43.4380777" lon="11.1687588"><ele>129.28571428571428</ele><time>2026-04-03T16:29:55.346Z</time></trkpt><trkpt lat="43.4381137" lon="11.16867"><ele>127.85714285714286</ele><time>2026-04-03T16:29:57.346Z</time></trkpt><trkpt lat="43.4381485" lon="11.1685798"><ele>126.42857142857142</ele><time>2026-04-03T16:29:59.362Z</time></trkpt><trkpt lat="43.4381821" lon="11.1684956"><ele>125.0</ele><time>2026-04-03T16:30:01.351Z</time></trkpt><trkpt lat="43.4382254" lon="11.1683991"><ele>125.0</ele><time>2026-04-03T16:30:04.362Z</time></trkpt><trkpt lat="43.4382005" lon="11.1684792"><ele>125.0</ele><time>2026-04-03T16:30:19.35Z</time></trkpt><trkpt lat="43.4381625" lon="11.1685498"><ele>125.0</ele><time>2026-04-03T16:30:22.352Z</time></trkpt><trkpt lat="43.4381203" lon="11.1686286"><ele>125.0</ele><time>2026-04-03T16:30:25.337Z</time></trkpt><trkpt lat="43.4380813" lon="11.1687042"><ele>125.0</ele><time>2026-04-03T16:30:28.353Z</time></trkpt><trkpt lat="43.4380396" lon="11.1687852"><ele>125.0</ele><time>2026-04-03T16:30:31.342Z</time></trkpt><trkpt lat="43.4380019" lon="11.168876"><ele>125.0</ele><time>2026-04-03T16:30:34.367Z</time></trkpt><trkpt lat="43.4379752" lon="11.1689764"><ele>126.85714285714286</ele><time>2026-04-03T16:30:37.345Z</time></trkpt><trkpt lat="43.4379608" lon="11.1690641"><ele>128.71428571428572</ele><time>2026-04-03T16:30:40.352Z</time></trkpt><trkpt lat="43.4379447" lon="11.1691704"><ele>130.57142857142858</ele><time>2026-04-03T16:30:43.357Z</time></trkpt><trkpt lat="43.4379369" lon="11.1692889"><ele>132.42857142857144</ele><time>2026-04-03T16:30:46.339Z</time></trkpt><trkpt lat="43.4379319" lon="11.1693988"><ele>134.2857142857143</ele><time>2026-04-03T16:30:49.345Z</time></trkpt><trkpt lat="43.437946" lon="11.1694904"><ele>136.14285714285714</ele><time>2026-04-03T16:30:52.379Z</time></trkpt><trkpt lat="43.4379634" lon="11.1695765"><ele>138.0</ele><time>2026-04-03T16:30:57.341Z</time></trkpt><trkpt lat="43.4379213" lon="11.1696416"><ele>138.0</ele><time>2026-04-03T16:31:00.359Z</time></trkpt><trkpt lat="43.4378742" lon="11.169731"><ele>138.0</ele><time>2026-04-03T16:31:03.363Z</time></trkpt><trkpt lat="43.4378375" lon="11.1698252"><ele>138.0</ele><time>2026-04-03T16:31:06.353Z</time></trkpt><trkpt lat="43.437816" lon="11.1699299"><ele>138.0</ele><time>2026-04-03T16:31:09.348Z</time></trkpt><trkpt lat="43.437803" lon="11.1700311"><ele>138.0</ele><time>2026-04-03T16:31:12.374Z</time></trkpt><trkpt lat="43.4377888" lon="11.1701485"><ele>138.0</ele><time>2026-04-03T16:31:15.35Z</time></trkpt><trkpt lat="43.437768" lon="11.1702727"><ele>139.0</ele><time>2026-04-03T16:31:18.351Z</time></trkpt><trkpt lat="43.437751" lon="11.1703905"><ele>140.0</ele><time>2026-04-03T16:31:21.358Z</time></trkpt><trkpt lat="43.4377357" lon="11.1705159"><ele>141.0</ele><time>2026-04-03T16:31:24.353Z</time></trkpt><trkpt lat="43.4377144" lon="11.1706374"><ele>142.0</ele><time>2026-04-03T16:31:27.354Z</time></trkpt><trkpt lat="43.4376979" lon="11.1707595"><ele>143.0</ele><time>2026-04-03T16:31:30.352Z</time></trkpt><trkpt lat="43.4376826" lon="11.1708807"><ele>143.33333333333331</ele><time>2026-04-03T16:31:33.346Z</time></trkpt><trkpt lat="43.437671" lon="11.1709985"><ele>143.66666666666666</ele><time>2026-04-03T16:31:36.367Z</time></trkpt><trkpt lat="43.4376615" lon="11.171088"><ele>144.0</ele><time>2026-04-03T16:31:38.366Z</time></trkpt><trkpt lat="43.4376477" lon="11.1711756"><ele>144.33333333333334</ele><time>2026-04-03T16:31:40.351Z</time></trkpt><trkpt lat="43.437632" lon="11.1712637"><ele>144.66666666666669</ele><time>2026-04-03T16:31:42.357Z</time></trkpt><trkpt lat="43.4376104" lon="11.1713925"><ele>145.0</ele><time>2026-04-03T16:31:45.355Z</time></trkpt><trkpt lat="43.4375941" lon="11.1714896"><ele>145.14285714285714</ele><time>2026-04-03T16:31:47.348Z</time></trkpt><trkpt lat="43.4375757" lon="11.1715801"><ele>145.2857142857143</ele><time>2026-04-03T16:31:49.352Z</time></trkpt><trkpt lat="43.4375585" lon="11.1716638"><ele>145.42857142857144</ele><time>2026-04-03T16:31:51.352Z</time></trkpt><trkpt lat="43.4375376" lon="11.1717542"><ele>145.57142857142858</ele><time>2026-04-03T16:31:53.357Z</time></trkpt><trkpt lat="43.4375085" lon="11.1718453"><ele>145.71428571428572</ele><time>2026-04-03T16:31:55.343Z</time></trkpt><trkpt lat="43.4374753" lon="11.1719461"><ele>145.85714285714286</ele><time>2026-04-03T16:31:57.356Z</time></trkpt><trkpt lat="43.4374375" lon="11.1720505"><ele>146.0</ele><time>2026-04-03T16:31:59.348Z</time></trkpt><trkpt lat="43.4373992" lon="11.1721517"><ele>146.0</ele><time>2026-04-03T16:32:01.353Z</time></trkpt><trkpt lat="43.4373515" lon="11.1722337"><ele>146.0</ele><time>2026-04-03T16:32:03.354Z</time></trkpt><trkpt lat="43.4372964" lon="11.1723284"><ele>146.0</ele><time>2026-04-03T16:32:05.358Z</time></trkpt><trkpt lat="43.4372389" lon="11.17242"><ele>146.0</ele><time>2026-04-03T16:32:07.35Z</time></trkpt><trkpt lat="43.4371797" lon="11.1725109"><ele>146.0</ele><time>2026-04-03T16:32:09.348Z</time></trkpt><trkpt lat="43.4371225" lon="11.1726002"><ele>146.0</ele><time>2026-04-03T16:32:11.339Z</time></trkpt><trkpt lat="43.4370709" lon="11.1726845"><ele>146.33333333333331</ele><time>2026-04-03T16:32:13.348Z</time></trkpt><trkpt lat="43.4370195" lon="11.1727631"><ele>146.66666666666666</ele><time>2026-04-03T16:32:15.339Z</time></trkpt><trkpt lat="43.436963" lon="11.1728403"><ele>147.0</ele><time>2026-04-03T16:32:17.353Z</time></trkpt><trkpt lat="43.4369075" lon="11.1729107"><ele>147.33333333333334</ele><time>2026-04-03T16:32:19.349Z</time></trkpt><trkpt lat="43.4368518" lon="11.1729749"><ele>147.66666666666669</ele><time>2026-04-03T16:32:21.347Z</time></trkpt><trkpt lat="43.4367959" lon="11.17305"><ele>148.0</ele><time>2026-04-03T16:32:23.341Z</time></trkpt><trkpt lat="43.4367412" lon="11.173131"><ele>147.83333333333334</ele><time>2026-04-03T16:32:25.339Z</time></trkpt><trkpt lat="43.4366813" lon="11.1732045"><ele>147.66666666666669</ele><time>2026-04-03T16:32:27.349Z</time></trkpt><trkpt lat="43.4366283" lon="11.1732817"><ele>147.5</ele><time>2026-04-03T16:32:29.345Z</time></trkpt><trkpt lat="43.4365776" lon="11.1733692"><ele>147.33333333333334</ele><time>2026-04-03T16:32:31.36Z</time></trkpt><trkpt lat="43.4365197" lon="11.1734354"><ele>147.16666666666666</ele><time>2026-04-03T16:32:33.35Z</time></trkpt><trkpt lat="43.4364615" lon="11.1734957"><ele>147.0</ele><time>2026-04-03T16:32:35.351Z</time></trkpt><trkpt lat="43.4364172" lon="11.1735614"><ele>147.0</ele><time>2026-04-03T16:32:37.348Z</time></trkpt><trkpt lat="43.4363681" lon="11.1736225"><ele>147.0</ele><time>2026-04-03T16:32:39.359Z</time></trkpt><trkpt lat="43.4363136" lon="11.1736867"><ele>147.0</ele><time>2026-04-03T16:32:41.339Z</time></trkpt><trkpt lat="43.4362616" lon="11.1737472"><ele>147.0</ele><time>2026-04-03T16:32:43.354Z</time></trkpt><trkpt lat="43.4362098" lon="11.1738062"><ele>147.0</ele><time>2026-04-03T16:32:45.352Z</time></trkpt><trkpt lat="43.4361641" lon="11.1738777"><ele>147.0</ele><time>2026-04-03T16:32:47.352Z</time></trkpt><trkpt lat="43.4361237" lon="11.1739467"><ele>147.0</ele><time>2026-04-03T16:32:49.353Z</time></trkpt><trkpt lat="43.4360777" lon="11.1740095"><ele>148.0</ele><time>2026-04-03T16:32:51.368Z</time></trkpt><trkpt lat="43.4360253" lon="11.1740696"><ele>149.0</ele><time>2026-04-03T16:32:53.353Z</time></trkpt><trkpt lat="43.4359727" lon="11.1741243"><ele>150.0</ele><time>2026-04-03T16:32:55.344Z</time></trkpt><trkpt lat="43.4359238" lon="11.1741812"><ele>151.0</ele><time>2026-04-03T16:32:57.358Z</time></trkpt><trkpt lat="43.4358721" lon="11.1742345"><ele>152.0</ele><time>2026-04-03T16:32:59.348Z</time></trkpt><trkpt lat="43.4358227" lon="11.1742955"><ele>153.0</ele><time>2026-04-03T16:33:01.348Z</time></trkpt><trkpt lat="43.435775" lon="11.1743632"><ele>154.0</ele><time>2026-04-03T16:33:03.363Z</time></trkpt><trkpt lat="43.4357264" lon="11.1744265"><ele>154.0</ele><time>2026-04-03T16:33:05.363Z</time></trkpt><trkpt lat="43.4356588" lon="11.1745168"><ele>154.0</ele><time>2026-04-03T16:33:08.342Z</time></trkpt><trkpt lat="43.4355953" lon="11.174595"><ele>154.0</ele><time>2026-04-03T16:33:11.351Z</time></trkpt><trkpt lat="43.4355444" lon="11.1746505"><ele>154.0</ele><time>2026-04-03T16:33:13.349Z</time></trkpt><trkpt lat="43.4354901" lon="11.174711"><ele>154.0</ele><time>2026-04-03T16:33:15.339Z</time></trkpt><trkpt lat="43.4354382" lon="11.1747783"><ele>154.0</ele><time>2026-04-03T16:33:17.345Z</time></trkpt><trkpt lat="43.4353858" lon="11.1748484"><ele>154.14285714285714</ele><time>2026-04-03T16:33:19.358Z</time></trkpt><trkpt lat="43.4353331" lon="11.1749226"><ele>154.28571428571428</ele><time>2026-04-03T16:33:21.342Z</time></trkpt><trkpt lat="43.4352808" lon="11.1749932"><ele>154.42857142857144</ele><time>2026-04-03T16:33:23.35Z</time></trkpt><trkpt lat="43.4352276" lon="11.1750615"><ele>154.57142857142856</ele><time>2026-04-03T16:33:25.371Z</time></trkpt><trkpt lat="43.4351723" lon="11.1751372"><ele>154.71428571428572</ele><time>2026-04-03T16:33:27.348Z</time></trkpt><trkpt lat="43.4351215" lon="11.1752086"><ele>154.85714285714286</ele><time>2026-04-03T16:33:29.354Z</time></trkpt><trkpt lat="43.4350752" lon="11.1752758"><ele>155.0</ele><time>2026-04-03T16:33:31.349Z</time></trkpt><trkpt lat="43.4350252" lon="11.1753399"><ele>155.0</ele><time>2026-04-03T16:33:33.343Z</time></trkpt><trkpt lat="43.4349724" lon="11.1753939"><ele>155.0</ele><time>2026-04-03T16:33:35.351Z</time></trkpt><trkpt lat="43.4349227" lon="11.1754495"><ele>155.0</ele><time>2026-04-03T16:33:37.351Z</time></trkpt><trkpt lat="43.4348683" lon="11.1755098"><ele>155.0</ele><time>2026-04-03T16:33:39.349Z</time></trkpt><trkpt lat="43.4348175" lon="11.1755771"><ele>155.0</ele><time>2026-04-03T16:33:41.339Z</time></trkpt><trkpt lat="43.4347677" lon="11.1756408"><ele>155.0</ele><time>2026-04-03T16:33:43.347Z</time></trkpt><trkpt lat="43.4347129" lon="11.1757059"><ele>155.0</ele><time>2026-04-03T16:33:45.351Z</time></trkpt><trkpt lat="43.4346512" lon="11.1757714"><ele>155.66666666666666</ele><time>2026-04-03T16:33:47.345Z</time></trkpt><trkpt lat="43.4345893" lon="11.1758328"><ele>156.33333333333331</ele><time>2026-04-03T16:33:49.359Z</time></trkpt><trkpt lat="43.4345334" lon="11.1758926"><ele>157.0</ele><time>2026-04-03T16:33:51.351Z</time></trkpt><trkpt lat="43.4344695" lon="11.1759522"><ele>157.66666666666666</ele><time>2026-04-03T16:33:53.334Z</time></trkpt><trkpt lat="43.4344075" lon="11.1760225"><ele>158.33333333333334</ele><time>2026-04-03T16:33:55.362Z</time></trkpt><trkpt lat="43.4343413" lon="11.1760897"><ele>159.0</ele><time>2026-04-03T16:33:57.334Z</time></trkpt><trkpt lat="43.4342731" lon="11.1761457"><ele>159.0</ele><time>2026-04-03T16:33:59.347Z</time></trkpt><trkpt lat="43.4342092" lon="11.1762016"><ele>159.0</ele><time>2026-04-03T16:34:01.339Z</time></trkpt><trkpt lat="43.4341384" lon="11.1762598"><ele>159.0</ele><time>2026-04-03T16:34:03.368Z</time></trkpt><trkpt lat="43.4340615" lon="11.1763158"><ele>159.0</ele><time>2026-04-03T16:34:05.356Z</time></trkpt><trkpt lat="43.4339846" lon="11.1763658"><ele>159.0</ele><time>2026-04-03T16:34:07.359Z</time></trkpt><trkpt lat="43.4338992" lon="11.1764131"><ele>159.0</ele><time>2026-04-03T16:34:09.351Z</time></trkpt><trkpt lat="43.43381" lon="11.1764604"><ele>158.6</ele><time>2026-04-03T16:34:11.355Z</time></trkpt><trkpt lat="43.433714" lon="11.1765076"><ele>158.2</ele><time>2026-04-03T16:34:13.347Z</time></trkpt><trkpt lat="43.4336204" lon="11.1765518"><ele>157.79999999999998</ele><time>2026-04-03T16:34:15.333Z</time></trkpt><trkpt lat="43.43353" lon="11.1766089"><ele>157.4</ele><time>2026-04-03T16:34:17.346Z</time></trkpt><trkpt lat="43.4334364" lon="11.1766621"><ele>157.0</ele><time>2026-04-03T16:34:19.356Z</time></trkpt><trkpt lat="43.4333449" lon="11.1767027"><ele>157.0</ele><time>2026-04-03T16:34:21.344Z</time></trkpt><trkpt lat="43.4332549" lon="11.1767442"><ele>157.0</ele><time>2026-04-03T16:34:23.352Z</time></trkpt><trkpt lat="43.4331657" lon="11.1767864"><ele>157.0</ele><time>2026-04-03T16:34:25.355Z</time></trkpt><trkpt lat="43.4330823" lon="11.176827"><ele>157.0</ele><time>2026-04-03T16:34:27.367Z</time></trkpt><trkpt lat="43.4329953" lon="11.1768747"><ele>157.0</ele><time>2026-04-03T16:34:29.351Z</time></trkpt><trkpt lat="43.4329058" lon="11.1769201"><ele>157.4</ele><time>2026-04-03T16:34:31.341Z</time></trkpt><trkpt lat="43.4328102" lon="11.1769601"><ele>157.79999999999998</ele><time>2026-04-03T16:34:33.343Z</time></trkpt><trkpt lat="43.432707" lon="11.1769825"><ele>158.2</ele><time>2026-04-03T16:34:35.359Z</time></trkpt><trkpt lat="43.4325997" lon="11.1769923"><ele>158.6</ele><time>2026-04-03T16:34:37.354Z</time></trkpt><trkpt lat="43.4324951" lon="11.1769782"><ele>159.0</ele><time>2026-04-03T16:34:39.354Z</time></trkpt><trkpt lat="43.4323927" lon="11.1769458"><ele>159.0</ele><time>2026-04-03T16:34:41.346Z</time></trkpt><trkpt lat="43.432296" lon="11.1768925"><ele>159.0</ele><time>2026-04-03T16:34:43.34Z</time></trkpt><trkpt lat="43.4322121" lon="11.176821"><ele>159.0</ele><time>2026-04-03T16:34:45.339Z</time></trkpt><trkpt lat="43.4321323" lon="11.1767421"><ele>159.0</ele><time>2026-04-03T16:34:47.344Z</time></trkpt><trkpt lat="43.4320518" lon="11.1766618"><ele>159.0</ele><time>2026-04-03T16:34:49.345Z</time></trkpt><trkpt lat="43.4319748" lon="11.1765787"><ele>159.8</ele><time>2026-04-03T16:34:51.347Z</time></trkpt><trkpt lat="43.4319007" lon="11.17649"><ele>160.60000000000002</ele><time>2026-04-03T16:34:53.358Z</time></trkpt><trkpt lat="43.4318199" lon="11.176405"><ele>161.4</ele><time>2026-04-03T16:34:55.355Z</time></trkpt><trkpt lat="43.4317331" lon="11.1763222"><ele>162.20000000000002</ele><time>2026-04-03T16:34:57.344Z</time></trkpt><trkpt lat="43.4316498" lon="11.1762401"><ele>163.0</ele><time>2026-04-03T16:34:59.36Z</time></trkpt><trkpt lat="43.431572" lon="11.1761564"><ele>163.0</ele><time>2026-04-03T16:35:01.339Z</time></trkpt><trkpt lat="43.4314977" lon="11.1760648"><ele>163.0</ele><time>2026-04-03T16:35:03.35Z</time></trkpt><trkpt lat="43.4314266" lon="11.1759617"><ele>163.0</ele><time>2026-04-03T16:35:05.355Z</time></trkpt><trkpt lat="43.4313633" lon="11.1758488"><ele>163.0</ele><time>2026-04-03T16:35:07.36Z</time></trkpt><trkpt lat="43.4313193" lon="11.175727"><ele>163.0</ele><time>2026-04-03T16:35:09.35Z</time></trkpt><trkpt lat="43.4312846" lon="11.1755974"><ele>162.8</ele><time>2026-04-03T16:35:11.353Z</time></trkpt><trkpt lat="43.4312494" lon="11.1754614"><ele>162.60000000000002</ele><time>2026-04-03T16:35:13.346Z</time></trkpt><trkpt lat="43.4312146" lon="11.1753236"><ele>162.39999999999998</ele><time>2026-04-03T16:35:15.349Z</time></trkpt><trkpt lat="43.4311705" lon="11.1752025"><ele>162.2</ele><time>2026-04-03T16:35:17.351Z</time></trkpt><trkpt lat="43.4311199" lon="11.1750959"><ele>162.0</ele><time>2026-04-03T16:35:19.335Z</time></trkpt><trkpt lat="43.4310538" lon="11.1750004"><ele>162.0</ele><time>2026-04-03T16:35:21.353Z</time></trkpt><trkpt lat="43.4309584" lon="11.1749521"><ele>162.0</ele><time>2026-04-03T16:35:23.347Z</time></trkpt><trkpt lat="43.4308522" lon="11.1749451"><ele>162.0</ele><time>2026-04-03T16:35:25.352Z</time></trkpt><trkpt lat="43.4307479" lon="11.1749627"><ele>162.0</ele><time>2026-04-03T16:35:27.345Z</time></trkpt><trkpt lat="43.4306436" lon="11.1749928"><ele>162.0</ele><time>2026-04-03T16:35:29.373Z</time></trkpt><trkpt lat="43.4305414" lon="11.1750398"><ele>162.6</ele><time>2026-04-03T16:35:31.347Z</time></trkpt><trkpt lat="43.4304454" lon="11.1751045"><ele>163.2</ele><time>2026-04-03T16:35:33.339Z</time></trkpt><trkpt lat="43.4303735" lon="11.1752075"><ele>163.8</ele><time>2026-04-03T16:35:35.355Z</time></trkpt><trkpt lat="43.4303237" lon="11.1753243"><ele>164.4</ele><time>2026-04-03T16:35:37.357Z</time></trkpt><trkpt lat="43.4302691" lon="11.1754363"><ele>165.0</ele><time>2026-04-03T16:35:39.362Z</time></trkpt><trkpt lat="43.4302075" lon="11.1755416"><ele>165.0</ele><time>2026-04-03T16:35:41.35Z</time></trkpt><trkpt lat="43.4301145" lon="11.1756032"><ele>165.0</ele><time>2026-04-03T16:35:43.356Z</time></trkpt><trkpt lat="43.4300071" lon="11.1756075"><ele>165.0</ele><time>2026-04-03T16:35:45.344Z</time></trkpt><trkpt lat="43.4299001" lon="11.1755782"><ele>165.0</ele><time>2026-04-03T16:35:47.343Z</time></trkpt><trkpt lat="43.4298196" lon="11.1755014"><ele>165.0</ele><time>2026-04-03T16:35:49.343Z</time></trkpt><trkpt lat="43.4297536" lon="11.1754073"><ele>165.0</ele><time>2026-04-03T16:35:51.361Z</time></trkpt><trkpt lat="43.4296877" lon="11.1753181"><ele>165.0</ele><time>2026-04-03T16:35:53.35Z</time></trkpt><trkpt lat="43.4296212" lon="11.175238"><ele>165.0</ele><time>2026-04-03T16:35:55.343Z</time></trkpt><trkpt lat="43.4295526" lon="11.1751464"><ele>165.0</ele><time>2026-04-03T16:35:57.336Z</time></trkpt><trkpt lat="43.4294808" lon="11.1750656"><ele>165.0</ele><time>2026-04-03T16:35:59.35Z</time></trkpt><trkpt lat="43.4294089" lon="11.1749782"><ele>166.0</ele><time>2026-04-03T16:36:01.357Z</time></trkpt><trkpt lat="43.4293334" lon="11.1748921"><ele>167.0</ele><time>2026-04-03T16:36:03.344Z</time></trkpt><trkpt lat="43.4292572" lon="11.1748144"><ele>168.0</ele><time>2026-04-03T16:36:05.346Z</time></trkpt><trkpt lat="43.4291786" lon="11.174755"><ele>169.0</ele><time>2026-04-03T16:36:07.351Z</time></trkpt><trkpt lat="43.4290942" lon="11.1747158"><ele>170.0</ele><time>2026-04-03T16:36:09.349Z</time></trkpt><trkpt lat="43.4290018" lon="11.1746946"><ele>171.0</ele><time>2026-04-03T16:36:11.352Z</time></trkpt><trkpt lat="43.4289145" lon="11.1746837"><ele>172.0</ele><time>2026-04-03T16:36:13.335Z</time></trkpt><trkpt lat="43.428826" lon="11.1746807"><ele>173.0</ele><time>2026-04-03T16:36:15.355Z</time></trkpt><trkpt lat="43.4287329" lon="11.1746953"><ele>174.0</ele><time>2026-04-03T16:36:17.355Z</time></trkpt><trkpt lat="43.4286361" lon="11.1747287"><ele>175.0</ele><time>2026-04-03T16:36:19.349Z</time></trkpt><trkpt lat="43.4285306" lon="11.1747782"><ele>175.6</ele><time>2026-04-03T16:36:21.347Z</time></trkpt><trkpt lat="43.4284274" lon="11.1748307"><ele>176.2</ele><time>2026-04-03T16:36:23.357Z</time></trkpt><trkpt lat="43.4283198" lon="11.1748876"><ele>176.8</ele><time>2026-04-03T16:36:25.358Z</time></trkpt><trkpt lat="43.4282052" lon="11.1749373"><ele>177.4</ele><time>2026-04-03T16:36:27.355Z</time></trkpt><trkpt lat="43.4281444" lon="11.1749622"><ele>178.0</ele><time>2026-04-03T16:36:28.353Z</time></trkpt><trkpt lat="43.4280822" lon="11.174988"><ele>176.7142857142857</ele><time>2026-04-03T16:36:29.351Z</time></trkpt><trkpt lat="43.4280189" lon="11.1750178"><ele>175.42857142857142</ele><time>2026-04-03T16:36:30.347Z</time></trkpt><trkpt lat="43.427955" lon="11.1750475"><ele>174.14285714285714</ele><time>2026-04-03T16:36:31.355Z</time></trkpt><trkpt lat="43.4278893" lon="11.1750759"><ele>172.85714285714283</ele><time>2026-04-03T16:36:32.337Z</time></trkpt><trkpt lat="43.4278211" lon="11.1751022"><ele>171.57142857142856</ele><time>2026-04-03T16:36:33.355Z</time></trkpt><trkpt lat="43.4277507" lon="11.1751272"><ele>170.28571428571428</ele><time>2026-04-03T16:36:34.35Z</time></trkpt><trkpt lat="43.4276791" lon="11.1751558"><ele>169.0</ele><time>2026-04-03T16:36:35.358Z</time></trkpt><trkpt lat="43.4276103" lon="11.1751908"><ele>169.0</ele><time>2026-04-03T16:36:36.348Z</time></trkpt><trkpt lat="43.4275408" lon="11.1752273"><ele>169.0</ele><time>2026-04-03T16:36:37.346Z</time></trkpt><trkpt lat="43.4274732" lon="11.175268"><ele>169.0</ele><time>2026-04-03T16:36:38.339Z</time></trkpt><trkpt lat="43.4274079" lon="11.1753158"><ele>169.0</ele><time>2026-04-03T16:36:39.36Z</time></trkpt><trkpt lat="43.4273513" lon="11.1753819"><ele>169.0</ele><time>2026-04-03T16:36:40.339Z</time></trkpt><trkpt lat="43.4273028" lon="11.175461"><ele>169.0</ele><time>2026-04-03T16:36:41.357Z</time></trkpt><trkpt lat="43.4272692" lon="11.1755531"><ele>169.0</ele><time>2026-04-03T16:36:42.363Z</time></trkpt><trkpt lat="43.4272498" lon="11.1756511"><ele>167.83333333333334</ele><time>2026-04-03T16:36:43.345Z</time></trkpt><trkpt lat="43.4272387" lon="11.1757514"><ele>166.66666666666669</ele><time>2026-04-03T16:36:44.355Z</time></trkpt><trkpt lat="43.4272372" lon="11.17585"><ele>165.5</ele><time>2026-04-03T16:36:45.351Z</time></trkpt><trkpt lat="43.4272387" lon="11.175948"><ele>164.33333333333334</ele><time>2026-04-03T16:36:46.343Z</time></trkpt><trkpt lat="43.4272357" lon="11.1760409"><ele>163.16666666666666</ele><time>2026-04-03T16:36:47.347Z</time></trkpt><trkpt lat="43.4272281" lon="11.1761283"><ele>162.0</ele><time>2026-04-03T16:36:48.351Z</time></trkpt><trkpt lat="43.4272146" lon="11.1762953"><ele>162.0</ele><time>2026-04-03T16:36:50.361Z</time></trkpt><trkpt lat="43.4272047" lon="11.1763815"><ele>162.0</ele><time>2026-04-03T16:36:51.362Z</time></trkpt><trkpt lat="43.4271764" lon="11.1765476"><ele>162.0</ele><time>2026-04-03T16:36:53.355Z</time></trkpt><trkpt lat="43.4271395" lon="11.176708"><ele>162.0</ele><time>2026-04-03T16:36:55.346Z</time></trkpt><trkpt lat="43.4270882" lon="11.1768506"><ele>162.0</ele><time>2026-04-03T16:36:57.346Z</time></trkpt><trkpt lat="43.4270287" lon="11.176984"><ele>162.6</ele><time>2026-04-03T16:36:59.347Z</time></trkpt><trkpt lat="43.4269681" lon="11.1771093"><ele>163.2</ele><time>2026-04-03T16:37:01.362Z</time></trkpt><trkpt lat="43.4269061" lon="11.1772253"><ele>163.8</ele><time>2026-04-03T16:37:03.372Z</time></trkpt><trkpt lat="43.4268428" lon="11.1773409"><ele>164.4</ele><time>2026-04-03T16:37:05.352Z</time></trkpt><trkpt lat="43.4267849" lon="11.1774586"><ele>165.0</ele><time>2026-04-03T16:37:07.336Z</time></trkpt><trkpt lat="43.4267181" lon="11.1775778"><ele>165.0</ele><time>2026-04-03T16:37:09.348Z</time></trkpt><trkpt lat="43.4266554" lon="11.1776925"><ele>165.0</ele><time>2026-04-03T16:37:11.364Z</time></trkpt><trkpt lat="43.4266007" lon="11.1778043"><ele>165.0</ele><time>2026-04-03T16:37:13.351Z</time></trkpt><trkpt lat="43.4265392" lon="11.1779127"><ele>165.0</ele><time>2026-04-03T16:37:15.353Z</time></trkpt><trkpt lat="43.4264788" lon="11.178029"><ele>165.0</ele><time>2026-04-03T16:37:17.355Z</time></trkpt><trkpt lat="43.4264106" lon="11.1781456"><ele>165.75</ele><time>2026-04-03T16:37:19.358Z</time></trkpt><trkpt lat="43.4263436" lon="11.1782688"><ele>166.5</ele><time>2026-04-03T16:37:21.352Z</time></trkpt><trkpt lat="43.4262765" lon="11.1783942"><ele>167.25</ele><time>2026-04-03T16:37:23.351Z</time></trkpt><trkpt lat="43.426199" lon="11.1785183"><ele>168.0</ele><time>2026-04-03T16:37:25.337Z</time></trkpt><trkpt lat="43.4261066" lon="11.1786356"><ele>168.0</ele><time>2026-04-03T16:37:27.361Z</time></trkpt><trkpt lat="43.4260552" lon="11.1786872"><ele>168.0</ele><time>2026-04-03T16:37:28.346Z</time></trkpt><trkpt lat="43.4259947" lon="11.1787274"><ele>168.0</ele><time>2026-04-03T16:37:29.357Z</time></trkpt><trkpt lat="43.4259314" lon="11.1787525"><ele>168.0</ele><time>2026-04-03T16:37:30.331Z</time></trkpt><trkpt lat="43.4258697" lon="11.1787739"><ele>168.0</ele><time>2026-04-03T16:37:31.346Z</time></trkpt><trkpt lat="43.4258065" lon="11.1787944"><ele>168.0</ele><time>2026-04-03T16:37:32.351Z</time></trkpt><trkpt lat="43.4257396" lon="11.1788132"><ele>168.0</ele><time>2026-04-03T16:37:33.373Z</time></trkpt><trkpt lat="43.4256728" lon="11.1788197"><ele>168.0</ele><time>2026-04-03T16:37:34.355Z</time></trkpt><trkpt lat="43.4256046" lon="11.1788215"><ele>168.0</ele><time>2026-04-03T16:37:35.349Z</time></trkpt><trkpt lat="43.4255408" lon="11.1788129"><ele>168.0</ele><time>2026-04-03T16:37:36.351Z</time></trkpt><trkpt lat="43.4254232" lon="11.1787889"><ele>168.0</ele><time>2026-04-03T16:37:38.348Z</time></trkpt><trkpt lat="43.425311" lon="11.1787768"><ele>168.0</ele><time>2026-04-03T16:37:40.357Z</time></trkpt><trkpt lat="43.4252019" lon="11.1787639"><ele>168.8</ele><time>2026-04-03T16:37:42.344Z</time></trkpt><trkpt lat="43.4250974" lon="11.178752"><ele>169.60000000000002</ele><time>2026-04-03T16:37:44.343Z</time></trkpt><trkpt lat="43.4249922" lon="11.1787536"><ele>170.39999999999998</ele><time>2026-04-03T16:37:46.35Z</time></trkpt><trkpt lat="43.4248907" lon="11.178755"><ele>171.2</ele><time>2026-04-03T16:37:48.357Z</time></trkpt><trkpt lat="43.4247904" lon="11.178763"><ele>172.0</ele><time>2026-04-03T16:37:50.375Z</time></trkpt><trkpt lat="43.4246918" lon="11.1787837"><ele>173.6</ele><time>2026-04-03T16:37:52.339Z</time></trkpt><trkpt lat="43.4245945" lon="11.1787995"><ele>175.2</ele><time>2026-04-03T16:37:54.335Z</time></trkpt><trkpt lat="43.4245027" lon="11.1788177"><ele>176.8</ele><time>2026-04-03T16:37:56.343Z</time></trkpt><trkpt lat="43.4244027" lon="11.17885"><ele>178.4</ele><time>2026-04-03T16:37:58.348Z</time></trkpt><trkpt lat="43.4242991" lon="11.1788741"><ele>180.0</ele><time>2026-04-03T16:38:00.341Z</time></trkpt><trkpt lat="43.4241942" lon="11.1788991"><ele>180.0</ele><time>2026-04-03T16:38:02.347Z</time></trkpt><trkpt lat="43.4240894" lon="11.1789305"><ele>180.0</ele><time>2026-04-03T16:38:04.353Z</time></trkpt><trkpt lat="43.4239808" lon="11.1789617"><ele>180.0</ele><time>2026-04-03T16:38:06.348Z</time></trkpt><trkpt lat="43.4238821" lon="11.1789917"><ele>180.0</ele><time>2026-04-03T16:38:08.355Z</time></trkpt><trkpt lat="43.4237868" lon="11.17901"><ele>180.0</ele><time>2026-04-03T16:38:10.343Z</time></trkpt><trkpt lat="43.4236949" lon="11.1790314"><ele>178.6</ele><time>2026-04-03T16:38:12.355Z</time></trkpt><trkpt lat="43.4236037" lon="11.1790542"><ele>177.2</ele><time>2026-04-03T16:38:14.349Z</time></trkpt><trkpt lat="43.4235116" lon="11.1790753"><ele>175.8</ele><time>2026-04-03T16:38:16.351Z</time></trkpt><trkpt lat="43.4234213" lon="11.1790959"><ele>174.4</ele><time>2026-04-03T16:38:18.362Z</time></trkpt><trkpt lat="43.4233348" lon="11.1791157"><ele>173.0</ele><time>2026-04-03T16:38:20.352Z</time></trkpt><trkpt lat="43.4232481" lon="11.1791352"><ele>173.0</ele><time>2026-04-03T16:38:22.333Z</time></trkpt><trkpt lat="43.4231568" lon="11.1791607"><ele>173.0</ele><time>2026-04-03T16:38:24.348Z</time></trkpt><trkpt lat="43.4230674" lon="11.1791901"><ele>173.0</ele><time>2026-04-03T16:38:26.351Z</time></trkpt><trkpt lat="43.4229735" lon="11.1792081"><ele>173.0</ele><time>2026-04-03T16:38:28.341Z</time></trkpt><trkpt lat="43.4228845" lon="11.1792298"><ele>173.0</ele><time>2026-04-03T16:38:30.338Z</time></trkpt><trkpt lat="43.4227972" lon="11.1792543"><ele>173.83333333333331</ele><time>2026-04-03T16:38:32.344Z</time></trkpt><trkpt lat="43.4227161" lon="11.1792746"><ele>174.66666666666666</ele><time>2026-04-03T16:38:34.353Z</time></trkpt><trkpt lat="43.4226301" lon="11.1792979"><ele>175.5</ele><time>2026-04-03T16:38:36.37Z</time></trkpt><trkpt lat="43.4225463" lon="11.1793295"><ele>176.33333333333334</ele><time>2026-04-03T16:38:38.352Z</time></trkpt><trkpt lat="43.422463" lon="11.1793539"><ele>177.16666666666669</ele><time>2026-04-03T16:38:40.359Z</time></trkpt><trkpt lat="43.4223817" lon="11.1793745"><ele>178.0</ele><time>2026-04-03T16:38:42.353Z</time></trkpt><trkpt lat="43.4223004" lon="11.179401"><ele>178.0</ele><time>2026-04-03T16:38:44.339Z</time></trkpt><trkpt lat="43.4222255" lon="11.179432"><ele>178.0</ele><time>2026-04-03T16:38:46.345Z</time></trkpt><trkpt lat="43.4221493" lon="11.1794663"><ele>178.0</ele><time>2026-04-03T16:38:48.351Z</time></trkpt><trkpt lat="43.4220693" lon="11.179505"><ele>178.0</ele><time>2026-04-03T16:38:50.362Z</time></trkpt><trkpt lat="43.4219927" lon="11.1795381"><ele>178.0</ele><time>2026-04-03T16:38:52.344Z</time></trkpt><trkpt lat="43.4219186" lon="11.1795711"><ele>178.0</ele><time>2026-04-03T16:38:54.349Z</time></trkpt><trkpt lat="43.4218448" lon="11.1796061"><ele>177.7142857142857</ele><time>2026-04-03T16:38:56.355Z</time></trkpt><trkpt lat="43.4217723" lon="11.179636"><ele>177.42857142857142</ele><time>2026-04-03T16:38:58.376Z</time></trkpt><trkpt lat="43.421711" lon="11.17967"><ele>177.14285714285714</ele><time>2026-04-03T16:39:00.353Z</time></trkpt><trkpt lat="43.4216509" lon="11.179708"><ele>176.85714285714283</ele><time>2026-04-03T16:39:02.353Z</time></trkpt><trkpt lat="43.421562" lon="11.1797485"><ele>176.57142857142856</ele><time>2026-04-03T16:39:05.347Z</time></trkpt><trkpt lat="43.4214968" lon="11.1797509"><ele>176.28571428571428</ele><time>2026-04-03T16:39:07.339Z</time></trkpt><trkpt lat="43.4214223" lon="11.1797479"><ele>176.0</ele><time>2026-04-03T16:39:09.354Z</time></trkpt><trkpt lat="43.421346" lon="11.1797523"><ele>175.4</ele><time>2026-04-03T16:39:11.368Z</time></trkpt><trkpt lat="43.4212776" lon="11.1797954"><ele>174.8</ele><time>2026-04-03T16:39:13.354Z</time></trkpt><trkpt lat="43.4212352" lon="11.179895"><ele>174.20000000000002</ele><time>2026-04-03T16:39:15.352Z</time></trkpt><trkpt lat="43.4212441" lon="11.1800203"><ele>173.60000000000002</ele><time>2026-04-03T16:39:17.34Z</time></trkpt><trkpt lat="43.4212998" lon="11.180139"><ele>173.0</ele><time>2026-04-03T16:39:19.336Z</time></trkpt><trkpt lat="43.421374" lon="11.1802535"><ele>173.0</ele><time>2026-04-03T16:39:21.346Z</time></trkpt><trkpt lat="43.4214519" lon="11.1803922"><ele>173.0</ele><time>2026-04-03T16:39:23.357Z</time></trkpt><trkpt lat="43.4214842" lon="11.1804732"><ele>173.0</ele><time>2026-04-03T16:39:24.344Z</time></trkpt><trkpt lat="43.4215169" lon="11.1805509"><ele>173.0</ele><time>2026-04-03T16:39:25.344Z</time></trkpt><trkpt lat="43.4215492" lon="11.180685"><ele>173.0</ele><time>2026-04-03T16:39:27.345Z</time></trkpt><trkpt lat="43.4215561" lon="11.1807767"><ele>173.0</ele><time>2026-04-03T16:39:29.373Z</time></trkpt><trkpt lat="43.4215998" lon="11.1807117"><ele>173.0</ele><time>2026-04-03T16:39:34.355Z</time></trkpt><trkpt lat="43.4216549" lon="11.1806317"><ele>173.0</ele><time>2026-04-03T16:39:37.351Z</time></trkpt><trkpt lat="43.4217386" lon="11.1805719"><ele>173.0</ele><time>2026-04-03T16:39:40.363Z</time></trkpt><trkpt lat="43.4217997" lon="11.1805241"><ele>173.0</ele><time>2026-04-03T16:39:42.359Z</time></trkpt><trkpt lat="43.4218762" lon="11.1804606"><ele>173.0</ele><time>2026-04-03T16:39:45.353Z</time></trkpt><trkpt lat="43.4219346" lon="11.1803983"><ele>173.0</ele><time>2026-04-03T16:39:48.353Z</time></trkpt><trkpt lat="43.4220084" lon="11.180347"><ele>173.0</ele><time>2026-04-03T16:39:51.362Z</time></trkpt><trkpt lat="43.4220794" lon="11.1803094"><ele>173.0</ele><time>2026-04-03T16:39:54.353Z</time></trkpt><trkpt lat="43.4221238" lon="11.1803908"><ele>173.0</ele><time>2026-04-03T16:39:58.354Z</time></trkpt><trkpt lat="43.4221446" lon="11.1804799"><ele>173.0</ele><time>2026-04-03T16:40:01.349Z</time></trkpt><trkpt lat="43.4221711" lon="11.1805861"><ele>173.0</ele><time>2026-04-03T16:40:04.351Z</time></trkpt><trkpt lat="43.4221787" lon="11.1807007"><ele>173.0</ele><time>2026-04-03T16:40:07.351Z</time></trkpt><trkpt lat="43.4222058" lon="11.1808128"><ele>172.57142857142856</ele><time>2026-04-03T16:40:10.355Z</time></trkpt><trkpt lat="43.4222179" lon="11.1809187"><ele>172.14285714285717</ele><time>2026-04-03T16:40:13.357Z</time></trkpt><trkpt lat="43.4222152" lon="11.1808211"><ele>171.71428571428572</ele><time>2026-04-03T16:40:19.346Z</time></trkpt><trkpt lat="43.4221999" lon="11.1807312"><ele>171.28571428571428</ele><time>2026-04-03T16:40:22.364Z</time></trkpt><trkpt lat="43.4221629" lon="11.1808138"><ele>170.85714285714283</ele><time>2026-04-03T16:40:31.343Z</time></trkpt><trkpt lat="43.4221788" lon="11.1809094"><ele>170.42857142857144</ele><time>2026-04-03T16:47:08.361Z</time></trkpt><trkpt lat="43.422198" lon="11.1809982"><ele>170.0</ele><time>2026-04-03T16:47:13.344Z</time></trkpt><trkpt lat="43.4221999" lon="11.1810884"><ele>170.0</ele><time>2026-04-03T16:47:17.351Z</time></trkpt><trkpt lat="43.42214" lon="11.1811402"><ele>174.0</ele><time>2026-04-03T16:47:21.383Z</time></trkpt><trkpt lat="43.4220766" lon="11.1811706"><ele>174.0</ele><time>2026-04-03T16:47:26.343Z</time></trkpt></trkseg></trk></gpx>